Darstellungsparameter: Aktuell verwendete Einstellungen:
Skalierung der Graphiken ... ?
xyx+y,   Skalierungsfaktor:      Skalierung: Modus: x, Faktor: 1
Darstellungszeitraum ... ?
Vom - - bis: - -   Zeitraum: 02.02.2010 - 01.03.2010
Min/Max/Avg-Anzeige ... ?
Zeige MMA aktuell
Zeige MMA Monat
Zeige MMA alles
Zeige --A aktuell
Zeige --A Monat
Zeige --A alles
Keine MMA-Anzeige
MMA:
Average (ber die Originaldaten)
MMA-Basis: 02.02.2010 - 01.03.2010
Quicknavigation für Darstellung... ?
Tage:      1T, 2T, 3T, 5T -1T -2T -3T -5T +1T +2T +3T +5T
Wochen: 1W, 2W, 3W -1W -2W -3W +1W +2W +3W
Monate: 1M, 3M, 6M -1M -3M -6M +1M +3M +6M
Jahre:    1J, 3J, 5J, 10J -1J -3J -5J -10J +1J +3J +5J +10J
Nutze für die Darstellung ... ?
Originaldaten oder Mittelwerte auf ...
Stundenbasis Tagesbasis Wochenbasis
Monatsbasis Jahresbasis      Datenbasis: Original-Daten
Darstellen als:
Statistik (Auto) Statistik J:M      Darstellung:
Zur Graphik,    zurück zur Übersicht aller Sensoren.
 
Tabellarische Datenbersicht: ?
 
Sensor: Nr:Datum:Temp:Abs-Feuchte:Windchill:Wind:
Aussen-T/F 1 02-02-2010 00:11:03 0.3 C 4.11 g/m*3 0.3 C 0 km/h
2 02-02-2010 00:23:03 0.4 C 3.84 g/m*3 0.4 C 0 km/h
3 02-02-2010 00:35:03 0.2 C 3.68 g/m*3 0.2 C 0 km/h
4 02-02-2010 00:47:03 0.1 C 3.66 g/m*3 0.1 C 0 km/h
5 02-02-2010 00:59:03 -0.1 C 3.56 g/m*3 -0.1 C 0 km/h
6 02-02-2010 01:11:03 -0.3 C 3.51 g/m*3 -0.3 C 0 km/h
7 02-02-2010 01:23:03 -0.5 C 3.51 g/m*3 -0.5 C 0 km/h
8 02-02-2010 01:35:03 -0.8 C 3.48 g/m*3 -0.8 C 0 km/h
9 02-02-2010 01:47:03 -0.7 C 3.6 g/m*3 -0.7 C 0 km/h
10 02-02-2010 01:59:03 -0.6 C 3.63 g/m*3 -0.6 C 0 km/h
11 02-02-2010 02:11:03 -0.6 C 3.53 g/m*3 -0.6 C 0 km/h
12 02-02-2010 02:23:03 -0.7 C 3.46 g/m*3 -0.7 C 0 km/h
13 02-02-2010 02:35:03 -1 C 3.3 g/m*3 -1 C 0 km/h
14 02-02-2010 02:47:03 -1.6 C 3.25 g/m*3 -1.6 C 0 km/h
15 02-02-2010 02:59:03 -2.1 C 3.22 g/m*3 -2.1 C 0 km/h
16 02-02-2010 03:11:03 -2.5 C 3.17 g/m*3 -2.5 C 0 km/h
17 02-02-2010 03:23:03 -2.8 C 3.15 g/m*3 -2.8 C 0 km/h
18 02-02-2010 03:35:03 -3 C 3.14 g/m*3 -3 C 0 km/h
19 02-02-2010 03:47:04 -3 C 3.18 g/m*3 -3 C 0 km/h
20 02-02-2010 03:59:04 -3 C 3.22 g/m*3 -3 C 0 km/h
21 02-02-2010 04:11:04 -3.1 C 3.24 g/m*3 -3.1 C 0 km/h
22 02-02-2010 04:23:04 -3 C 3.3 g/m*3 -3 C 0 km/h
23 02-02-2010 04:35:04 -2.9 C 3.36 g/m*3 -2.9 C 0 km/h
24 02-02-2010 04:47:04 -2.7 C 3.45 g/m*3 -2.7 C 0 km/h
25 02-02-2010 04:59:04 -2.6 C 3.48 g/m*3 -2.6 C 0 km/h
Sensor: Nr:Datum:Temp:Abs-Feuchte:Windchill:Wind:
Aussen-T/F 26 02-02-2010 05:11:04 -2.4 C 3.57 g/m*3 -2.4 C 0 km/h
27 02-02-2010 05:23:04 -2.2 C 3.62 g/m*3 -2.2 C 0 km/h
28 02-02-2010 05:35:04 -2.3 C 3.59 g/m*3 -2.3 C 0 km/h
29 02-02-2010 05:47:04 -2.4 C 3.52 g/m*3 -2.4 C 0 km/h
30 02-02-2010 05:59:04 -2.4 C 3.52 g/m*3 -2.4 C 0 km/h
31 02-02-2010 06:11:04 -2.3 C 3.55 g/m*3 -2.3 C 0 km/h
32 02-02-2010 06:23:04 -1.7 C 3.75 g/m*3 -1.7 C 0 km/h
33 02-02-2010 06:35:04 -1.2 C 3.74 g/m*3 -1.2 C 0 km/h
34 02-02-2010 06:47:04 -1.2 C 3.66 g/m*3 -1.2 C 0 km/h
35 02-02-2010 06:59:04 -1.3 C 3.59 g/m*3 -1.3 C 0 km/h
36 02-02-2010 07:11:02 -1.3 C 3.59 g/m*3 -1.3 C 0 km/h
37 02-02-2010 07:23:02 -1.6 C 3.47 g/m*3 -1.6 C 0 km/h
38 02-02-2010 07:35:02 -1.8 C 3.46 g/m*3 -1.8 C 0 km/h
39 02-02-2010 07:47:02 -1.7 C 3.49 g/m*3 -1.7 C 0 km/h
40 02-02-2010 07:59:02 -1.5 C 3.49 g/m*3 -1.5 C 0 km/h
41 02-02-2010 08:11:03 -1.4 C 3.52 g/m*3 -1.4 C 0 km/h
42 02-02-2010 08:23:02 -1.3 C 3.5 g/m*3 -1.3 C 0 km/h
43 02-02-2010 08:35:02 -1.2 C 3.48 g/m*3 -1.2 C 0 km/h
44 02-02-2010 08:47:02 -1.1 C 3.5 g/m*3 -1.1 C 0 km/h
45 02-02-2010 08:59:02 -0.8 C 3.53 g/m*3 -0.8 C 0 km/h
46 02-02-2010 09:11:02 -0.7 C 3.55 g/m*3 -0.7 C 0 km/h
47 02-02-2010 09:23:02 -0.6 C 3.63 g/m*3 -0.6 C 0 km/h
48 02-02-2010 09:35:02 -0.3 C 3.7 g/m*3 -0.3 C 0 km/h
49 02-02-2010 09:47:02 -0.1 C 3.75 g/m*3 -0.1 C 0 km/h
50 02-02-2010 09:59:02 0.1 C 3.81 g/m*3 0.1 C 0 km/h
Sensor: Nr:Datum:Temp:Abs-Feuchte:Windchill:Wind:
Aussen-T/F 51 02-02-2010 10:11:02 0.4 C 3.88 g/m*3 0.4 C 0 km/h
52 02-02-2010 10:23:02 0.6 C 3.89 g/m*3 0.6 C 0 km/h
53 02-02-2010 10:35:01 0.8 C 3.89 g/m*3 0.8 C 0 km/h
54 02-02-2010 10:47:02 1 C 3.89 g/m*3 1 C 0 km/h
55 02-02-2010 10:59:02 1.1 C 3.92 g/m*3 1.1 C 0 km/h
56 02-02-2010 11:11:01 1.3 C 3.92 g/m*3 1.3 C 0 km/h
57 02-02-2010 11:23:02 1.5 C 3.97 g/m*3 1.5 C 0 km/h
58 02-02-2010 11:35:01 1.5 C 3.97 g/m*3 1.5 C 0 km/h
59 02-02-2010 11:47:03 1.5 C 3.97 g/m*3 1.5 C 0 km/h
60 02-02-2010 11:59:03 1.6 C 4.06 g/m*3 1.6 C 0 km/h
61 02-02-2010 12:11:02 1.8 C 4.11 g/m*3 1.8 C 0 km/h
62 02-02-2010 12:23:03 1.9 C 4.14 g/m*3 1.9 C 0 km/h
63 02-02-2010 12:35:02 2 C 4.11 g/m*3 2 C 0 km/h
64 02-02-2010 12:47:02 2.1 C 4.14 g/m*3 2.1 C 0 km/h
65 02-02-2010 12:59:02 2.2 C 4.22 g/m*3 2.2 C 0 km/h
66 02-02-2010 13:11:02 2.2 C 4.22 g/m*3 2.2 C 0 km/h
67 02-02-2010 13:23:02 2.4 C 4.23 g/m*3 2.4 C 0 km/h
68 02-02-2010 13:35:02 2.6 C 4.22 g/m*3 2.6 C 0 km/h
69 02-02-2010 13:47:02 2.6 C 4.17 g/m*3 2.6 C 0 km/h
70 02-02-2010 13:59:02 2.8 C 4.22 g/m*3 2.8 C 0 km/h
71 02-02-2010 14:11:02 2.8 C 4.22 g/m*3 2.8 C 0 km/h
72 02-02-2010 14:23:02 2.9 C 4.25 g/m*3 2.9 C 0 km/h
73 02-02-2010 14:35:01 2.9 C 4.25 g/m*3 2.9 C 0 km/h
74 02-02-2010 14:47:02 2.9 C 4.19 g/m*3 2.9 C 0 km/h
75 02-02-2010 14:59:02 2.7 C 4.2 g/m*3 2.7 C 0 km/h
Sensor: Nr:Datum:Temp:Abs-Feuchte:Windchill:Wind:
Aussen-T/F 76 02-02-2010 15:11:01 2.7 C 4.31 g/m*3 2.7 C 0 km/h
77 02-02-2010 15:23:02 2.7 C 4.37 g/m*3 2.7 C 0 km/h
78 02-02-2010 15:35:01 2.7 C 4.37 g/m*3 2.7 C 0 km/h
79 02-02-2010 15:47:03 2.6 C 4.4 g/m*3 2.6 C 0 km/h
80 02-02-2010 15:59:03 2.6 C 4.4 g/m*3 2.6 C 0 km/h
81 02-02-2010 16:11:02 2.5 C 4.37 g/m*3 2.5 C 0 km/h
82 02-02-2010 16:23:03 2.4 C 4.4 g/m*3 2.4 C 0 km/h
83 02-02-2010 16:35:02 2.4 C 4.45 g/m*3 2.4 C 0 km/h
84 02-02-2010 16:47:03 2.3 C 4.48 g/m*3 2.3 C 0 km/h
85 02-02-2010 16:59:03 2.2 C 4.45 g/m*3 2.2 C 0 km/h
86 02-02-2010 17:11:02 2.1 C 4.48 g/m*3 2.1 C 0 km/h
87 02-02-2010 17:23:02 2.1 C 4.48 g/m*3 2.1 C 0 km/h
88 02-02-2010 17:35:02 2.1 C 4.48 g/m*3 2.1 C 0 km/h
89 02-02-2010 17:47:02 2.2 C 4.45 g/m*3 2.2 C 0 km/h
90 02-02-2010 17:59:02 2.2 C 4.45 g/m*3 2.2 C 0 km/h
91 02-02-2010 18:11:02 2.3 C 4.48 g/m*3 2.3 C 0 km/h
92 02-02-2010 18:23:02 2.2 C 4.45 g/m*3 2.2 C 0 km/h
93 02-02-2010 18:35:01 2.2 C 4.45 g/m*3 2.2 C 0 km/h
94 02-02-2010 18:47:02 2.2 C 4.39 g/m*3 2.2 C 0 km/h
95 02-02-2010 18:59:02 2.2 C 4.39 g/m*3 2.2 C 0 km/h
96 02-02-2010 19:11:01 2.3 C 4.42 g/m*3 2.3 C 0 km/h
97 02-02-2010 19:23:02 2.2 C 4.45 g/m*3 2.2 C 0 km/h
98 02-02-2010 19:35:01 2.1 C 4.48 g/m*3 2.1 C 0 km/h
99 02-02-2010 19:47:02 2.1 C 4.53 g/m*3 2.1 C 0 km/h
100 02-02-2010 19:59:02 2.2 C 4.56 g/m*3 2.2 C 0 km/h
Sensor: Nr:Datum:Temp:Abs-Feuchte:Windchill:Wind:
Aussen-T/F 101 02-02-2010 20:11:01 2.2 C 4.56 g/m*3 2.2 C 0 km/h
102 02-02-2010 20:23:02 2.4 C 4.62 g/m*3 2.4 C 0 km/h
103 02-02-2010 20:35:01 2.5 C 4.6 g/m*3 2.5 C 0 km/h
104 02-02-2010 20:47:02 2.4 C 4.57 g/m*3 2.4 C 0 km/h
105 02-02-2010 20:59:02 2.5 C 4.6 g/m*3 2.5 C 0 km/h
106 02-02-2010 21:11:02 2.6 C 4.57 g/m*3 2.6 C 0 km/h
107 02-02-2010 21:23:02 2.6 C 4.57 g/m*3 2.6 C 0 km/h
108 02-02-2010 21:35:02 2.6 C 4.57 g/m*3 2.6 C 0 km/h
109 02-02-2010 21:48:03 2.6 C 4.63 g/m*3 2.6 C 0 km/h
110 02-02-2010 22:00:03 2.7 C 4.66 g/m*3 2.7 C 0 km/h
111 02-02-2010 22:12:03 2.6 C 4.69 g/m*3 2.6 C 0 km/h
112 02-02-2010 22:24:03 2.5 C 4.77 g/m*3 2.5 C 0 km/h
113 02-02-2010 22:36:03 2.4 C 4.8 g/m*3 2.4 C 0 km/h
114 02-02-2010 22:48:03 2.4 C 4.8 g/m*3 2.4 C 0 km/h
115 02-02-2010 23:00:03 2.5 C 4.83 g/m*3 2.5 C 0 km/h
116 02-02-2010 23:12:03 2.7 C 4.84 g/m*3 2.7 C 0 km/h
117 02-02-2010 23:24:03 2.7 C 4.78 g/m*3 2.7 C 0 km/h
118 02-02-2010 23:36:03 2.8 C 4.81 g/m*3 2.8 C 0 km/h
119 02-02-2010 23:48:04 2.9 C 4.84 g/m*3 2.9 C 0 km/h
120 03-02-2010 00:00:04 2.8 C 4.81 g/m*3 2.8 C 0 km/h
121 03-02-2010 00:12:04 3.3 C 4.91 g/m*3 3.3 C 0 km/h
122 03-02-2010 00:24:04 3.6 C 4.89 g/m*3 3.6 C 0 km/h
123 03-02-2010 00:36:04 3.7 C 4.92 g/m*3 3.7 C 0 km/h
124 03-02-2010 00:48:04 4 C 4.96 g/m*3 4 C 0 km/h
125 03-02-2010 01:00:04 4 C 4.9 g/m*3 4 C 0 km/h
Sensor: Nr:Datum:Temp:Abs-Feuchte:Windchill:Wind:
Aussen-T/F 126 03-02-2010 01:12:04 4 C 4.9 g/m*3 4 C 0 km/h
127 03-02-2010 01:24:04 4 C 4.96 g/m*3 4 C 0 km/h
128 03-02-2010 01:36:04 4.3 C 5.06 g/m*3 4.3 C 0 km/h
129 03-02-2010 01:48:04 4.4 C 5.09 g/m*3 4.4 C 0 km/h
130 03-02-2010 02:00:04 4.6 C 5.16 g/m*3 4.6 C 0 km/h
131 03-02-2010 02:12:04 4.8 C 5.16 g/m*3 4.8 C 0 km/h
132 03-02-2010 02:24:04 4.7 C 5.13 g/m*3 4.7 C 0 km/h
133 03-02-2010 02:36:04 2.9 C 4.78 g/m*3 2.9 C 0 km/h
134 03-02-2010 02:48:04 2.4 C 4.8 g/m*3 2.4 C 0 km/h
135 03-02-2010 03:00:04 2.1 C 4.81 g/m*3 2.1 C 0 km/h
136 03-02-2010 03:12:04 1.9 C 4.86 g/m*3 1.9 C 0 km/h
137 03-02-2010 03:24:04 1.7 C 4.85 g/m*3 1.7 C 0 km/h
138 03-02-2010 03:36:04 1.6 C 4.87 g/m*3 1.6 C 0 km/h
139 03-02-2010 03:48:04 1.6 C 4.87 g/m*3 1.6 C 0 km/h
140 03-02-2010 04:00:05 1.5 C 4.89 g/m*3 1.5 C 0 km/h
141 03-02-2010 04:12:05 1.2 C 4.79 g/m*3 1.2 C 0 km/h
142 03-02-2010 04:24:05 0.9 C 4.69 g/m*3 0.9 C 0 km/h
143 03-02-2010 04:36:05 0.8 C 4.66 g/m*3 0.8 C 0 km/h
144 03-02-2010 04:48:05 1 C 4.72 g/m*3 1 C 0 km/h
145 03-02-2010 05:00:05 1.1 C 4.81 g/m*3 1.1 C 0 km/h
146 03-02-2010 05:12:05 1.1 C 4.81 g/m*3 1.1 C 0 km/h
147 03-02-2010 05:24:05 1.1 C 4.86 g/m*3 1.1 C 0 km/h
148 03-02-2010 05:36:05 1.1 C 4.86 g/m*3 1.1 C 0 km/h
149 03-02-2010 05:48:05 1.2 C 4.89 g/m*3 1.2 C 0 km/h
150 03-02-2010 06:00:05 1.1 C 4.91 g/m*3 1.1 C 0 km/h
Sensor: Nr:Datum:Temp:Abs-Feuchte:Windchill:Wind:
Aussen-T/F 151 03-02-2010 06:12:05 1.1 C 4.91 g/m*3 1.1 C 0 km/h
152 03-02-2010 06:24:05 1.1 C 4.91 g/m*3 1.1 C 0 km/h
153 03-02-2010 06:36:05 1 C 4.88 g/m*3 1 C 0 km/h
154 03-02-2010 06:48:05 1.1 C 4.91 g/m*3 1.1 C 0 km/h
155 03-02-2010 07:00:05 1 C 4.88 g/m*3 1 C 0 km/h
156 03-02-2010 07:12:03 0.9 C 4.9 g/m*3 0.9 C 0 km/h
157 03-02-2010 07:24:02 1 C 4.88 g/m*3 1 C 0 km/h
158 03-02-2010 07:36:03 1 C 4.93 g/m*3 1 C 0 km/h
159 03-02-2010 07:48:02 1 C 4.93 g/m*3 1 C 0 km/h
160 03-02-2010 08:00:02 1 C 4.93 g/m*3 1 C 0 km/h
161 03-02-2010 08:12:01 1 C 4.93 g/m*3 1 C 0 km/h
162 03-02-2010 08:24:02 1 C 4.93 g/m*3 1 C 0 km/h
163 03-02-2010 08:36:02 1.1 C 4.96 g/m*3 1.1 C 0 km/h
164 03-02-2010 08:48:02 1.2 C 5 g/m*3 1.2 C 0 km/h
165 03-02-2010 09:00:02 1.2 C 5 g/m*3 1.2 C 0 km/h
166 03-02-2010 09:12:03 1.3 C 5.03 g/m*3 1.3 C 0 km/h
167 03-02-2010 09:24:02 1.5 C 5.1 g/m*3 1.5 C 0 km/h
168 03-02-2010 09:36:02 1.5 C 5.1 g/m*3 1.5 C 0 km/h
169 03-02-2010 09:48:02 1.7 C 5.17 g/m*3 1.7 C 0 km/h
170 03-02-2010 10:00:02 2 C 5.22 g/m*3 2 C 0 km/h
171 03-02-2010 10:12:01 2.2 C 5.29 g/m*3 2.2 C 0 km/h
172 03-02-2010 10:24:02 2.3 C 5.27 g/m*3 2.3 C 0 km/h
173 03-02-2010 10:36:02 2.7 C 5.36 g/m*3 2.7 C 0 km/h
174 03-02-2010 10:48:02 3.1 C 5.45 g/m*3 3.1 C 0 km/h
175 03-02-2010 11:00:02 3.1 C 5.33 g/m*3 3.1 C 0 km/h
Sensor: Nr:Datum:Temp:Abs-Feuchte:Windchill:Wind:
Aussen-T/F 176 03-02-2010 11:12:02 3 C 5.11 g/m*3 3 C 0 km/h
177 03-02-2010 11:24:02 3.3 C 5.22 g/m*3 3.3 C 0 km/h
178 03-02-2010 11:36:02 3.3 C 5.1 g/m*3 3.3 C 0 km/h
179 03-02-2010 11:48:02 3.1 C 4.97 g/m*3 3.1 C 0 km/h
180 03-02-2010 12:00:02 3.2 C 5.06 g/m*3 3.2 C 0 km/h
181 03-02-2010 12:12:01 3.1 C 5.03 g/m*3 3.1 C 0 km/h
182 03-02-2010 12:24:02 3 C 5.05 g/m*3 3 C 0 km/h
183 03-02-2010 12:36:02 3 C 5.11 g/m*3 3 C 0 km/h
184 03-02-2010 12:48:02 3.1 C 5.15 g/m*3 3.1 C 0 km/h
185 03-02-2010 13:00:02 3.1 C 5.21 g/m*3 3.1 C 0 km/h
186 03-02-2010 13:12:02 3.1 C 5.21 g/m*3 3.1 C 0 km/h
187 03-02-2010 13:24:02 3.3 C 5.28 g/m*3 3.3 C 0 km/h
188 03-02-2010 13:36:02 3.2 C 5.24 g/m*3 3.2 C 0 km/h
189 03-02-2010 13:48:02 3.3 C 5.28 g/m*3 3.3 C 0 km/h
190 03-02-2010 14:00:02 3.3 C 5.28 g/m*3 3.3 C 0 km/h
191 03-02-2010 14:12:02 3.3 C 5.28 g/m*3 3.3 C 0 km/h
192 03-02-2010 14:24:02 3.3 C 5.28 g/m*3 3.3 C 0 km/h
193 03-02-2010 14:36:02 3.3 C 5.28 g/m*3 3.3 C 0 km/h
194 03-02-2010 14:48:02 3.2 C 5.24 g/m*3 3.2 C 0 km/h
195 03-02-2010 15:00:02 3.2 C 5.24 g/m*3 3.2 C 0 km/h
196 03-02-2010 15:12:02 3.1 C 5.27 g/m*3 3.1 C 0 km/h
197 03-02-2010 15:24:02 2.9 C 5.2 g/m*3 2.9 C 0 km/h
198 03-02-2010 15:36:02 3 C 5.23 g/m*3 3 C 0 km/h
199 03-02-2010 15:48:02 2.9 C 5.26 g/m*3 2.9 C 0 km/h
200 03-02-2010 16:00:02 2.8 C 5.22 g/m*3 2.8 C 0 km/h
Sensor: Nr:Datum:Temp:Abs-Feuchte:Windchill:Wind:
Aussen-T/F 201 03-02-2010 16:12:02 2.6 C 5.15 g/m*3 2.6 C 0 km/h
202 03-02-2010 16:24:02 2.6 C 5.15 g/m*3 2.6 C 0 km/h
203 03-02-2010 16:36:02 2.5 C 5.12 g/m*3 2.5 C 0 km/h
204 03-02-2010 16:48:02 2.4 C 5.08 g/m*3 2.4 C 0 km/h
205 03-02-2010 17:00:02 2.4 C 5.14 g/m*3 2.4 C 0 km/h
206 03-02-2010 17:12:02 2.3 C 5.1 g/m*3 2.3 C 0 km/h
207 03-02-2010 17:24:02 2.2 C 5.07 g/m*3 2.2 C 0 km/h
208 03-02-2010 17:36:02 2.1 C 5.04 g/m*3 2.1 C 0 km/h
209 03-02-2010 17:48:01 1.9 C 5.02 g/m*3 1.9 C 0 km/h
210 03-02-2010 18:00:01 1.9 C 5.02 g/m*3 1.9 C 0 km/h
211 03-02-2010 18:12:02 1.9 C 5.02 g/m*3 1.9 C 0 km/h
212 03-02-2010 18:24:01 1.9 C 5.08 g/m*3 1.9 C 0 km/h
213 03-02-2010 18:36:01 1.9 C 5.08 g/m*3 1.9 C 0 km/h
214 03-02-2010 18:48:01 1.8 C 5.04 g/m*3 1.8 C 0 km/h
215 03-02-2010 19:00:01 1.8 C 5.04 g/m*3 1.8 C 0 km/h
216 03-02-2010 19:12:02 1.7 C 5.01 g/m*3 1.7 C 0 km/h
217 03-02-2010 19:20:01 1.7 C 5.01 g/m*3 1.7 C 0 km/h
218 03-02-2010 19:45:01 1.8 C 5.04 g/m*3 1.8 C 0 km/h
219 03-02-2010 20:10:02 1.9 C 5.13 g/m*3 1.9 C 0 km/h
220 03-02-2010 20:35:01 1.8 C 5.1 g/m*3 1.8 C 0 km/h
221 03-02-2010 21:00:01 1.7 C 5.06 g/m*3 1.7 C 0 km/h
222 03-02-2010 21:25:01 1.7 C 5.06 g/m*3 1.7 C 0 km/h
223 03-02-2010 21:50:02 1.8 C 5.1 g/m*3 1.8 C 0 km/h
224 03-02-2010 22:15:03 1.8 C 5.1 g/m*3 1.8 C 0 km/h
225 03-02-2010 22:40:02 1.8 C 5.1 g/m*3 1.8 C 0 km/h
Sensor: Nr:Datum:Temp:Abs-Feuchte:Windchill:Wind:
Aussen-T/F 226 03-02-2010 23:05:02 1.8 C 5.1 g/m*3 1.8 C 0 km/h
227 03-02-2010 23:30:02 1.8 C 5.1 g/m*3 1.8 C 0 km/h
228 03-02-2010 23:55:02 2 C 5.17 g/m*3 2 C 0 km/h
229 04-02-2010 00:20:02 2 C 5.17 g/m*3 2 C 0 km/h
230 04-02-2010 00:45:02 2 C 5.17 g/m*3 2 C 0 km/h
231 04-02-2010 01:10:02 2 C 5.17 g/m*3 2 C 0 km/h
232 04-02-2010 01:35:02 2 C 5.22 g/m*3 2 C 0 km/h
233 04-02-2010 02:00:02 2.1 C 5.26 g/m*3 2.1 C 0 km/h
234 04-02-2010 02:25:03 2.2 C 5.29 g/m*3 2.2 C 0 km/h
235 04-02-2010 02:51:03 2.1 C 5.26 g/m*3 2.1 C 0 km/h
236 04-02-2010 03:16:04 2.2 C 5.29 g/m*3 2.2 C 0 km/h
237 04-02-2010 03:41:01 2.3 C 5.33 g/m*3 2.3 C 0 km/h
238 04-02-2010 04:06:02 2.3 C 5.33 g/m*3 2.3 C 0 km/h
239 04-02-2010 04:31:02 2.3 C 5.33 g/m*3 2.3 C 0 km/h
240 04-02-2010 04:56:01 2.4 C 5.37 g/m*3 2.4 C 0 km/h
241 04-02-2010 05:21:02 2.5 C 5.46 g/m*3 2.5 C 0 km/h
242 04-02-2010 05:46:02 2.7 C 5.54 g/m*3 2.7 C 0 km/h
243 04-02-2010 06:11:01 3 C 5.65 g/m*3 3 C 0 km/h
244 04-02-2010 06:51:02 3.6 C 5.88 g/m*3 3.6 C 0 km/h
245 04-02-2010 07:16:02 3.4 C 5.8 g/m*3 3.4 C 0 km/h
246 04-02-2010 07:41:02 3.2 C 5.72 g/m*3 3.2 C 0 km/h
247 04-02-2010 08:06:02 3.3 C 5.76 g/m*3 3.3 C 0 km/h
248 04-02-2010 08:31:02 3.2 C 5.72 g/m*3 3.2 C 0 km/h
249 04-02-2010 08:56:02 3.3 C 5.76 g/m*3 3.3 C 0 km/h
250 04-02-2010 09:21:02 3.7 C 5.92 g/m*3 3.7 C 0 km/h
Sensor: Nr:Datum:Temp:Abs-Feuchte:Windchill:Wind:
Aussen-T/F 251 04-02-2010 09:46:02 4.5 C 6.24 g/m*3 4.5 C 0 km/h
252 04-02-2010 10:11:02 4.7 C 6.19 g/m*3 4.7 C 0 km/h
253 04-02-2010 10:36:02 5.2 C 6.13 g/m*3 5.2 C 0 km/h
254 04-02-2010 11:01:02 5.7 C 6.19 g/m*3 5.7 C 0 km/h
255 04-02-2010 11:26:02 6.3 C 6.07 g/m*3 6.3 C 0 km/h
256 04-02-2010 11:51:02 6.9 C 6 g/m*3 6.9 C 0 km/h
257 04-02-2010 12:16:02 7.1 C 5.85 g/m*3 7.1 C 0 km/h
258 04-02-2010 12:41:02 7.5 C 5.92 g/m*3 7.5 C 0 km/h
259 04-02-2010 13:06:02 8 C 5.95 g/m*3 8 C 0 km/h
260 04-02-2010 13:31:02 8.5 C 5.98 g/m*3 8.5 C 0 km/h
261 04-02-2010 13:56:02 8.7 C 5.88 g/m*3 8.7 C 0 km/h
262 04-02-2010 14:21:02 8.5 C 5.81 g/m*3 8.5 C 0 km/h
263 04-02-2010 14:46:03 8.2 C 5.61 g/m*3 8.2 C 0 km/h
264 04-02-2010 15:11:03 8.8 C 5.92 g/m*3 8.8 C 0 km/h
265 04-02-2010 15:36:03 8.8 C 5.74 g/m*3 8.8 C 0 km/h
266 04-02-2010 16:01:03 7.8 C 5.55 g/m*3 7.8 C 0 km/h
267 04-02-2010 16:26:03 7.5 C 5.52 g/m*3 7.5 C 0 km/h
268 04-02-2010 16:51:03 6.2 C 5.37 g/m*3 6.2 C 0 km/h
269 04-02-2010 17:16:03 5.7 C 5.48 g/m*3 5.7 C 0 km/h
270 04-02-2010 17:41:03 5 C 5.37 g/m*3 5 C 0 km/h
271 04-02-2010 18:06:03 4.4 C 5.29 g/m*3 4.4 C 0 km/h
272 04-02-2010 18:31:03 4 C 5.28 g/m*3 4 C 0 km/h
273 04-02-2010 18:56:03 3.6 C 5.2 g/m*3 3.6 C 0 km/h
274 04-02-2010 19:21:03 3.3 C 5.16 g/m*3 3.3 C 0 km/h
275 04-02-2010 19:46:03 3 C 5.11 g/m*3 3 C 0 km/h
Sensor: Nr:Datum:Temp:Abs-Feuchte:Windchill:Wind:
Aussen-T/F 276 04-02-2010 20:11:03 2.7 C 5.13 g/m*3 2.7 C 0 km/h
277 04-02-2010 20:36:03 2.5 C 5.12 g/m*3 2.5 C 0 km/h
278 04-02-2010 21:01:03 2.5 C 5.17 g/m*3 2.5 C 0 km/h
279 04-02-2010 21:26:03 2.6 C 5.27 g/m*3 2.6 C 0 km/h
280 04-02-2010 21:51:03 2.1 C 5.04 g/m*3 2.1 C 0 km/h
281 04-02-2010 22:16:03 2.2 C 5.18 g/m*3 2.2 C 0 km/h
282 04-02-2010 22:41:03 1.8 C 5.04 g/m*3 1.8 C 0 km/h
283 04-02-2010 23:06:03 1.8 C 5.1 g/m*3 1.8 C 0 km/h
284 04-02-2010 23:31:03 1.7 C 5.06 g/m*3 1.7 C 0 km/h
285 04-02-2010 23:56:04 2.1 C 5.2 g/m*3 2.1 C 0 km/h
286 05-02-2010 00:21:04 2.6 C 5.44 g/m*3 2.6 C 0 km/h
287 05-02-2010 00:46:04 2.2 C 5.24 g/m*3 2.2 C 0 km/h
288 05-02-2010 01:11:04 2 C 5.17 g/m*3 2 C 0 km/h
289 05-02-2010 01:36:04 1.7 C 5.12 g/m*3 1.7 C 0 km/h
290 05-02-2010 02:01:04 2.2 C 5.24 g/m*3 2.2 C 0 km/h
291 05-02-2010 02:26:04 2.6 C 5.38 g/m*3 2.6 C 0 km/h
292 05-02-2010 02:51:04 2.7 C 5.3 g/m*3 2.7 C 0 km/h
293 05-02-2010 03:16:04 2.7 C 5.19 g/m*3 2.7 C 0 km/h
294 05-02-2010 03:41:04 2.8 C 5.04 g/m*3 2.8 C 0 km/h
295 05-02-2010 04:06:04 2.8 C 5.04 g/m*3 2.8 C 0 km/h
296 05-02-2010 04:31:04 2.8 C 4.93 g/m*3 2.8 C 0 km/h
297 05-02-2010 04:56:04 2.8 C 4.93 g/m*3 2.8 C 0 km/h
298 05-02-2010 05:21:04 2.7 C 4.89 g/m*3 2.7 C 0 km/h
299 05-02-2010 05:46:04 2.7 C 4.84 g/m*3 2.7 C 0 km/h
300 05-02-2010 06:11:04 2.8 C 4.87 g/m*3 2.8 C 0 km/h
Sensor: Nr:Datum:Temp:Abs-Feuchte:Windchill:Wind:
Aussen-T/F 301 05-02-2010 06:36:04 2.7 C 4.84 g/m*3 2.7 C 0 km/h
302 05-02-2010 07:01:04 2.4 C 4.74 g/m*3 2.4 C 0 km/h
303 05-02-2010 07:26:04 2.5 C 4.89 g/m*3 2.5 C 0 km/h
304 05-02-2010 07:51:04 2.8 C 4.99 g/m*3 2.8 C 0 km/h
305 05-02-2010 08:16:04 3.2 C 4.88 g/m*3 3.2 C 0 km/h
306 05-02-2010 08:41:05 3.4 C 4.89 g/m*3 3.4 C 0 km/h
307 05-02-2010 09:06:05 3.6 C 4.89 g/m*3 3.6 C 0 km/h
308 05-02-2010 09:31:05 3.8 C 4.83 g/m*3 3.8 C 0 km/h
309 05-02-2010 09:56:05 4.1 C 4.67 g/m*3 4.1 C 0 km/h
310 05-02-2010 10:21:05 4.1 C 4.54 g/m*3 4.1 C 0 km/h
311 05-02-2010 10:46:05 4 C 4.51 g/m*3 4 C 0 km/h
312 05-02-2010 11:11:05 4.3 C 4.54 g/m*3 4.3 C 0 km/h
313 05-02-2010 11:36:05 4.3 C 4.41 g/m*3 4.3 C 0 km/h
314 05-02-2010 12:01:05 4.4 C 4.37 g/m*3 4.4 C 0 km/h
315 05-02-2010 12:26:05 4.4 C 4.31 g/m*3 4.4 C 0 km/h
316 05-02-2010 12:51:05 4.3 C 4.28 g/m*3 4.3 C 0 km/h
317 05-02-2010 13:16:05 4.5 C 4.4 g/m*3 4.5 C 0 km/h
318 05-02-2010 13:41:05 4.9 C 4.52 g/m*3 4.9 C 0 km/h
319 05-02-2010 14:06:05 5.1 C 4.38 g/m*3 5.1 C 0 km/h
320 05-02-2010 14:31:05 4.8 C 4.36 g/m*3 4.8 C 0 km/h
321 05-02-2010 14:56:05 4.6 C 4.37 g/m*3 4.6 C 0 km/h
322 05-02-2010 15:21:05 4.5 C 4.4 g/m*3 4.5 C 0 km/h
323 05-02-2010 15:46:05 4.2 C 4.38 g/m*3 4.2 C 0 km/h
324 05-02-2010 16:11:05 3.8 C 4.64 g/m*3 3.8 C 0 km/h
325 05-02-2010 16:36:05 3.6 C 4.7 g/m*3 3.6 C 0 km/h
Sensor: Nr:Datum:Temp:Abs-Feuchte:Windchill:Wind:
Aussen-T/F 326 05-02-2010 17:01:05 3.4 C 4.83 g/m*3 3.4 C 0 km/h
327 05-02-2010 17:26:05 3.4 C 4.95 g/m*3 3.4 C 0 km/h
328 05-02-2010 17:51:06 3.2 C 4.94 g/m*3 3.2 C 0 km/h
329 05-02-2010 18:16:06 3.3 C 5.04 g/m*3 3.3 C 0 km/h
330 05-02-2010 18:41:06 3.1 C 5.03 g/m*3 3.1 C 0 km/h
331 05-02-2010 19:06:06 3.2 C 5.12 g/m*3 3.2 C 0 km/h
332 05-02-2010 19:31:06 3 C 5.05 g/m*3 3 C 0 km/h
333 05-02-2010 19:56:06 3.1 C 5.09 g/m*3 3.1 C 0 km/h
334 05-02-2010 20:21:06 3 C 5.11 g/m*3 3 C 0 km/h
335 05-02-2010 20:46:06 2.8 C 5.1 g/m*3 2.8 C 0 km/h
336 05-02-2010 21:11:06 2.8 C 5.16 g/m*3 2.8 C 0 km/h
337 05-02-2010 21:36:06 2.6 C 5.09 g/m*3 2.6 C 0 km/h
338 05-02-2010 22:01:06 2.7 C 5.19 g/m*3 2.7 C 0 km/h
339 05-02-2010 22:26:06 2.9 C 5.26 g/m*3 2.9 C 0 km/h
340 05-02-2010 22:51:06 3 C 5.23 g/m*3 3 C 0 km/h
341 05-02-2010 23:16:06 3 C 5.23 g/m*3 3 C 0 km/h
342 05-02-2010 23:41:06 3 C 5.23 g/m*3 3 C 0 km/h
343 06-02-2010 00:06:06 2.8 C 5.22 g/m*3 2.8 C 0 km/h
344 06-02-2010 00:31:06 2.8 C 5.22 g/m*3 2.8 C 0 km/h
345 06-02-2010 00:56:06 2.7 C 5.19 g/m*3 2.7 C 0 km/h
346 06-02-2010 01:21:06 2.4 C 5.08 g/m*3 2.4 C 0 km/h
347 06-02-2010 01:46:06 2.1 C 4.98 g/m*3 2.1 C 0 km/h
348 06-02-2010 02:11:06 2.4 C 5.14 g/m*3 2.4 C 0 km/h
349 06-02-2010 02:36:06 2.7 C 5.24 g/m*3 2.7 C 0 km/h
350 06-02-2010 03:01:07 2.8 C 5.28 g/m*3 2.8 C 0 km/h
Sensor: Nr:Datum:Temp:Abs-Feuchte:Windchill:Wind:
Aussen-T/F 351 06-02-2010 03:26:07 2.5 C 5.17 g/m*3 2.5 C 0 km/h
352 06-02-2010 03:51:07 2.4 C 5.14 g/m*3 2.4 C 0 km/h
353 06-02-2010 04:16:07 2.6 C 5.27 g/m*3 2.6 C 0 km/h
354 06-02-2010 04:41:07 2.8 C 5.34 g/m*3 2.8 C 0 km/h
355 06-02-2010 05:06:07 3 C 5.41 g/m*3 3 C 0 km/h
356 06-02-2010 05:31:07 3 C 5.41 g/m*3 3 C 0 km/h
357 06-02-2010 05:56:07 3 C 5.41 g/m*3 3 C 0 km/h
358 06-02-2010 06:21:07 3.2 C 5.48 g/m*3 3.2 C 0 km/h
359 06-02-2010 06:46:07 3 C 5.41 g/m*3 3 C 0 km/h
360 06-02-2010 07:11:07 3 C 5.41 g/m*3 3 C 0 km/h
361 06-02-2010 07:36:07 3.1 C 5.45 g/m*3 3.1 C 0 km/h
362 06-02-2010 08:01:07 3.1 C 5.45 g/m*3 3.1 C 0 km/h
363 06-02-2010 08:26:07 3.2 C 5.48 g/m*3 3.2 C 0 km/h
364 06-02-2010 08:51:07 3.4 C 5.56 g/m*3 3.4 C 0 km/h
365 06-02-2010 09:16:07 3.7 C 5.67 g/m*3 3.7 C 0 km/h
366 06-02-2010 09:41:07 4 C 5.72 g/m*3 4 C 0 km/h
367 06-02-2010 10:06:07 4.6 C 5.89 g/m*3 4.6 C 0 km/h
368 06-02-2010 10:31:07 5.1 C 5.95 g/m*3 5.1 C 0 km/h
369 06-02-2010 10:56:07 5.6 C 6.01 g/m*3 5.6 C 0 km/h
370 06-02-2010 11:21:07 5.7 C 5.84 g/m*3 5.7 C 0 km/h
371 06-02-2010 11:46:07 6.3 C 5.85 g/m*3 6.3 C 0 km/h
372 06-02-2010 12:11:07 6.7 C 5.93 g/m*3 6.7 C 0 km/h
373 06-02-2010 12:36:08 6.9 C 6 g/m*3 6.9 C 0 km/h
374 06-02-2010 13:01:08 7.3 C 5.69 g/m*3 7.3 C 0 km/h
375 06-02-2010 13:26:08 7.4 C 5.65 g/m*3 7.4 C 0 km/h
Sensor: Nr:Datum:Temp:Abs-Feuchte:Windchill:Wind:
Aussen-T/F 376 06-02-2010 13:51:08 7.3 C 5.29 g/m*3 7.3 C 0 km/h
377 06-02-2010 14:16:08 7.1 C 5.23 g/m*3 7.1 C 0 km/h
378 06-02-2010 14:41:08 7 C 5.27 g/m*3 7 C 0 km/h
379 06-02-2010 15:06:08 6.7 C 5.39 g/m*3 6.7 C 0 km/h
380 06-02-2010 15:31:08 6.5 C 5.47 g/m*3 6.5 C 0 km/h
381 06-02-2010 15:56:08 6.4 C 5.36 g/m*3 6.4 C 0 km/h
382 06-02-2010 16:21:08 6.2 C 5.44 g/m*3 6.2 C 0 km/h
383 06-02-2010 16:46:08 6 C 5.37 g/m*3 6 C 0 km/h
384 06-02-2010 17:11:08 5.8 C 5.44 g/m*3 5.8 C 0 km/h
385 06-02-2010 17:36:08 5.7 C 5.48 g/m*3 5.7 C 0 km/h
386 06-02-2010 18:01:08 5.5 C 5.41 g/m*3 5.5 C 0 km/h
387 06-02-2010 18:26:08 5.3 C 5.41 g/m*3 5.3 C 0 km/h
388 06-02-2010 18:51:08 5.2 C 5.37 g/m*3 5.2 C 0 km/h
389 06-02-2010 19:16:08 5.1 C 5.4 g/m*3 5.1 C 0 km/h
390 06-02-2010 19:41:08 5.1 C 5.4 g/m*3 5.1 C 0 km/h
391 06-02-2010 20:06:08 5 C 5.37 g/m*3 5 C 0 km/h
392 06-02-2010 20:31:08 4.9 C 5.4 g/m*3 4.9 C 0 km/h
393 06-02-2010 20:56:08 4.9 C 5.47 g/m*3 4.9 C 0 km/h
394 06-02-2010 21:21:09 4.8 C 5.43 g/m*3 4.8 C 0 km/h
395 06-02-2010 21:46:09 4.8 C 5.43 g/m*3 4.8 C 0 km/h
396 06-02-2010 22:11:09 4.8 C 5.5 g/m*3 4.8 C 0 km/h
397 06-02-2010 22:36:09 4.7 C 5.46 g/m*3 4.7 C 0 km/h
398 06-02-2010 23:01:09 4.7 C 5.46 g/m*3 4.7 C 0 km/h
399 06-02-2010 23:26:09 4.6 C 5.43 g/m*3 4.6 C 0 km/h
400 06-02-2010 23:51:09 4.6 C 5.43 g/m*3 4.6 C 0 km/h
Sensor: Nr:Datum:Temp:Abs-Feuchte:Windchill:Wind:
Aussen-T/F 401 07-02-2010 00:16:09 4.5 C 5.46 g/m*3 4.5 C 0 km/h
402 07-02-2010 00:41:09 4.5 C 5.46 g/m*3 4.5 C 0 km/h
403 07-02-2010 01:06:09 4.5 C 5.46 g/m*3 4.5 C 0 km/h
404 07-02-2010 01:31:09 4.6 C 5.49 g/m*3 4.6 C 0 km/h
405 07-02-2010 01:56:09 4.4 C 5.42 g/m*3 4.4 C 0 km/h
406 07-02-2010 02:21:09 4.2 C 5.41 g/m*3 4.2 C 0 km/h
407 07-02-2010 02:46:09 4.1 C 5.38 g/m*3 4.1 C 0 km/h
408 07-02-2010 03:11:09 4.1 C 5.5 g/m*3 4.1 C 0 km/h
409 07-02-2010 03:36:09 4.1 C 5.5 g/m*3 4.1 C 0 km/h
410 07-02-2010 04:01:09 4.1 C 5.57 g/m*3 4.1 C 0 km/h
411 07-02-2010 04:26:09 4 C 5.59 g/m*3 4 C 0 km/h
412 07-02-2010 04:51:09 4 C 5.59 g/m*3 4 C 0 km/h
413 07-02-2010 05:16:09 4.1 C 5.7 g/m*3 4.1 C 0 km/h
414 07-02-2010 05:41:09 3.8 C 5.58 g/m*3 3.8 C 0 km/h
415 07-02-2010 06:06:10 3.8 C 5.65 g/m*3 3.8 C 0 km/h
416 07-02-2010 06:31:10 3.8 C 5.65 g/m*3 3.8 C 0 km/h
417 07-02-2010 06:56:10 3.8 C 5.65 g/m*3 3.8 C 0 km/h
418 07-02-2010 07:21:10 3.7 C 5.61 g/m*3 3.7 C 0 km/h
419 07-02-2010 07:46:10 3.7 C 5.67 g/m*3 3.7 C 0 km/h
420 07-02-2010 08:11:10 3.8 C 5.71 g/m*3 3.8 C 0 km/h
421 07-02-2010 08:36:10 3.7 C 5.67 g/m*3 3.7 C 0 km/h
422 07-02-2010 09:01:10 3.8 C 5.71 g/m*3 3.8 C 0 km/h
423 07-02-2010 09:26:10 3.9 C 5.75 g/m*3 3.9 C 0 km/h
424 07-02-2010 09:51:10 4.1 C 5.76 g/m*3 4.1 C 0 km/h
425 07-02-2010 10:16:10 4.1 C 5.7 g/m*3 4.1 C 0 km/h
Sensor: Nr:Datum:Temp:Abs-Feuchte:Windchill:Wind:
Aussen-T/F 426 07-02-2010 10:41:10 4.5 C 5.72 g/m*3 4.5 C 0 km/h
427 07-02-2010 11:06:10 4.9 C 5.6 g/m*3 4.9 C 0 km/h
428 07-02-2010 11:31:10 4.7 C 5.13 g/m*3 4.7 C 0 km/h
429 07-02-2010 11:56:10 4.5 C 4.93 g/m*3 4.5 C 0 km/h
430 07-02-2010 12:21:10 5.3 C 5.06 g/m*3 5.3 C 0 km/h
431 07-02-2010 12:46:10 5.7 C 4.84 g/m*3 5.7 C 0 km/h
432 07-02-2010 13:11:10 5.6 C 4.67 g/m*3 5.6 C 0 km/h
433 07-02-2010 13:36:10 5.8 C 4.66 g/m*3 5.8 C 0 km/h
434 07-02-2010 14:01:10 6 C 4.57 g/m*3 6 C 0 km/h
435 07-02-2010 14:26:10 6.1 C 4.53 g/m*3 6.1 C 0 km/h
436 07-02-2010 14:51:10 5.7 C 4.41 g/m*3 5.7 C 0 km/h
437 07-02-2010 15:16:11 5.5 C 4.49 g/m*3 5.5 C 0 km/h
438 07-02-2010 15:41:11 5.4 C 4.47 g/m*3 5.4 C 0 km/h
439 07-02-2010 16:06:11 5 C 4.62 g/m*3 5 C 0 km/h
440 07-02-2010 16:31:11 4.8 C 4.76 g/m*3 4.8 C 0 km/h
441 07-02-2010 16:56:11 4.6 C 4.83 g/m*3 4.6 C 0 km/h
442 07-02-2010 17:21:11 4.7 C 4.93 g/m*3 4.7 C 0 km/h
443 07-02-2010 17:46:11 4.5 C 4.93 g/m*3 4.5 C 0 km/h
444 07-02-2010 18:11:11 4.4 C 4.96 g/m*3 4.4 C 0 km/h
445 07-02-2010 18:36:11 4.2 C 4.96 g/m*3 4.2 C 0 km/h
446 07-02-2010 19:01:11 4.1 C 4.86 g/m*3 4.1 C 0 km/h
447 07-02-2010 19:26:11 3.7 C 4.49 g/m*3 3.7 C 0 km/h
448 07-02-2010 19:51:11 3.7 C 4.42 g/m*3 3.7 C 0 km/h
449 07-02-2010 20:16:11 3.5 C 4.37 g/m*3 3.5 C 0 km/h
450 07-02-2010 20:41:11 3.3 C 4.37 g/m*3 3.3 C 0 km/h
Sensor: Nr:Datum:Temp:Abs-Feuchte:Windchill:Wind:
Aussen-T/F 451 07-02-2010 21:06:11 3 C 4.22 g/m*3 3 C 0 km/h
452 07-02-2010 21:31:11 2.7 C 4.08 g/m*3 2.7 C 0 km/h
453 07-02-2010 21:56:11 2.5 C 3.97 g/m*3 2.5 C 0 km/h
454 07-02-2010 22:21:11 2.4 C 3.83 g/m*3 2.4 C 0 km/h
455 07-02-2010 22:46:11 2 C 3.56 g/m*3 2 C 0 km/h
456 07-02-2010 23:11:11 2 C 3.67 g/m*3 2 C 0 km/h
457 07-02-2010 23:36:12 1.7 C 3.65 g/m*3 1.7 C 0 km/h
458 08-02-2010 00:01:12 1.4 C 3.52 g/m*3 1.4 C 0 km/h
459 08-02-2010 00:26:12 1.6 C 3.68 g/m*3 1.6 C 0 km/h
460 08-02-2010 00:51:12 1.4 C 3.47 g/m*3 1.4 C 0 km/h
461 08-02-2010 01:16:12 1.2 C 3.42 g/m*3 1.2 C 0 km/h
462 08-02-2010 01:41:12 1 C 3.43 g/m*3 1 C 0 km/h
463 08-02-2010 02:06:12 0.8 C 3.48 g/m*3 0.8 C 0 km/h
464 08-02-2010 02:31:12 0.8 C 3.48 g/m*3 0.8 C 0 km/h
465 08-02-2010 02:56:12 0.7 C 3.46 g/m*3 0.7 C 0 km/h
466 08-02-2010 03:21:12 0.5 C 3.41 g/m*3 0.5 C 0 km/h
467 08-02-2010 03:46:12 0.5 C 3.41 g/m*3 0.5 C 0 km/h
468 08-02-2010 04:11:12 0.3 C 3.31 g/m*3 0.3 C 0 km/h
469 08-02-2010 04:36:12 0.3 C 3.31 g/m*3 0.3 C 0 km/h
470 08-02-2010 05:01:12 0.2 C 3.24 g/m*3 0.2 C 0 km/h
471 08-02-2010 05:26:12 -0.1 C 3.22 g/m*3 -0.1 C 0 km/h
472 08-02-2010 05:51:12 -0.3 C 3.23 g/m*3 -0.3 C 0 km/h
473 08-02-2010 06:16:12 -0.4 C 3.25 g/m*3 -0.4 C 0 km/h
474 08-02-2010 06:41:12 -0.3 C 3.23 g/m*3 -0.3 C 0 km/h
475 08-02-2010 07:06:12 -0.5 C 3.18 g/m*3 -0.5 C 0 km/h
Sensor: Nr:Datum:Temp:Abs-Feuchte:Windchill:Wind:
Aussen-T/F 476 08-02-2010 07:31:12 -0.6 C 3.16 g/m*3 -0.6 C 0 km/h
477 08-02-2010 07:56:12 -0.8 C 3.07 g/m*3 -0.8 C 0 km/h
478 08-02-2010 08:21:13 -0.9 C 3.05 g/m*3 -0.9 C 0 km/h
479 08-02-2010 08:46:13 -0.9 C 3 g/m*3 -0.9 C 0 km/h
480 08-02-2010 09:11:13 -0.7 C 3 g/m*3 -0.7 C 0 km/h
481 08-02-2010 09:36:13 -0.8 C 2.93 g/m*3 -0.8 C 0 km/h
482 08-02-2010 10:01:13 -0.6 C 2.93 g/m*3 -0.6 C 0 km/h
483 08-02-2010 10:26:13 -0.6 C 2.88 g/m*3 -0.6 C 0 km/h
484 08-02-2010 10:51:13 -0.5 C 2.9 g/m*3 -0.5 C 0 km/h
485 08-02-2010 11:16:13 -0.5 C 2.86 g/m*3 -0.5 C 0 km/h
486 08-02-2010 11:41:13 -0.2 C 2.72 g/m*3 -0.2 C 0 km/h
487 08-02-2010 12:06:13 -0.3 C 2.66 g/m*3 -0.3 C 0 km/h
488 08-02-2010 12:31:13 -0.4 C 2.5 g/m*3 -0.4 C 0 km/h
489 08-02-2010 12:56:13 0.3 C 2.57 g/m*3 0.3 C 0 km/h
490 08-02-2010 13:21:13 0.5 C 2.56 g/m*3 0.5 C 0 km/h
491 08-02-2010 13:46:13 0.8 C 2.66 g/m*3 0.8 C 0 km/h
492 08-02-2010 14:11:13 0.6 C 2.63 g/m*3 0.6 C 0 km/h
493 08-02-2010 14:36:13 0.5 C 2.66 g/m*3 0.5 C 0 km/h
494 08-02-2010 15:01:13 -0.2 C 2.63 g/m*3 -0.2 C 0 km/h
495 08-02-2010 15:26:13 -0.6 C 2.6 g/m*3 -0.6 C 0 km/h
496 08-02-2010 15:51:13 -1.1 C 2.51 g/m*3 -1.1 C 0 km/h
497 08-02-2010 16:16:13 -1.1 C 2.6 g/m*3 -1.1 C 0 km/h
498 08-02-2010 16:41:13 -1.4 C 2.55 g/m*3 -1.4 C 0 km/h
499 08-02-2010 17:06:13 -1.9 C 2.55 g/m*3 -1.9 C 0 km/h
500 08-02-2010 17:31:14 -2.1 C 2.51 g/m*3 -2.1 C 0 km/h
Sensor: Nr:Datum:Temp:Abs-Feuchte:Windchill:Wind:
Aussen-T/F 501 08-02-2010 17:56:14 -2.3 C 2.48 g/m*3 -2.3 C 0 km/h
502 08-02-2010 18:21:14 -2.3 C 2.52 g/m*3 -2.3 C 0 km/h
503 08-02-2010 18:46:14 -2.4 C 2.5 g/m*3 -2.4 C 0 km/h
504 08-02-2010 19:11:14 -2.4 C 2.5 g/m*3 -2.4 C 0 km/h
505 08-02-2010 19:36:14 -2.5 C 2.48 g/m*3 -2.5 C 0 km/h
506 08-02-2010 20:01:14 -2.6 C 2.46 g/m*3 -2.6 C 0 km/h
507 08-02-2010 20:26:14 -2.6 C 2.46 g/m*3 -2.6 C 0 km/h
508 08-02-2010 20:51:14 -2.6 C 2.51 g/m*3 -2.6 C 0 km/h
509 08-02-2010 21:16:14 -2.6 C 2.51 g/m*3 -2.6 C 0 km/h
510 08-02-2010 21:41:14 -2.6 C 2.51 g/m*3 -2.6 C 0 km/h
511 08-02-2010 22:06:14 -2.5 C 2.52 g/m*3 -2.5 C 0 km/h
512 08-02-2010 22:31:14 -2.7 C 2.45 g/m*3 -2.7 C 0 km/h
513 08-02-2010 22:56:14 -2.8 C 2.39 g/m*3 -2.8 C 0 km/h
514 08-02-2010 23:21:14 -3.1 C 2.34 g/m*3 -3.1 C 0 km/h
515 08-02-2010 23:46:14 -3.1 C 2.34 g/m*3 -3.1 C 0 km/h
516 09-02-2010 00:11:14 -3.3 C 2.31 g/m*3 -3.3 C 0 km/h
517 09-02-2010 00:36:14 -3.4 C 2.33 g/m*3 -3.4 C 0 km/h
518 09-02-2010 01:01:14 -3.3 C 2.38 g/m*3 -3.3 C 0 km/h
519 09-02-2010 01:26:14 -3.2 C 2.36 g/m*3 -3.2 C 0 km/h
520 09-02-2010 01:51:14 -3.3 C 2.35 g/m*3 -3.3 C 0 km/h
521 09-02-2010 02:16:14 -3.2 C 2.36 g/m*3 -3.2 C 0 km/h
522 09-02-2010 02:41:15 -3.2 C 2.32 g/m*3 -3.2 C 0 km/h
523 09-02-2010 03:06:15 -3.2 C 2.32 g/m*3 -3.2 C 0 km/h
524 09-02-2010 03:31:15 -3.4 C 2.29 g/m*3 -3.4 C 0 km/h
525 09-02-2010 03:56:15 -3.4 C 2.29 g/m*3 -3.4 C 0 km/h
Sensor: Nr:Datum:Temp:Abs-Feuchte:Windchill:Wind:
Aussen-T/F 526 09-02-2010 04:21:15 -3.4 C 2.29 g/m*3 -3.4 C 0 km/h
527 09-02-2010 04:46:15 -3.5 C 2.27 g/m*3 -3.5 C 0 km/h
528 09-02-2010 05:11:15 -3.5 C 2.27 g/m*3 -3.5 C 0 km/h
529 09-02-2010 05:36:15 -3.5 C 2.27 g/m*3 -3.5 C 0 km/h
530 09-02-2010 06:01:15 -3.7 C 2.28 g/m*3 -3.7 C 0 km/h
531 09-02-2010 06:26:15 -3.7 C 2.32 g/m*3 -3.7 C 0 km/h
532 09-02-2010 06:51:15 -3.7 C 2.32 g/m*3 -3.7 C 0 km/h
533 09-02-2010 07:16:15 -3.8 C 2.26 g/m*3 -3.8 C 0 km/h
534 09-02-2010 07:41:15 -3.8 C 2.3 g/m*3 -3.8 C 0 km/h
535 09-02-2010 08:06:15 -3.9 C 2.28 g/m*3 -3.9 C 0 km/h
536 09-02-2010 08:31:15 -3.9 C 2.28 g/m*3 -3.9 C 0 km/h
537 09-02-2010 08:56:15 -4.1 C 2.25 g/m*3 -4.1 C 0 km/h
538 09-02-2010 09:21:15 -4 C 2.27 g/m*3 -4 C 0 km/h
539 09-02-2010 09:46:15 -3.9 C 2.32 g/m*3 -3.9 C 0 km/h
540 09-02-2010 10:11:15 -4 C 2.38 g/m*3 -4 C 0 km/h
541 09-02-2010 10:36:15 -3.6 C 2.52 g/m*3 -3.6 C 0 km/h
542 09-02-2010 11:01:15 -3.2 C 2.56 g/m*3 -3.2 C 0 km/h
543 09-02-2010 11:26:15 -3.4 C 2.37 g/m*3 -3.4 C 0 km/h
544 09-02-2010 11:51:16 -3.5 C 2.35 g/m*3 -3.5 C 0 km/h
545 09-02-2010 12:16:16 -3.4 C 2.25 g/m*3 -3.4 C 0 km/h
546 09-02-2010 12:41:16 -3.1 C 2.18 g/m*3 -3.1 C 0 km/h
547 09-02-2010 13:06:16 -2.8 C 2.23 g/m*3 -2.8 C 0 km/h
548 09-02-2010 13:31:16 -2.8 C 2.11 g/m*3 -2.8 C 0 km/h
549 09-02-2010 13:56:16 -3 C 2.04 g/m*3 -3 C 0 km/h
550 09-02-2010 14:21:16 -3.4 C 2.02 g/m*3 -3.4 C 0 km/h
Sensor: Nr:Datum:Temp:Abs-Feuchte:Windchill:Wind:
Aussen-T/F 551 09-02-2010 14:46:16 -3.5 C 2.01 g/m*3 -3.5 C 0 km/h
552 09-02-2010 15:11:16 -3.5 C 1.97 g/m*3 -3.5 C 0 km/h
553 09-02-2010 15:36:16 -3.6 C 2 g/m*3 -3.6 C 0 km/h
554 09-02-2010 16:01:16 -3.8 C 1.97 g/m*3 -3.8 C 0 km/h
555 09-02-2010 16:26:16 -3.6 C 2 g/m*3 -3.6 C 0 km/h
556 09-02-2010 16:51:16 -3.5 C 1.97 g/m*3 -3.5 C 0 km/h
557 09-02-2010 17:16:16 -3.9 C 2.03 g/m*3 -3.9 C 0 km/h
558 09-02-2010 17:41:16 -4 C 2.09 g/m*3 -4 C 0 km/h
559 09-02-2010 18:06:16 -4.1 C 2.14 g/m*3 -4.1 C 0 km/h
560 09-02-2010 18:31:16 -4.1 C 2.14 g/m*3 -4.1 C 0 km/h
561 09-02-2010 18:56:16 -4.2 C 2.09 g/m*3 -4.2 C 0 km/h
562 09-02-2010 19:21:16 -4.1 C 2.18 g/m*3 -4.1 C 0 km/h
563 09-02-2010 19:46:16 -4.1 C 2.18 g/m*3 -4.1 C 0 km/h
564 09-02-2010 20:11:16 -4.5 C 2.08 g/m*3 -4.5 C 0 km/h
565 09-02-2010 20:36:16 -4.6 C 2.1 g/m*3 -4.6 C 0 km/h
566 09-02-2010 21:01:17 -4.6 C 1.93 g/m*3 -4.6 C 0 km/h
567 09-02-2010 21:26:17 -4.6 C 1.75 g/m*3 -4.6 C 0 km/h
568 09-02-2010 21:51:17 -4.7 C 1.77 g/m*3 -4.7 C 0 km/h
569 09-02-2010 22:16:17 -4.6 C 1.82 g/m*3 -4.6 C 0 km/h
570 09-02-2010 22:41:17 -4.5 C 1.87 g/m*3 -4.5 C 0 km/h
571 09-02-2010 23:06:17 -4.6 C 1.93 g/m*3 -4.6 C 0 km/h
572 09-02-2010 23:31:17 -4.5 C 1.94 g/m*3 -4.5 C 0 km/h
573 09-02-2010 23:56:17 -4.5 C 1.94 g/m*3 -4.5 C 0 km/h
574 10-02-2010 00:21:17 -4.6 C 2.07 g/m*3 -4.6 C 0 km/h
575 10-02-2010 00:46:17 -4.7 C 2.12 g/m*3 -4.7 C 0 km/h
Sensor: Nr:Datum:Temp:Abs-Feuchte:Windchill:Wind:
Aussen-T/F 576 10-02-2010 01:11:17 -4.7 C 2.12 g/m*3 -4.7 C 0 km/h
577 10-02-2010 01:36:17 -4.7 C 2.16 g/m*3 -4.7 C 0 km/h
578 10-02-2010 02:01:17 -4.7 C 2.23 g/m*3 -4.7 C 0 km/h
579 10-02-2010 02:26:17 -4.6 C 2.28 g/m*3 -4.6 C 0 km/h
580 10-02-2010 02:51:17 -4.7 C 2.3 g/m*3 -4.7 C 0 km/h
581 10-02-2010 03:16:17 -4.7 C 2.33 g/m*3 -4.7 C 0 km/h
582 10-02-2010 03:41:17 -4.9 C 2.33 g/m*3 -4.9 C 0 km/h
583 10-02-2010 04:06:17 -4.9 C 2.3 g/m*3 -4.9 C 0 km/h
584 10-02-2010 04:31:17 -5 C 2.32 g/m*3 -5 C 0 km/h
585 10-02-2010 04:56:17 -5 C 2.35 g/m*3 -5 C 0 km/h
586 10-02-2010 05:21:17 -5 C 2.38 g/m*3 -5 C 0 km/h
587 10-02-2010 05:46:17 -5 C 2.35 g/m*3 -5 C 0 km/h
588 10-02-2010 06:11:18 -5 C 2.35 g/m*3 -5 C 0 km/h
589 10-02-2010 06:36:18 -5.2 C 2.32 g/m*3 -5.2 C 0 km/h
590 10-02-2010 07:01:18 -5.4 C 2.28 g/m*3 -5.4 C 0 km/h
591 10-02-2010 07:26:18 -5.6 C 2.31 g/m*3 -5.6 C 0 km/h
592 10-02-2010 07:51:18 -5.4 C 2.38 g/m*3 -5.4 C 0 km/h
593 10-02-2010 08:16:18 -5.5 C 2.36 g/m*3 -5.5 C 0 km/h
594 10-02-2010 08:41:18 -5.3 C 2.33 g/m*3 -5.3 C 0 km/h
595 10-02-2010 09:06:18 -5 C 2.42 g/m*3 -5 C 0 km/h
596 10-02-2010 09:31:18 -4.7 C 2.4 g/m*3 -4.7 C 0 km/h
597 10-02-2010 09:56:18 -4.7 C 2.4 g/m*3 -4.7 C 0 km/h
598 10-02-2010 10:21:18 -4.4 C 2.45 g/m*3 -4.4 C 0 km/h
599 10-02-2010 10:46:18 -4.4 C 2.35 g/m*3 -4.4 C 0 km/h
600 10-02-2010 11:11:18 -4 C 2.41 g/m*3 -4 C 0 km/h
Sensor: Nr:Datum:Temp:Abs-Feuchte:Windchill:Wind:
Aussen-T/F 601 10-02-2010 11:36:18 -3.7 C 2.35 g/m*3 -3.7 C 0 km/h
602 10-02-2010 12:01:18 -3.7 C 2.39 g/m*3 -3.7 C 0 km/h
603 10-02-2010 12:26:18 -3.2 C 2.32 g/m*3 -3.2 C 0 km/h
604 10-02-2010 12:51:18 -3.4 C 2.37 g/m*3 -3.4 C 0 km/h
605 10-02-2010 13:16:18 -3.2 C 2.52 g/m*3 -3.2 C 0 km/h
606 10-02-2010 13:41:18 -2.6 C 2.26 g/m*3 -2.6 C 0 km/h
607 10-02-2010 14:06:18 -3.2 C 2.21 g/m*3 -3.2 C 0 km/h
608 10-02-2010 14:31:18 -3.3 C 2.27 g/m*3 -3.3 C 0 km/h
609 10-02-2010 14:56:18 -3.2 C 2.25 g/m*3 -3.2 C 0 km/h
610 10-02-2010 15:21:18 -3.3 C 2.42 g/m*3 -3.3 C 0 km/h
611 10-02-2010 15:46:19 -3 C 2.24 g/m*3 -3 C 0 km/h
612 10-02-2010 16:11:19 -3.4 C 2.29 g/m*3 -3.4 C 0 km/h
613 10-02-2010 16:36:19 -3.5 C 2.27 g/m*3 -3.5 C 0 km/h
614 10-02-2010 17:01:19 -3.4 C 2.29 g/m*3 -3.4 C 0 km/h
615 10-02-2010 17:26:19 -3.8 C 2.3 g/m*3 -3.8 C 0 km/h
616 10-02-2010 17:51:19 -4.4 C 2.42 g/m*3 -4.4 C 0 km/h
617 10-02-2010 18:16:19 -5.2 C 2.32 g/m*3 -5.2 C 0 km/h
618 10-02-2010 18:41:19 -5.2 C 2.45 g/m*3 -5.2 C 0 km/h
619 10-02-2010 19:06:19 -5.3 C 2.37 g/m*3 -5.3 C 0 km/h
620 10-02-2010 19:31:19 -6 C 2.28 g/m*3 -6 C 0 km/h
621 10-02-2010 19:56:19 -6.2 C 2.31 g/m*3 -6.2 C 0 km/h
622 10-02-2010 20:21:19 -6.5 C 2.29 g/m*3 -6.5 C 0 km/h
623 10-02-2010 20:46:19 -6.3 C 2.35 g/m*3 -6.3 C 0 km/h
624 10-02-2010 21:11:19 -6.1 C 2.39 g/m*3 -6.1 C 0 km/h
625 10-02-2010 21:36:19 -6.6 C 2.27 g/m*3 -6.6 C 0 km/h
Sensor: Nr:Datum:Temp:Abs-Feuchte:Windchill:Wind:
Aussen-T/F 626 10-02-2010 22:01:19 -6.3 C 2.35 g/m*3 -6.3 C 0 km/h
627 10-02-2010 22:26:19 -6.5 C 2.26 g/m*3 -6.5 C 0 km/h
628 10-02-2010 22:51:19 -6.9 C 2.16 g/m*3 -6.9 C 0 km/h
629 10-02-2010 23:16:19 -7.4 C 2.09 g/m*3 -7.4 C 0 km/h
630 10-02-2010 23:41:19 -7 C 2.18 g/m*3 -7 C 0 km/h
631 11-02-2010 00:06:20 -6.5 C 2.29 g/m*3 -6.5 C 0 km/h
632 11-02-2010 00:31:20 -6.5 C 2.17 g/m*3 -6.5 C 0 km/h
633 11-02-2010 00:56:20 -6.6 C 2.12 g/m*3 -6.6 C 0 km/h
634 11-02-2010 01:21:20 -7.5 C 1.96 g/m*3 -7.5 C 0 km/h
635 11-02-2010 01:46:20 -8.1 C 1.9 g/m*3 -8.1 C 0 km/h
636 11-02-2010 02:11:20 -7.7 C 2.04 g/m*3 -7.7 C 0 km/h
637 11-02-2010 02:36:20 -7.4 C 2.09 g/m*3 -7.4 C 0 km/h
638 11-02-2010 03:01:20 -7.2 C 2.12 g/m*3 -7.2 C 0 km/h
639 11-02-2010 03:26:20 -6.9 C 2.14 g/m*3 -6.9 C 0 km/h
640 11-02-2010 03:51:20 -6.8 C 2.12 g/m*3 -6.8 C 0 km/h
641 11-02-2010 04:16:20 -6.8 C 2.09 g/m*3 -6.8 C 0 km/h
642 11-02-2010 04:41:20 -6.4 C 2.18 g/m*3 -6.4 C 0 km/h
643 11-02-2010 05:06:20 -6.2 C 2.18 g/m*3 -6.2 C 0 km/h
644 11-02-2010 05:31:20 -6.1 C 2.23 g/m*3 -6.1 C 0 km/h
645 11-02-2010 05:56:20 -6 C 2.31 g/m*3 -6 C 0 km/h
646 11-02-2010 06:21:20 -5.9 C 2.36 g/m*3 -5.9 C 0 km/h
647 11-02-2010 06:46:20 -5.8 C 2.44 g/m*3 -5.8 C 0 km/h
648 11-02-2010 07:11:20 -5.7 C 2.46 g/m*3 -5.7 C 0 km/h
649 11-02-2010 07:36:20 -5.6 C 2.51 g/m*3 -5.6 C 0 km/h
650 11-02-2010 08:01:20 -5.5 C 2.56 g/m*3 -5.5 C 0 km/h
Sensor: Nr:Datum:Temp:Abs-Feuchte:Windchill:Wind:
Aussen-T/F 651 11-02-2010 08:26:20 -5.4 C 2.58 g/m*3 -5.4 C 0 km/h
652 11-02-2010 08:51:20 -5.2 C 2.62 g/m*3 -5.2 C 0 km/h
653 11-02-2010 09:16:20 -4.9 C 2.64 g/m*3 -4.9 C 0 km/h
654 11-02-2010 09:41:21 -4.5 C 2.68 g/m*3 -4.5 C 0 km/h
655 11-02-2010 10:06:21 -4 C 2.74 g/m*3 -4 C 0 km/h
656 11-02-2010 10:31:21 -3.7 C 2.77 g/m*3 -3.7 C 0 km/h
657 11-02-2010 10:56:21 -3.3 C 2.77 g/m*3 -3.3 C 0 km/h
658 11-02-2010 11:21:21 -2.9 C 2.77 g/m*3 -2.9 C 0 km/h
659 11-02-2010 11:46:21 -2.7 C 2.81 g/m*3 -2.7 C 0 km/h
660 11-02-2010 12:11:21 -2.5 C 2.89 g/m*3 -2.5 C 0 km/h
661 11-02-2010 12:36:21 -2 C 2.99 g/m*3 -2 C 0 km/h
662 11-02-2010 13:01:21 -1.5 C 3.1 g/m*3 -1.5 C 0 km/h
663 11-02-2010 13:26:21 -1.1 C 3.05 g/m*3 -1.1 C 0 km/h
664 11-02-2010 13:51:21 -1.3 C 2.92 g/m*3 -1.3 C 0 km/h
665 11-02-2010 14:16:21 -1.1 C 3.1 g/m*3 -1.1 C 0 km/h
666 11-02-2010 14:41:21 -1.2 C 2.94 g/m*3 -1.2 C 0 km/h
667 11-02-2010 15:06:21 -1.2 C 2.9 g/m*3 -1.2 C 0 km/h
668 11-02-2010 15:31:21 -1.6 C 2.86 g/m*3 -1.6 C 0 km/h
669 11-02-2010 15:56:21 -1.3 C 2.88 g/m*3 -1.3 C 0 km/h
670 11-02-2010 16:21:21 -1.4 C 2.9 g/m*3 -1.4 C 0 km/h
671 11-02-2010 16:46:21 -1.6 C 2.9 g/m*3 -1.6 C 0 km/h
672 11-02-2010 17:11:21 -1.7 C 2.84 g/m*3 -1.7 C 0 km/h
673 11-02-2010 17:36:21 -1.7 C 2.76 g/m*3 -1.7 C 0 km/h
674 11-02-2010 18:01:21 -1.8 C 2.74 g/m*3 -1.8 C 0 km/h
675 11-02-2010 18:26:21 -1.8 C 2.74 g/m*3 -1.8 C 0 km/h
Sensor: Nr:Datum:Temp:Abs-Feuchte:Windchill:Wind:
Aussen-T/F 676 11-02-2010 18:51:22 -1.8 C 2.69 g/m*3 -1.8 C 0 km/h
677 11-02-2010 19:16:22 -1.8 C 2.65 g/m*3 -1.8 C 0 km/h
678 11-02-2010 19:41:22 -1.8 C 2.65 g/m*3 -1.8 C 0 km/h
679 11-02-2010 20:06:22 -1.8 C 2.65 g/m*3 -1.8 C 0 km/h
680 11-02-2010 20:31:22 -1.8 C 2.69 g/m*3 -1.8 C 0 km/h
681 11-02-2010 20:56:22 -1.8 C 2.74 g/m*3 -1.8 C 0 km/h
682 11-02-2010 21:21:22 -2.1 C 2.85 g/m*3 -2.1 C 0 km/h
683 11-02-2010 21:46:22 -2.2 C 2.95 g/m*3 -2.2 C 0 km/h
684 11-02-2010 22:11:22 -2.5 C 3.05 g/m*3 -2.5 C 0 km/h
685 11-02-2010 22:36:22 -2.5 C 3.09 g/m*3 -2.5 C 0 km/h
686 11-02-2010 23:01:22 -2.5 C 3.13 g/m*3 -2.5 C 0 km/h
687 11-02-2010 23:26:22 -2.6 C 3.15 g/m*3 -2.6 C 0 km/h
688 11-02-2010 23:51:22 -2.5 C 3.17 g/m*3 -2.5 C 0 km/h
689 12-02-2010 00:16:22 -2.6 C 3.19 g/m*3 -2.6 C 0 km/h
690 12-02-2010 00:41:22 -2.7 C 3.21 g/m*3 -2.7 C 0 km/h
691 12-02-2010 01:06:22 -2.7 C 3.21 g/m*3 -2.7 C 0 km/h
692 12-02-2010 01:31:22 -2.7 C 3.21 g/m*3 -2.7 C 0 km/h
693 12-02-2010 01:56:22 -2.6 C 3.19 g/m*3 -2.6 C 0 km/h
694 12-02-2010 02:21:22 -2.6 C 3.19 g/m*3 -2.6 C 0 km/h
695 12-02-2010 02:46:22 -2.6 C 3.15 g/m*3 -2.6 C 0 km/h
696 12-02-2010 03:11:22 -2.6 C 3.19 g/m*3 -2.6 C 0 km/h
697 12-02-2010 03:36:22 -2.7 C 3.17 g/m*3 -2.7 C 0 km/h
698 12-02-2010 04:01:23 -2.6 C 3.23 g/m*3 -2.6 C 0 km/h
699 12-02-2010 04:26:23 -2.6 C 3.19 g/m*3 -2.6 C 0 km/h
700 12-02-2010 04:51:23 -2.6 C 3.19 g/m*3 -2.6 C 0 km/h
Sensor: Nr:Datum:Temp:Abs-Feuchte:Windchill:Wind:
Aussen-T/F 701 12-02-2010 05:16:23 -2.6 C 3.19 g/m*3 -2.6 C 0 km/h
702 12-02-2010 05:41:23 -2.5 C 3.21 g/m*3 -2.5 C 0 km/h
703 12-02-2010 06:06:23 -2.6 C 3.15 g/m*3 -2.6 C 0 km/h
704 12-02-2010 06:31:23 -2.5 C 3.17 g/m*3 -2.5 C 0 km/h
705 12-02-2010 06:56:23 -2.6 C 3.19 g/m*3 -2.6 C 0 km/h
706 12-02-2010 07:21:23 -2.7 C 3.17 g/m*3 -2.7 C 0 km/h
707 12-02-2010 07:46:23 -2.8 C 3.07 g/m*3 -2.8 C 0 km/h
708 12-02-2010 08:11:23 -2.7 C 3.01 g/m*3 -2.7 C 0 km/h
709 12-02-2010 08:36:23 -2.6 C 3.03 g/m*3 -2.6 C 0 km/h
710 12-02-2010 09:01:23 -2.6 C 3.03 g/m*3 -2.6 C 0 km/h
711 12-02-2010 09:26:23 -2.5 C 3.01 g/m*3 -2.5 C 0 km/h
712 12-02-2010 09:51:23 -2.3 C 2.97 g/m*3 -2.3 C 0 km/h
713 12-02-2010 10:16:23 -2.1 C 2.93 g/m*3 -2.1 C 0 km/h
714 12-02-2010 10:41:23 -1.9 C 2.84 g/m*3 -1.9 C 0 km/h
715 12-02-2010 11:06:23 -1.2 C 2.9 g/m*3 -1.2 C 0 km/h
716 12-02-2010 11:31:23 -1.3 C 2.74 g/m*3 -1.3 C 0 km/h
717 12-02-2010 11:56:23 -1 C 2.71 g/m*3 -1 C 0 km/h
718 12-02-2010 12:21:23 -1.1 C 2.69 g/m*3 -1.1 C 0 km/h
719 12-02-2010 12:46:23 -1.4 C 2.77 g/m*3 -1.4 C 0 km/h
720 12-02-2010 13:11:24 -1.2 C 2.85 g/m*3 -1.2 C 0 km/h
721 12-02-2010 13:36:24 -1.2 C 2.9 g/m*3 -1.2 C 0 km/h
722 12-02-2010 14:01:24 -1.1 C 2.92 g/m*3 -1.1 C 0 km/h
723 12-02-2010 14:26:24 -0.7 C 2.95 g/m*3 -0.7 C 0 km/h
724 12-02-2010 14:51:24 -0.5 C 2.95 g/m*3 -0.5 C 0 km/h
725 12-02-2010 15:16:24 -0.8 C 2.84 g/m*3 -0.8 C 0 km/h
Sensor: Nr:Datum:Temp:Abs-Feuchte:Windchill:Wind:
Aussen-T/F 726 12-02-2010 15:41:24 -0.8 C 2.89 g/m*3 -0.8 C 0 km/h
727 12-02-2010 16:06:24 -0.9 C 2.91 g/m*3 -0.9 C 0 km/h
728 12-02-2010 16:31:24 -1.2 C 2.85 g/m*3 -1.2 C 0 km/h
729 12-02-2010 16:56:24 -1.2 C 2.76 g/m*3 -1.2 C 0 km/h
730 12-02-2010 17:21:24 -1.4 C 2.73 g/m*3 -1.4 C 0 km/h
731 12-02-2010 17:46:24 -1.9 C 2.76 g/m*3 -1.9 C 0 km/h
732 12-02-2010 18:11:24 -2.1 C 2.72 g/m*3 -2.1 C 0 km/h
733 12-02-2010 18:36:24 -2.2 C 2.78 g/m*3 -2.2 C 0 km/h
734 12-02-2010 19:01:24 -2.4 C 2.66 g/m*3 -2.4 C 0 km/h
735 12-02-2010 19:26:24 -2.5 C 2.69 g/m*3 -2.5 C 0 km/h
736 12-02-2010 19:51:24 -2.5 C 2.73 g/m*3 -2.5 C 0 km/h
737 12-02-2010 20:16:24 -2.6 C 2.71 g/m*3 -2.6 C 0 km/h
738 12-02-2010 20:41:24 -2.6 C 2.75 g/m*3 -2.6 C 0 km/h
739 12-02-2010 21:06:24 -2.6 C 2.71 g/m*3 -2.6 C 0 km/h
740 12-02-2010 21:31:24 -2.7 C 2.73 g/m*3 -2.7 C 0 km/h
741 12-02-2010 21:56:25 -2.8 C 2.71 g/m*3 -2.8 C 0 km/h
742 12-02-2010 22:21:25 -2.8 C 2.75 g/m*3 -2.8 C 0 km/h
743 12-02-2010 22:46:25 -2.9 C 2.73 g/m*3 -2.9 C 0 km/h
744 12-02-2010 23:11:25 -3 C 2.71 g/m*3 -3 C 0 km/h
745 12-02-2010 23:36:25 -3.2 C 2.67 g/m*3 -3.2 C 0 km/h
746 13-02-2010 00:01:25 -3.2 C 2.71 g/m*3 -3.2 C 0 km/h
747 13-02-2010 00:26:25 -3.4 C 2.75 g/m*3 -3.4 C 0 km/h
748 13-02-2010 00:51:25 -3.7 C 2.73 g/m*3 -3.7 C 0 km/h
749 13-02-2010 01:16:25 -3.9 C 2.76 g/m*3 -3.9 C 0 km/h
750 13-02-2010 01:41:25 -4 C 2.78 g/m*3 -4 C 0 km/h
Sensor: Nr:Datum:Temp:Abs-Feuchte:Windchill:Wind:
Aussen-T/F 751 13-02-2010 02:06:25 -3.9 C 2.8 g/m*3 -3.9 C 0 km/h
752 13-02-2010 02:31:25 -4 C 2.74 g/m*3 -4 C 0 km/h
753 13-02-2010 02:56:25 -4.1 C 2.69 g/m*3 -4.1 C 0 km/h
754 13-02-2010 03:21:25 -4.2 C 2.7 g/m*3 -4.2 C 0 km/h
755 13-02-2010 03:46:25 -4.2 C 2.74 g/m*3 -4.2 C 0 km/h
756 13-02-2010 04:11:25 -4.2 C 2.74 g/m*3 -4.2 C 0 km/h
757 13-02-2010 04:36:25 -4.1 C 2.8 g/m*3 -4.1 C 0 km/h
758 13-02-2010 05:01:25 -4.1 C 2.8 g/m*3 -4.1 C 0 km/h
759 13-02-2010 05:26:25 -4 C 2.82 g/m*3 -4 C 0 km/h
760 13-02-2010 05:51:25 -3.8 C 2.86 g/m*3 -3.8 C 0 km/h
761 13-02-2010 06:16:26 -3.9 C 2.84 g/m*3 -3.9 C 0 km/h
762 13-02-2010 06:41:26 -3.8 C 2.86 g/m*3 -3.8 C 0 km/h
763 13-02-2010 07:06:26 -3.7 C 2.84 g/m*3 -3.7 C 0 km/h
764 13-02-2010 07:31:26 -3.8 C 2.78 g/m*3 -3.8 C 0 km/h
765 13-02-2010 07:56:26 -3.8 C 2.82 g/m*3 -3.8 C 0 km/h
766 13-02-2010 08:21:26 -3.6 C 2.86 g/m*3 -3.6 C 0 km/h
767 13-02-2010 08:46:26 -3.2 C 2.9 g/m*3 -3.2 C 0 km/h
768 13-02-2010 09:11:26 -2.9 C 2.89 g/m*3 -2.9 C 0 km/h
769 13-02-2010 09:36:26 -2.6 C 2.91 g/m*3 -2.6 C 0 km/h
770 13-02-2010 10:01:26 -2.7 C 2.73 g/m*3 -2.7 C 0 km/h
771 13-02-2010 10:26:26 -2.4 C 2.7 g/m*3 -2.4 C 0 km/h
772 13-02-2010 10:51:26 -2.3 C 2.64 g/m*3 -2.3 C 0 km/h
773 13-02-2010 11:16:26 -1.9 C 2.76 g/m*3 -1.9 C 0 km/h
774 13-02-2010 11:41:26 -1.5 C 2.66 g/m*3 -1.5 C 0 km/h
775 13-02-2010 12:06:26 -1.3 C 2.7 g/m*3 -1.3 C 0 km/h
Sensor: Nr:Datum:Temp:Abs-Feuchte:Windchill:Wind:
Aussen-T/F 776 13-02-2010 12:31:26 -0.5 C 2.86 g/m*3 -0.5 C 0 km/h
777 13-02-2010 12:56:26 -1.2 C 2.67 g/m*3 -1.2 C 0 km/h
778 13-02-2010 13:21:26 -1.4 C 2.73 g/m*3 -1.4 C 0 km/h
779 13-02-2010 13:46:26 -1 C 2.76 g/m*3 -1 C 0 km/h
780 13-02-2010 14:11:26 -1.1 C 2.51 g/m*3 -1.1 C 0 km/h
781 13-02-2010 14:36:26 0 C 2.76 g/m*3 0 C 0 km/h
782 13-02-2010 15:01:27 -0.3 C 2.56 g/m*3 -0.3 C 0 km/h
783 13-02-2010 15:26:27 -0.5 C 2.57 g/m*3 -0.5 C 0 km/h
784 13-02-2010 15:51:27 -0.7 C 2.54 g/m*3 -0.7 C 0 km/h
785 13-02-2010 16:16:27 -0.9 C 2.55 g/m*3 -0.9 C 0 km/h
786 13-02-2010 16:41:27 -1 C 2.58 g/m*3 -1 C 0 km/h
787 13-02-2010 17:06:27 -1.4 C 2.68 g/m*3 -1.4 C 0 km/h
788 13-02-2010 17:31:27 -1.9 C 2.8 g/m*3 -1.9 C 0 km/h
789 13-02-2010 17:56:27 -2 C 2.91 g/m*3 -2 C 0 km/h
790 13-02-2010 18:21:27 -2 C 2.95 g/m*3 -2 C 0 km/h
791 13-02-2010 18:46:27 -2.1 C 2.97 g/m*3 -2.1 C 0 km/h
792 13-02-2010 19:11:27 -2.2 C 2.99 g/m*3 -2.2 C 0 km/h
793 13-02-2010 19:36:27 -2.1 C 3.01 g/m*3 -2.1 C 0 km/h
794 13-02-2010 20:01:27 -2.2 C 2.99 g/m*3 -2.2 C 0 km/h
795 13-02-2010 20:26:27 -2.3 C 3.01 g/m*3 -2.3 C 0 km/h
796 13-02-2010 20:51:27 -2.4 C 2.99 g/m*3 -2.4 C 0 km/h
797 13-02-2010 21:16:27 -2.4 C 2.99 g/m*3 -2.4 C 0 km/h
798 13-02-2010 21:41:27 -2.4 C 2.99 g/m*3 -2.4 C 0 km/h
799 13-02-2010 22:06:27 -2.5 C 2.97 g/m*3 -2.5 C 0 km/h
800 13-02-2010 22:31:27 -2.6 C 2.99 g/m*3 -2.6 C 0 km/h
Sensor: Nr:Datum:Temp:Abs-Feuchte:Windchill:Wind:
Aussen-T/F 801 13-02-2010 22:56:27 -2.5 C 3.05 g/m*3 -2.5 C 0 km/h
802 13-02-2010 23:21:28 -2.7 C 3.05 g/m*3 -2.7 C 0 km/h
803 13-02-2010 23:46:28 -2.8 C 3.03 g/m*3 -2.8 C 0 km/h
804 14-02-2010 00:11:28 -2.9 C 3.01 g/m*3 -2.9 C 0 km/h
805 14-02-2010 00:36:28 -3.1 C 3 g/m*3 -3.1 C 0 km/h
806 14-02-2010 01:01:28 -3.2 C 2.98 g/m*3 -3.2 C 0 km/h
807 14-02-2010 01:26:28 -3.3 C 2.96 g/m*3 -3.3 C 0 km/h
808 14-02-2010 01:51:28 -3.4 C 2.94 g/m*3 -3.4 C 0 km/h
809 14-02-2010 02:16:28 -3.4 C 2.98 g/m*3 -3.4 C 0 km/h
810 14-02-2010 02:41:28 -3.4 C 2.98 g/m*3 -3.4 C 0 km/h
811 14-02-2010 03:06:28 -3.4 C 3.02 g/m*3 -3.4 C 0 km/h
812 14-02-2010 03:31:28 -3.4 C 3.02 g/m*3 -3.4 C 0 km/h
813 14-02-2010 03:56:28 -3.6 C 2.97 g/m*3 -3.6 C 0 km/h
814 14-02-2010 04:21:28 -3.5 C 2.99 g/m*3 -3.5 C 0 km/h
815 14-02-2010 04:46:28 -3.6 C 2.97 g/m*3 -3.6 C 0 km/h
816 14-02-2010 05:11:28 -3.7 C 2.95 g/m*3 -3.7 C 0 km/h
817 14-02-2010 05:36:28 -3.6 C 3.01 g/m*3 -3.6 C 0 km/h
818 14-02-2010 06:01:28 -3.7 C 2.99 g/m*3 -3.7 C 0 km/h
819 14-02-2010 06:26:28 -3.7 C 2.99 g/m*3 -3.7 C 0 km/h
820 14-02-2010 06:51:28 -3.7 C 2.99 g/m*3 -3.7 C 0 km/h
821 14-02-2010 07:16:28 -3.4 C 3.05 g/m*3 -3.4 C 0 km/h
822 14-02-2010 07:41:28 -3.6 C 3.01 g/m*3 -3.6 C 0 km/h
823 14-02-2010 08:06:29 -3.5 C 3.03 g/m*3 -3.5 C 0 km/h
824 14-02-2010 08:31:29 -3.5 C 3.03 g/m*3 -3.5 C 0 km/h
825 14-02-2010 08:56:29 -3.3 C 3.08 g/m*3 -3.3 C 0 km/h
Sensor: Nr:Datum:Temp:Abs-Feuchte:Windchill:Wind:
Aussen-T/F 826 14-02-2010 09:21:29 -3.2 C 3.1 g/m*3 -3.2 C 0 km/h
827 14-02-2010 09:46:29 -3.1 C 3.12 g/m*3 -3.1 C 0 km/h
828 14-02-2010 10:11:29 -2.8 C 3.19 g/m*3 -2.8 C 0 km/h
829 14-02-2010 10:36:29 -2.4 C 3.24 g/m*3 -2.4 C 0 km/h
830 14-02-2010 11:01:29 -2.1 C 3.22 g/m*3 -2.1 C 0 km/h
831 14-02-2010 11:26:29 -1.9 C 3.23 g/m*3 -1.9 C 0 km/h
832 14-02-2010 11:51:29 -1.5 C 3.23 g/m*3 -1.5 C 0 km/h
833 14-02-2010 12:16:29 -1.1 C 3.19 g/m*3 -1.1 C 0 km/h
834 14-02-2010 12:41:29 -0.6 C 3.07 g/m*3 -0.6 C 0 km/h
835 14-02-2010 13:06:29 0.2 C 3.14 g/m*3 0.2 C 0 km/h
836 14-02-2010 13:31:29 0.6 C 3.03 g/m*3 0.6 C 0 km/h
837 14-02-2010 13:56:29 1 C 3.01 g/m*3 1 C 0 km/h
838 14-02-2010 14:21:29 1.4 C 3.09 g/m*3 1.4 C 0 km/h
839 14-02-2010 14:46:29 1.4 C 3.04 g/m*3 1.4 C 0 km/h
840 14-02-2010 15:11:29 0.8 C 2.92 g/m*3 0.8 C 0 km/h
841 14-02-2010 15:36:29 0.7 C 3 g/m*3 0.7 C 0 km/h
842 14-02-2010 16:01:29 0.1 C 2.98 g/m*3 0.1 C 0 km/h
843 14-02-2010 16:26:30 -0.3 C 2.99 g/m*3 -0.3 C 0 km/h
844 14-02-2010 16:51:30 -0.5 C 3.09 g/m*3 -0.5 C 0 km/h
845 14-02-2010 17:16:30 -0.7 C 3.14 g/m*3 -0.7 C 0 km/h
846 14-02-2010 17:41:30 -0.9 C 3.19 g/m*3 -0.9 C 0 km/h
847 14-02-2010 18:06:30 -1.1 C 3.23 g/m*3 -1.1 C 0 km/h
848 14-02-2010 18:31:30 -1.3 C 3.23 g/m*3 -1.3 C 0 km/h
849 14-02-2010 18:56:30 -1.5 C 3.27 g/m*3 -1.5 C 0 km/h
850 14-02-2010 19:21:30 -1.7 C 3.27 g/m*3 -1.7 C 0 km/h
Sensor: Nr:Datum:Temp:Abs-Feuchte:Windchill:Wind:
Aussen-T/F 851 14-02-2010 19:46:30 -1.8 C 3.29 g/m*3 -1.8 C 0 km/h
852 14-02-2010 20:11:30 -1.7 C 3.36 g/m*3 -1.7 C 0 km/h
853 14-02-2010 20:36:30 -1.9 C 3.31 g/m*3 -1.9 C 0 km/h
854 14-02-2010 21:01:30 -2.2 C 3.24 g/m*3 -2.2 C 0 km/h
855 14-02-2010 21:26:30 -2.4 C 3.16 g/m*3 -2.4 C 0 km/h
856 14-02-2010 21:51:30 -2.6 C 3.11 g/m*3 -2.6 C 0 km/h
857 14-02-2010 22:16:30 -2.9 C 3.01 g/m*3 -2.9 C 0 km/h
858 14-02-2010 22:41:30 -3 C 3.02 g/m*3 -3 C 0 km/h
859 14-02-2010 23:06:30 -3 C 2.99 g/m*3 -3 C 0 km/h
860 14-02-2010 23:31:30 -3 C 2.99 g/m*3 -3 C 0 km/h
861 14-02-2010 23:56:30 -3 C 2.99 g/m*3 -3 C 0 km/h
862 15-02-2010 00:21:30 -3 C 2.99 g/m*3 -3 C 0 km/h
863 15-02-2010 00:46:30 -3 C 2.99 g/m*3 -3 C 0 km/h
864 15-02-2010 01:11:31 -3 C 2.99 g/m*3 -3 C 0 km/h
865 15-02-2010 01:36:31 -2.9 C 2.97 g/m*3 -2.9 C 0 km/h
866 15-02-2010 02:01:31 -2.8 C 2.99 g/m*3 -2.8 C 0 km/h
867 15-02-2010 02:26:31 -2.7 C 3.01 g/m*3 -2.7 C 0 km/h
868 15-02-2010 02:51:31 -2.6 C 3.03 g/m*3 -2.6 C 0 km/h
869 15-02-2010 03:16:31 -2.6 C 2.99 g/m*3 -2.6 C 0 km/h
870 15-02-2010 03:41:31 -2.6 C 2.99 g/m*3 -2.6 C 0 km/h
871 15-02-2010 04:06:31 -2.6 C 2.99 g/m*3 -2.6 C 0 km/h
872 15-02-2010 04:31:31 -2.6 C 3.03 g/m*3 -2.6 C 0 km/h
873 15-02-2010 04:56:31 -2.6 C 3.03 g/m*3 -2.6 C 0 km/h
874 15-02-2010 05:21:31 -2.6 C 3.07 g/m*3 -2.6 C 0 km/h
875 15-02-2010 05:46:31 -2.6 C 3.11 g/m*3 -2.6 C 0 km/h
Sensor: Nr:Datum:Temp:Abs-Feuchte:Windchill:Wind:
Aussen-T/F 876 15-02-2010 06:11:31 -2.7 C 3.05 g/m*3 -2.7 C 0 km/h
877 15-02-2010 06:36:31 -2.8 C 3.03 g/m*3 -2.8 C 0 km/h
878 15-02-2010 07:01:31 -2.9 C 3.01 g/m*3 -2.9 C 0 km/h
879 15-02-2010 07:26:31 -3.2 C 2.9 g/m*3 -3.2 C 0 km/h
880 15-02-2010 07:51:31 -3.1 C 2.96 g/m*3 -3.1 C 0 km/h
881 15-02-2010 08:16:31 -3.1 C 2.96 g/m*3 -3.1 C 0 km/h
882 15-02-2010 08:41:31 -3 C 2.91 g/m*3 -3 C 0 km/h
883 15-02-2010 09:06:31 -2.7 C 2.93 g/m*3 -2.7 C 0 km/h
884 15-02-2010 09:31:31 -2.3 C 2.97 g/m*3 -2.3 C 0 km/h
885 15-02-2010 09:56:32 -1.8 C 3.04 g/m*3 -1.8 C 0 km/h
886 15-02-2010 10:21:32 -1.4 C 3.03 g/m*3 -1.4 C 0 km/h
887 15-02-2010 10:46:32 -0.2 C 3.11 g/m*3 -0.2 C 0 km/h
888 15-02-2010 11:11:32 -0.3 C 3.04 g/m*3 -0.3 C 0 km/h
889 15-02-2010 11:36:32 -0.2 C 3.11 g/m*3 -0.2 C 0 km/h
890 15-02-2010 12:01:32 0.3 C 3.07 g/m*3 0.3 C 0 km/h
891 15-02-2010 12:26:32 0.9 C 3.2 g/m*3 0.9 C 0 km/h
892 15-02-2010 12:51:32 1.2 C 3.21 g/m*3 1.2 C 0 km/h
893 15-02-2010 13:16:32 1.6 C 3.24 g/m*3 1.6 C 0 km/h
894 15-02-2010 13:41:32 1.8 C 3.29 g/m*3 1.8 C 0 km/h
895 15-02-2010 14:06:32 2.2 C 3.21 g/m*3 2.2 C 0 km/h
896 15-02-2010 14:31:32 1.4 C 3.2 g/m*3 1.4 C 0 km/h
897 15-02-2010 14:56:32 1.6 C 3.41 g/m*3 1.6 C 0 km/h
898 15-02-2010 15:21:32 1.8 C 3.45 g/m*3 1.8 C 0 km/h
899 15-02-2010 15:46:32 1.8 C 3.4 g/m*3 1.8 C 0 km/h
900 15-02-2010 16:11:32 1.5 C 3.38 g/m*3 1.5 C 0 km/h
Sensor: Nr:Datum:Temp:Abs-Feuchte:Windchill:Wind:
Aussen-T/F 901 15-02-2010 16:36:32 1.3 C 3.44 g/m*3 1.3 C 0 km/h
902 15-02-2010 17:01:32 0.7 C 3.46 g/m*3 0.7 C 0 km/h
903 15-02-2010 17:26:32 0.3 C 3.46 g/m*3 0.3 C 0 km/h
904 15-02-2010 17:51:32 -0.2 C 3.39 g/m*3 -0.2 C 0 km/h
905 15-02-2010 18:16:33 -0.4 C 3.44 g/m*3 -0.4 C 0 km/h
906 15-02-2010 18:41:33 -0.6 C 3.44 g/m*3 -0.6 C 0 km/h
907 15-02-2010 19:06:33 -0.9 C 3.46 g/m*3 -0.9 C 0 km/h
908 15-02-2010 19:31:33 -1 C 3.44 g/m*3 -1 C 0 km/h
909 15-02-2010 19:56:33 -1 C 3.48 g/m*3 -1 C 0 km/h
910 15-02-2010 20:21:33 -1.2 C 3.43 g/m*3 -1.2 C 0 km/h
911 15-02-2010 20:46:33 -1.3 C 3.41 g/m*3 -1.3 C 0 km/h
912 15-02-2010 21:11:33 -1.2 C 3.43 g/m*3 -1.2 C 0 km/h
913 15-02-2010 21:36:33 -1.2 C 3.48 g/m*3 -1.2 C 0 km/h
914 15-02-2010 22:01:33 -1 C 3.57 g/m*3 -1 C 0 km/h
915 15-02-2010 22:26:33 -1 C 3.53 g/m*3 -1 C 0 km/h
916 15-02-2010 22:51:33 -1.2 C 3.48 g/m*3 -1.2 C 0 km/h
917 15-02-2010 23:16:33 -1.2 C 3.48 g/m*3 -1.2 C 0 km/h
918 15-02-2010 23:41:33 -1.3 C 3.45 g/m*3 -1.3 C 0 km/h
919 16-02-2010 00:06:33 -1.4 C 3.43 g/m*3 -1.4 C 0 km/h
920 16-02-2010 00:31:33 -2.1 C 3.22 g/m*3 -2.1 C 0 km/h
921 16-02-2010 00:56:33 -2.7 C 3.13 g/m*3 -2.7 C 0 km/h
922 16-02-2010 01:21:33 -2.9 C 3.13 g/m*3 -2.9 C 0 km/h
923 16-02-2010 01:46:33 -2.9 C 3.16 g/m*3 -2.9 C 0 km/h
924 16-02-2010 02:11:33 -2.9 C 3.16 g/m*3 -2.9 C 0 km/h
925 16-02-2010 02:36:33 -3.2 C 3.1 g/m*3 -3.2 C 0 km/h
Sensor: Nr:Datum:Temp:Abs-Feuchte:Windchill:Wind:
Aussen-T/F 926 16-02-2010 03:01:34 -3.3 C 3.08 g/m*3 -3.3 C 0 km/h
927 16-02-2010 03:26:34 -3.4 C 3.09 g/m*3 -3.4 C 0 km/h
928 16-02-2010 03:51:34 -3.1 C 3.16 g/m*3 -3.1 C 0 km/h
929 16-02-2010 04:16:34 -2.9 C 3.2 g/m*3 -2.9 C 0 km/h
930 16-02-2010 04:41:34 -2.7 C 3.29 g/m*3 -2.7 C 0 km/h
931 16-02-2010 05:06:34 -2.7 C 3.25 g/m*3 -2.7 C 0 km/h
932 16-02-2010 05:31:34 -2.7 C 3.25 g/m*3 -2.7 C 0 km/h
933 16-02-2010 05:56:34 -2.6 C 3.27 g/m*3 -2.6 C 0 km/h
934 16-02-2010 06:21:34 -2.3 C 3.34 g/m*3 -2.3 C 0 km/h
935 16-02-2010 06:46:34 -2.3 C 3.3 g/m*3 -2.3 C 0 km/h
936 16-02-2010 07:11:34 -2.5 C 3.26 g/m*3 -2.5 C 0 km/h
937 16-02-2010 07:36:34 -2.8 C 3.19 g/m*3 -2.8 C 0 km/h
938 16-02-2010 08:01:34 -2.8 C 3.19 g/m*3 -2.8 C 0 km/h
939 16-02-2010 08:26:34 -2.5 C 3.3 g/m*3 -2.5 C 0 km/h
940 16-02-2010 08:51:34 -1.9 C 3.4 g/m*3 -1.9 C 0 km/h
941 16-02-2010 09:16:34 -1.4 C 3.47 g/m*3 -1.4 C 0 km/h
942 16-02-2010 09:41:34 -0.7 C 3.51 g/m*3 -0.7 C 0 km/h
943 16-02-2010 10:06:34 -0.6 C 3.35 g/m*3 -0.6 C 0 km/h
944 16-02-2010 10:31:34 0.1 C 3.42 g/m*3 0.1 C 0 km/h
945 16-02-2010 10:56:34 -0.1 C 3.27 g/m*3 -0.1 C 0 km/h
946 16-02-2010 11:21:34 0.3 C 3.31 g/m*3 0.3 C 0 km/h
947 16-02-2010 11:46:35 0.4 C 3.19 g/m*3 0.4 C 0 km/h
948 16-02-2010 12:11:35 1.2 C 3.31 g/m*3 1.2 C 0 km/h
949 16-02-2010 12:36:35 2.4 C 2.91 g/m*3 2.4 C 0 km/h
950 16-02-2010 13:01:35 2.8 C 2.76 g/m*3 2.8 C 0 km/h
Sensor: Nr:Datum:Temp:Abs-Feuchte:Windchill:Wind:
Aussen-T/F 951 16-02-2010 13:26:35 2.9 C 2.6 g/m*3 2.9 C 0 km/h
952 16-02-2010 13:51:35 2.8 C 2.7 g/m*3 2.8 C 0 km/h
953 16-02-2010 14:16:35 3.5 C 2.64 g/m*3 3.5 C 0 km/h
954 16-02-2010 14:41:35 3.4 C 2.57 g/m*3 3.4 C 0 km/h
955 16-02-2010 15:06:35 3.2 C 2.53 g/m*3 3.2 C 0 km/h
956 16-02-2010 15:31:35 3.9 C 2.4 g/m*3 3.9 C 0 km/h
957 16-02-2010 15:56:35 4.5 C 2.43 g/m*3 4.5 C 0 km/h
958 16-02-2010 16:21:35 4.4 C 2.42 g/m*3 4.4 C 0 km/h
959 16-02-2010 16:46:35 4.1 C 2.43 g/m*3 4.1 C 0 km/h
960 16-02-2010 17:11:35 2.8 C 2.58 g/m*3 2.8 C 0 km/h
961 16-02-2010 17:36:35 1.1 C 2.61 g/m*3 1.1 C 0 km/h
962 16-02-2010 18:01:35 -0.2 C 2.63 g/m*3 -0.2 C 0 km/h
963 16-02-2010 18:26:35 -1.4 C 2.73 g/m*3 -1.4 C 0 km/h
964 16-02-2010 18:51:35 -2 C 2.74 g/m*3 -2 C 0 km/h
965 16-02-2010 19:16:35 -2.5 C 2.73 g/m*3 -2.5 C 0 km/h
966 16-02-2010 19:41:35 -2.7 C 2.77 g/m*3 -2.7 C 0 km/h
967 16-02-2010 20:06:36 -3 C 2.75 g/m*3 -3 C 0 km/h
968 16-02-2010 20:31:36 -3.2 C 2.75 g/m*3 -3.2 C 0 km/h
969 16-02-2010 20:56:36 -3.6 C 2.67 g/m*3 -3.6 C 0 km/h
970 16-02-2010 21:21:36 -3.8 C 2.67 g/m*3 -3.8 C 0 km/h
971 16-02-2010 21:46:36 -4.1 C 2.62 g/m*3 -4.1 C 0 km/h
972 16-02-2010 22:11:36 -4.2 C 2.63 g/m*3 -4.2 C 0 km/h
973 16-02-2010 22:36:36 -4.5 C 2.58 g/m*3 -4.5 C 0 km/h
974 16-02-2010 23:01:36 -4.7 C 2.54 g/m*3 -4.7 C 0 km/h
975 16-02-2010 23:26:36 -4.9 C 2.5 g/m*3 -4.9 C 0 km/h
Sensor: Nr:Datum:Temp:Abs-Feuchte:Windchill:Wind:
Aussen-T/F 976 16-02-2010 23:51:36 -5.1 C 2.47 g/m*3 -5.1 C 0 km/h
977 17-02-2010 00:16:36 -5.4 C 2.41 g/m*3 -5.4 C 0 km/h
978 17-02-2010 00:41:36 -5.7 C 2.36 g/m*3 -5.7 C 0 km/h
979 17-02-2010 01:06:36 -6 C 2.34 g/m*3 -6 C 0 km/h
980 17-02-2010 01:31:36 -6.2 C 2.31 g/m*3 -6.2 C 0 km/h
981 17-02-2010 01:56:36 -6.5 C 2.26 g/m*3 -6.5 C 0 km/h
982 17-02-2010 02:21:36 -6.6 C 2.27 g/m*3 -6.6 C 0 km/h
983 17-02-2010 02:46:36 -6.8 C 2.24 g/m*3 -6.8 C 0 km/h
984 17-02-2010 03:11:36 -6.9 C 2.22 g/m*3 -6.9 C 0 km/h
985 17-02-2010 03:36:36 -6.2 C 2.37 g/m*3 -6.2 C 0 km/h
986 17-02-2010 04:01:36 -5.8 C 2.44 g/m*3 -5.8 C 0 km/h
987 17-02-2010 04:26:36 -5.5 C 2.5 g/m*3 -5.5 C 0 km/h
988 17-02-2010 04:51:37 -5.3 C 2.5 g/m*3 -5.3 C 0 km/h
989 17-02-2010 05:16:37 -5.2 C 2.48 g/m*3 -5.2 C 0 km/h
990 17-02-2010 05:41:37 -4.9 C 2.54 g/m*3 -4.9 C 0 km/h
991 17-02-2010 06:06:37 -4.9 C 2.54 g/m*3 -4.9 C 0 km/h
992 17-02-2010 06:31:37 -4.7 C 2.57 g/m*3 -4.7 C 0 km/h
993 17-02-2010 06:56:37 -4.5 C 2.61 g/m*3 -4.5 C 0 km/h
994 17-02-2010 07:21:37 -4.4 C 2.6 g/m*3 -4.4 C 0 km/h
995 17-02-2010 07:46:37 -4.1 C 2.62 g/m*3 -4.1 C 0 km/h
996 17-02-2010 08:11:37 -3.8 C 2.67 g/m*3 -3.8 C 0 km/h
997 17-02-2010 08:36:37 -3.4 C 2.71 g/m*3 -3.4 C 0 km/h
998 17-02-2010 09:01:37 -3.1 C 2.65 g/m*3 -3.1 C 0 km/h
999 17-02-2010 09:26:37 -2.9 C 2.49 g/m*3 -2.9 C 0 km/h
1000 17-02-2010 09:51:37 -2.7 C 2.53 g/m*3 -2.7 C 0 km/h
Sensor: Nr:Datum:Temp:Abs-Feuchte:Windchill:Wind:
Aussen-T/F 1001 17-02-2010 10:16:37 -2.7 C 2.53 g/m*3 -2.7 C 0 km/h
1002 17-02-2010 10:41:37 -2.2 C 2.54 g/m*3 -2.2 C 0 km/h
1003 17-02-2010 11:06:37 -1.4 C 2.73 g/m*3 -1.4 C 0 km/h
1004 17-02-2010 11:31:37 -0.6 C 2.79 g/m*3 -0.6 C 0 km/h
1005 17-02-2010 11:56:37 1 C 2.91 g/m*3 1 C 0 km/h
1006 17-02-2010 12:21:37 2.7 C 2.8 g/m*3 2.7 C 0 km/h
1007 17-02-2010 12:46:37 3.5 C 2.71 g/m*3 3.5 C 0 km/h
1008 17-02-2010 13:11:38 2.9 C 2.72 g/m*3 2.9 C 0 km/h
1009 17-02-2010 13:36:38 2.8 C 2.7 g/m*3 2.8 C 0 km/h
1010 17-02-2010 14:01:38 2.7 C 2.97 g/m*3 2.7 C 0 km/h
1011 17-02-2010 14:26:38 2.1 C 3.3 g/m*3 2.1 C 0 km/h
1012 17-02-2010 14:51:38 2.1 C 3.58 g/m*3 2.1 C 0 km/h
1013 17-02-2010 15:16:38 1.3 C 3.81 g/m*3 1.3 C 0 km/h
1014 17-02-2010 15:41:38 1.2 C 4 g/m*3 1.2 C 0 km/h
1015 17-02-2010 16:06:38 1.3 C 4.13 g/m*3 1.3 C 0 km/h
1016 17-02-2010 16:31:38 1 C 4.15 g/m*3 1 C 0 km/h
1017 17-02-2010 16:56:38 0.9 C 4.23 g/m*3 0.9 C 0 km/h
1018 17-02-2010 17:21:38 0.7 C 4.17 g/m*3 0.7 C 0 km/h
1019 17-02-2010 17:46:38 0.6 C 4.19 g/m*3 0.6 C 0 km/h
1020 17-02-2010 18:11:38 0.5 C 4.21 g/m*3 0.5 C 0 km/h
1021 17-02-2010 18:36:38 0.5 C 4.31 g/m*3 0.5 C 0 km/h
1022 17-02-2010 19:01:38 0.5 C 4.36 g/m*3 0.5 C 0 km/h
1023 17-02-2010 19:26:38 0.5 C 4.36 g/m*3 0.5 C 0 km/h
1024 17-02-2010 19:51:38 0.5 C 4.41 g/m*3 0.5 C 0 km/h
1025 17-02-2010 20:16:38 0.7 C 4.53 g/m*3 0.7 C 0 km/h
Sensor: Nr:Datum:Temp:Abs-Feuchte:Windchill:Wind:
Aussen-T/F 1026 17-02-2010 20:41:38 0.7 C 4.53 g/m*3 0.7 C 0 km/h
1027 17-02-2010 21:06:38 0.7 C 4.53 g/m*3 0.7 C 0 km/h
1028 17-02-2010 21:31:38 0.8 C 4.51 g/m*3 0.8 C 0 km/h
1029 17-02-2010 21:56:39 0.8 C 4.56 g/m*3 0.8 C 0 km/h
1030 17-02-2010 22:21:39 0.8 C 4.51 g/m*3 0.8 C 0 km/h
1031 17-02-2010 22:46:39 0.8 C 4.51 g/m*3 0.8 C 0 km/h
1032 17-02-2010 23:11:39 0.8 C 4.51 g/m*3 0.8 C 0 km/h
1033 17-02-2010 23:36:39 0.8 C 4.51 g/m*3 0.8 C 0 km/h
1034 18-02-2010 00:01:39 0.8 C 4.51 g/m*3 0.8 C 0 km/h
1035 18-02-2010 00:26:39 0.9 C 4.54 g/m*3 0.9 C 0 km/h
1036 18-02-2010 00:51:39 0.9 C 4.54 g/m*3 0.9 C 0 km/h
1037 18-02-2010 01:16:39 1 C 4.57 g/m*3 1 C 0 km/h
1038 18-02-2010 01:41:39 1 C 4.57 g/m*3 1 C 0 km/h
1039 18-02-2010 02:06:39 1 C 4.57 g/m*3 1 C 0 km/h
1040 18-02-2010 02:31:39 1.2 C 4.63 g/m*3 1.2 C 0 km/h
1041 18-02-2010 02:56:39 1 C 4.57 g/m*3 1 C 0 km/h
1042 18-02-2010 03:21:39 1.2 C 4.63 g/m*3 1.2 C 0 km/h
1043 18-02-2010 03:46:39 1 C 4.57 g/m*3 1 C 0 km/h
1044 18-02-2010 04:11:39 1 C 4.62 g/m*3 1 C 0 km/h
1045 18-02-2010 04:36:39 1 C 4.62 g/m*3 1 C 0 km/h
1046 18-02-2010 05:01:39 1.2 C 4.68 g/m*3 1.2 C 0 km/h
1047 18-02-2010 05:26:39 1 C 4.62 g/m*3 1 C 0 km/h
1048 18-02-2010 05:51:39 1.1 C 4.65 g/m*3 1.1 C 0 km/h
1049 18-02-2010 06:16:40 1.1 C 4.65 g/m*3 1.1 C 0 km/h
1050 18-02-2010 06:41:40 1.2 C 4.74 g/m*3 1.2 C 0 km/h
Sensor: Nr:Datum:Temp:Abs-Feuchte:Windchill:Wind:
Aussen-T/F 1051 18-02-2010 07:06:40 1.1 C 4.7 g/m*3 1.1 C 0 km/h
1052 18-02-2010 07:31:40 1.1 C 4.7 g/m*3 1.1 C 0 km/h
1053 18-02-2010 07:56:40 1.1 C 4.7 g/m*3 1.1 C 0 km/h
1054 18-02-2010 08:21:40 1.1 C 4.76 g/m*3 1.1 C 0 km/h
1055 18-02-2010 08:46:40 1.4 C 4.85 g/m*3 1.4 C 0 km/h
1056 18-02-2010 09:11:40 1.7 C 5.01 g/m*3 1.7 C 0 km/h
1057 18-02-2010 09:36:40 2 C 5.06 g/m*3 2 C 0 km/h
1058 18-02-2010 10:01:40 2.6 C 5.32 g/m*3 2.6 C 0 km/h
1059 18-02-2010 10:26:40 3.6 C 5.63 g/m*3 3.6 C 0 km/h
1060 18-02-2010 10:51:40 3.8 C 5.58 g/m*3 3.8 C 0 km/h
1061 18-02-2010 11:16:40 4.1 C 5.25 g/m*3 4.1 C 0 km/h
1062 18-02-2010 11:41:40 4.4 C 5.03 g/m*3 4.4 C 0 km/h
1063 18-02-2010 12:06:40 4.7 C 4.86 g/m*3 4.7 C 0 km/h
1064 18-02-2010 12:31:40 5.1 C 4.65 g/m*3 5.1 C 0 km/h
1065 18-02-2010 12:56:40 5.8 C 4.58 g/m*3 5.8 C 0 km/h
1066 18-02-2010 13:21:40 6.8 C 4.36 g/m*3 6.8 C 0 km/h
1067 18-02-2010 13:46:40 7.4 C 4.14 g/m*3 7.4 C 0 km/h
1068 18-02-2010 14:11:40 8 C 4.13 g/m*3 8 C 0 km/h
1069 18-02-2010 14:36:41 8.5 C 4.1 g/m*3 8.5 C 0 km/h
1070 18-02-2010 15:01:41 9.1 C 3.73 g/m*3 9.1 C 0 km/h
1071 18-02-2010 15:26:41 9.5 C 3.64 g/m*3 9.5 C 0 km/h
1072 18-02-2010 15:51:41 10.1 C 3.59 g/m*3 10.1 C 0 km/h
1073 18-02-2010 16:16:41 9.6 C 3.57 g/m*3 9.6 C 0 km/h
1074 18-02-2010 16:41:41 9.3 C 3.59 g/m*3 9.3 C 0 km/h
1075 18-02-2010 17:06:41 7.5 C 3.36 g/m*3 7.5 C 0 km/h
Sensor: Nr:Datum:Temp:Abs-Feuchte:Windchill:Wind:
Aussen-T/F 1076 18-02-2010 17:31:41 6.3 C 3.55 g/m*3 6.3 C 0 km/h
1077 18-02-2010 17:56:41 5.6 C 3.68 g/m*3 5.6 C 0 km/h
1078 18-02-2010 18:21:41 4 C 3.88 g/m*3 4 C 0 km/h
1079 18-02-2010 18:46:41 3.2 C 3.98 g/m*3 3.2 C 0 km/h
1080 18-02-2010 19:11:41 2.6 C 4.11 g/m*3 2.6 C 0 km/h
1081 18-02-2010 19:36:41 2.5 C 4.2 g/m*3 2.5 C 0 km/h
1082 18-02-2010 20:01:41 2.1 C 4.08 g/m*3 2.1 C 0 km/h
1083 18-02-2010 20:26:41 2 C 4.17 g/m*3 2 C 0 km/h
1084 18-02-2010 20:51:41 1.6 C 4.16 g/m*3 1.6 C 0 km/h
1085 18-02-2010 21:16:41 1.4 C 4.21 g/m*3 1.4 C 0 km/h
1086 18-02-2010 21:41:41 1.4 C 4.21 g/m*3 1.4 C 0 km/h
1087 18-02-2010 22:06:41 1.7 C 4.3 g/m*3 1.7 C 0 km/h
1088 18-02-2010 22:31:41 2 C 4.33 g/m*3 2 C 0 km/h
1089 18-02-2010 22:56:42 1.9 C 4.36 g/m*3 1.9 C 0 km/h
1090 18-02-2010 23:21:42 1.7 C 4.3 g/m*3 1.7 C 0 km/h
1091 18-02-2010 23:46:42 1.9 C 4.53 g/m*3 1.9 C 0 km/h
1092 19-02-2010 00:11:42 2.1 C 4.59 g/m*3 2.1 C 0 km/h
1093 19-02-2010 00:36:42 1.8 C 4.55 g/m*3 1.8 C 0 km/h
1094 19-02-2010 01:01:42 2 C 4.67 g/m*3 2 C 0 km/h
1095 19-02-2010 01:26:42 2 C 4.67 g/m*3 2 C 0 km/h
1096 19-02-2010 01:51:42 2.1 C 4.76 g/m*3 2.1 C 0 km/h
1097 19-02-2010 02:16:42 2.1 C 4.7 g/m*3 2.1 C 0 km/h
1098 19-02-2010 02:41:42 2 C 4.67 g/m*3 2 C 0 km/h
1099 19-02-2010 03:06:42 1.8 C 4.66 g/m*3 1.8 C 0 km/h
1100 19-02-2010 03:31:42 1.8 C 4.71 g/m*3 1.8 C 0 km/h
Sensor: Nr:Datum:Temp:Abs-Feuchte:Windchill:Wind:
Aussen-T/F 1101 19-02-2010 03:56:42 1.6 C 4.7 g/m*3 1.6 C 0 km/h
1102 19-02-2010 04:21:42 1.6 C 4.7 g/m*3 1.6 C 0 km/h
1103 19-02-2010 04:46:42 1.6 C 4.7 g/m*3 1.6 C 0 km/h
1104 19-02-2010 05:11:42 1.7 C 4.79 g/m*3 1.7 C 0 km/h
1105 19-02-2010 05:36:42 1.8 C 4.77 g/m*3 1.8 C 0 km/h
1106 19-02-2010 06:01:42 1.9 C 4.8 g/m*3 1.9 C 0 km/h
1107 19-02-2010 06:26:42 2.1 C 4.76 g/m*3 2.1 C 0 km/h
1108 19-02-2010 06:51:42 2 C 4.67 g/m*3 2 C 0 km/h
1109 19-02-2010 07:16:42 1.7 C 4.63 g/m*3 1.7 C 0 km/h
1110 19-02-2010 07:41:43 1.5 C 4.57 g/m*3 1.5 C 0 km/h
1111 19-02-2010 08:06:43 1.5 C 4.62 g/m*3 1.5 C 0 km/h
1112 19-02-2010 08:31:43 1.6 C 4.65 g/m*3 1.6 C 0 km/h
1113 19-02-2010 08:56:43 2.1 C 4.81 g/m*3 2.1 C 0 km/h
1114 19-02-2010 09:21:43 2.5 C 4.83 g/m*3 2.5 C 0 km/h
1115 19-02-2010 09:46:43 3.1 C 4.91 g/m*3 3.1 C 0 km/h
1116 19-02-2010 10:11:43 3.7 C 5.05 g/m*3 3.7 C 0 km/h
1117 19-02-2010 10:36:02 4.6 C 5.1 g/m*3 4.6 C 0 km/h
1118 19-02-2010 11:01:02 5.3 C 5.06 g/m*3 5.3 C 0 km/h
1119 19-02-2010 11:26:01 6 C 4.79 g/m*3 6 C 0 km/h
1120 19-02-2010 11:51:02 6.5 C 4.72 g/m*3 6.5 C 0 km/h
1121 19-02-2010 12:16:02 7 C 4.49 g/m*3 7 C 0 km/h
1122 19-02-2010 12:41:02 7.6 C 4.27 g/m*3 7.6 C 0 km/h
1123 19-02-2010 13:06:02 7.6 C 4.11 g/m*3 7.6 C 0 km/h
1124 19-02-2010 13:31:02 7.7 C 4.05 g/m*3 7.7 C 0 km/h
1125 19-02-2010 13:56:02 7.6 C 3.95 g/m*3 7.6 C 0 km/h
Sensor: Nr:Datum:Temp:Abs-Feuchte:Windchill:Wind:
Aussen-T/F 1126 19-02-2010 14:21:01 7.5 C 4 g/m*3 7.5 C 0 km/h
1127 19-02-2010 14:46:02 7.5 C 3.92 g/m*3 7.5 C 0 km/h
1128 19-02-2010 15:11:03 7.8 C 3.67 g/m*3 7.8 C 0 km/h
1129 19-02-2010 15:36:02 7.2 C 3.53 g/m*3 7.2 C 0 km/h
1130 19-02-2010 16:01:02 6.3 C 3.33 g/m*3 6.3 C 0 km/h
1131 19-02-2010 16:26:01 6.1 C 3.29 g/m*3 6.1 C 0 km/h
1132 19-02-2010 16:51:01 5.5 C 3.23 g/m*3 5.5 C 0 km/h
1133 19-02-2010 17:16:02 5 C 3.06 g/m*3 5 C 0 km/h
1134 19-02-2010 17:41:02 5.1 C 3.01 g/m*3 5.1 C 0 km/h
1135 19-02-2010 18:06:02 4.5 C 3.02 g/m*3 4.5 C 0 km/h
1136 19-02-2010 18:31:02 4.1 C 3.07 g/m*3 4.1 C 0 km/h
1137 19-02-2010 18:56:01 3.7 C 3.18 g/m*3 3.7 C 0 km/h
1138 19-02-2010 19:21:01 3.6 C 3.22 g/m*3 3.6 C 0 km/h
1139 19-02-2010 19:46:02 3.6 C 3.28 g/m*3 3.6 C 0 km/h
1140 19-02-2010 20:11:02 3.3 C 3.34 g/m*3 3.3 C 0 km/h
1141 19-02-2010 20:36:02 3.3 C 3.46 g/m*3 3.3 C 0 km/h
1142 19-02-2010 21:14:02 3.3 C 3.52 g/m*3 3.3 C 0 km/h
1143 19-02-2010 21:26:02 3.2 C 3.56 g/m*3 3.2 C 0 km/h
1144 19-02-2010 21:38:01 3.2 C 3.5 g/m*3 3.2 C 0 km/h
1145 19-02-2010 21:50:01 3.1 C 3.53 g/m*3 3.1 C 0 km/h
1146 19-02-2010 22:02:02 2.8 C 3.52 g/m*3 2.8 C 0 km/h
1147 19-02-2010 22:14:02 2.6 C 3.53 g/m*3 2.6 C 0 km/h
1148 19-02-2010 22:26:01 2.6 C 3.47 g/m*3 2.6 C 0 km/h
1149 19-02-2010 22:38:02 2.4 C 3.43 g/m*3 2.4 C 0 km/h
1150 19-02-2010 22:50:01 2.2 C 3.38 g/m*3 2.2 C 0 km/h
Sensor: Nr:Datum:Temp:Abs-Feuchte:Windchill:Wind:
Aussen-T/F 1151 19-02-2010 23:02:02 2.1 C 3.36 g/m*3 2.1 C 0 km/h
1152 19-02-2010 23:14:02 2.5 C 3.22 g/m*3 2.5 C 0 km/h
1153 19-02-2010 23:26:01 2.5 C 3.16 g/m*3 2.5 C 0 km/h
1154 19-02-2010 23:38:02 2.2 C 3.21 g/m*3 2.2 C 0 km/h
1155 19-02-2010 23:50:01 1.6 C 3.24 g/m*3 1.6 C 0 km/h
1156 20-02-2010 00:02:02 1.5 C 3.33 g/m*3 1.5 C 0 km/h
1157 20-02-2010 00:14:02 1.4 C 3.31 g/m*3 1.4 C 0 km/h
1158 20-02-2010 00:26:02 1.2 C 3.37 g/m*3 1.2 C 0 km/h
1159 20-02-2010 00:38:01 1.1 C 3.4 g/m*3 1.1 C 0 km/h
1160 20-02-2010 00:50:02 0.7 C 3.41 g/m*3 0.7 C 0 km/h
1161 20-02-2010 01:02:01 0.4 C 3.39 g/m*3 0.4 C 0 km/h
1162 20-02-2010 01:14:01 0.1 C 3.42 g/m*3 0.1 C 0 km/h
1163 20-02-2010 01:26:01 -0.1 C 3.46 g/m*3 -0.1 C 0 km/h
1164 20-02-2010 01:38:02 -0.1 C 3.51 g/m*3 -0.1 C 0 km/h
1165 20-02-2010 01:50:02 -0.1 C 3.56 g/m*3 -0.1 C 0 km/h
1166 20-02-2010 02:02:02 -0.2 C 3.58 g/m*3 -0.2 C 0 km/h
1167 20-02-2010 02:14:02 -0.3 C 3.56 g/m*3 -0.3 C 0 km/h
1168 20-02-2010 02:26:02 -0.3 C 3.61 g/m*3 -0.3 C 0 km/h
1169 20-02-2010 02:38:02 -0.4 C 3.58 g/m*3 -0.4 C 0 km/h
1170 20-02-2010 02:50:01 -0.4 C 3.58 g/m*3 -0.4 C 0 km/h
1171 20-02-2010 03:02:01 -0.4 C 3.58 g/m*3 -0.4 C 0 km/h
1172 20-02-2010 03:14:01 -0.7 C 3.46 g/m*3 -0.7 C 0 km/h
1173 20-02-2010 03:26:01 -0.7 C 3.51 g/m*3 -0.7 C 0 km/h
1174 20-02-2010 03:38:02 -0.8 C 3.48 g/m*3 -0.8 C 0 km/h
1175 20-02-2010 03:50:02 -1 C 3.44 g/m*3 -1 C 0 km/h
Sensor: Nr:Datum:Temp:Abs-Feuchte:Windchill:Wind:
Aussen-T/F 1176 20-02-2010 04:02:01 -0.9 C 3.51 g/m*3 -0.9 C 0 km/h
1177 20-02-2010 04:14:01 -0.7 C 3.55 g/m*3 -0.7 C 0 km/h
1178 20-02-2010 04:26:01 -0.7 C 3.51 g/m*3 -0.7 C 0 km/h
1179 20-02-2010 04:38:02 -0.4 C 3.58 g/m*3 -0.4 C 0 km/h
1180 20-02-2010 04:50:01 -0.2 C 3.58 g/m*3 -0.2 C 0 km/h
1181 20-02-2010 05:02:01 -0.1 C 3.61 g/m*3 -0.1 C 0 km/h
1182 20-02-2010 05:14:01 -0.2 C 3.54 g/m*3 -0.2 C 0 km/h
1183 20-02-2010 05:26:01 -0.2 C 3.58 g/m*3 -0.2 C 0 km/h
1184 20-02-2010 05:38:02 -0.2 C 3.58 g/m*3 -0.2 C 0 km/h
1185 20-02-2010 05:50:01 0 C 3.63 g/m*3 0 C 0 km/h
1186 20-02-2010 06:02:02 -0.2 C 3.58 g/m*3 -0.2 C 0 km/h
1187 20-02-2010 06:14:02 0.1 C 3.71 g/m*3 0.1 C 0 km/h
1188 20-02-2010 06:26:01 0.4 C 3.79 g/m*3 0.4 C 0 km/h
1189 20-02-2010 06:38:01 0.3 C 3.76 g/m*3 0.3 C 0 km/h
1190 20-02-2010 06:50:01 0 C 3.68 g/m*3 0 C 0 km/h
1191 20-02-2010 07:02:01 -0.2 C 3.68 g/m*3 -0.2 C 0 km/h
1192 20-02-2010 07:14:02 -0.5 C 3.65 g/m*3 -0.5 C 0 km/h
1193 20-02-2010 07:26:01 -0.6 C 3.67 g/m*3 -0.6 C 0 km/h
1194 20-02-2010 07:38:01 -0.6 C 3.72 g/m*3 -0.6 C 0 km/h
1195 20-02-2010 07:50:01 -0.6 C 3.76 g/m*3 -0.6 C 0 km/h
1196 20-02-2010 08:02:02 -0.2 C 3.92 g/m*3 -0.2 C 0 km/h
1197 20-02-2010 08:14:02 0.1 C 3.95 g/m*3 0.1 C 0 km/h
1198 20-02-2010 08:26:01 0.4 C 3.98 g/m*3 0.4 C 0 km/h
1199 20-02-2010 08:38:01 0.7 C 3.97 g/m*3 0.7 C 0 km/h
1200 20-02-2010 08:50:01 1 C 3.94 g/m*3 1 C 0 km/h
Sensor: Nr:Datum:Temp:Abs-Feuchte:Windchill:Wind:
Aussen-T/F 1201 20-02-2010 09:02:02 1.2 C 3.95 g/m*3 1.2 C 0 km/h
1202 20-02-2010 09:14:02 1.4 C 3.89 g/m*3 1.4 C 0 km/h
1203 20-02-2010 09:26:01 1.5 C 3.87 g/m*3 1.5 C 0 km/h
1204 20-02-2010 09:38:01 1.2 C 3.79 g/m*3 1.2 C 0 km/h
1205 20-02-2010 09:50:01 1.2 C 3.74 g/m*3 1.2 C 0 km/h
1206 20-02-2010 10:02:01 1.3 C 3.76 g/m*3 1.3 C 0 km/h
1207 20-02-2010 10:14:01 1.4 C 3.73 g/m*3 1.4 C 0 km/h
1208 20-02-2010 10:26:01 1.5 C 3.71 g/m*3 1.5 C 0 km/h
1209 20-02-2010 10:38:01 1.7 C 3.76 g/m*3 1.7 C 0 km/h
1210 20-02-2010 10:50:01 1.8 C 3.73 g/m*3 1.8 C 0 km/h
1211 20-02-2010 11:02:01 2.1 C 3.75 g/m*3 2.1 C 0 km/h
1212 20-02-2010 11:14:01 3 C 3.63 g/m*3 3 C 0 km/h
1213 20-02-2010 11:26:01 3.3 C 3.58 g/m*3 3.3 C 0 km/h
1214 20-02-2010 11:38:01 3.7 C 3.61 g/m*3 3.7 C 0 km/h
1215 20-02-2010 11:50:01 4.1 C 3.46 g/m*3 4.1 C 0 km/h
1216 20-02-2010 12:02:01 4.1 C 3.33 g/m*3 4.1 C 0 km/h
1217 20-02-2010 12:14:01 3.9 C 3.47 g/m*3 3.9 C 0 km/h
1218 20-02-2010 12:26:02 4.1 C 3.39 g/m*3 4.1 C 0 km/h
1219 20-02-2010 12:38:01 3.8 C 3.45 g/m*3 3.8 C 0 km/h
1220 20-02-2010 12:50:01 4.2 C 3.41 g/m*3 4.2 C 0 km/h
1221 20-02-2010 13:02:01 4.2 C 3.22 g/m*3 4.2 C 0 km/h
1222 20-02-2010 13:14:01 4.3 C 3.18 g/m*3 4.3 C 0 km/h
1223 20-02-2010 13:26:02 4.5 C 3.22 g/m*3 4.5 C 0 km/h
1224 20-02-2010 13:38:01 4.5 C 3.16 g/m*3 4.5 C 0 km/h
1225 20-02-2010 13:50:02 4.3 C 3.11 g/m*3 4.3 C 0 km/h
Sensor: Nr:Datum:Temp:Abs-Feuchte:Windchill:Wind:
Aussen-T/F 1226 20-02-2010 14:02:01 4.2 C 3.22 g/m*3 4.2 C 0 km/h
1227 20-02-2010 14:14:01 4.5 C 3.22 g/m*3 4.5 C 0 km/h
1228 20-02-2010 14:26:02 4.9 C 3.24 g/m*3 4.9 C 0 km/h
1229 20-02-2010 14:38:01 4.7 C 3.2 g/m*3 4.7 C 0 km/h
1230 20-02-2010 14:50:01 4.5 C 3.22 g/m*3 4.5 C 0 km/h
1231 20-02-2010 15:02:01 4.4 C 3.2 g/m*3 4.4 C 0 km/h
1232 20-02-2010 15:14:01 4.8 C 3.22 g/m*3 4.8 C 0 km/h
1233 20-02-2010 15:26:02 4.9 C 3.17 g/m*3 4.9 C 0 km/h
1234 20-02-2010 15:38:01 5.1 C 3.15 g/m*3 5.1 C 0 km/h
1235 20-02-2010 15:50:02 5.1 C 3.08 g/m*3 5.1 C 0 km/h
1236 20-02-2010 16:02:01 5 C 3.06 g/m*3 5 C 0 km/h
1237 20-02-2010 16:14:01 4.9 C 3.11 g/m*3 4.9 C 0 km/h
1238 20-02-2010 16:26:02 5 C 3.06 g/m*3 5 C 0 km/h
1239 20-02-2010 16:38:01 5.2 C 3.1 g/m*3 5.2 C 0 km/h
1240 20-02-2010 16:50:02 4.9 C 3.04 g/m*3 4.9 C 0 km/h
1241 20-02-2010 17:02:01 4.5 C 3.09 g/m*3 4.5 C 0 km/h
1242 20-02-2010 17:14:01 4.9 C 3.11 g/m*3 4.9 C 0 km/h
1243 20-02-2010 17:26:01 4.8 C 3.08 g/m*3 4.8 C 0 km/h
1244 20-02-2010 17:38:01 4.2 C 3.16 g/m*3 4.2 C 0 km/h
1245 20-02-2010 17:50:02 3.6 C 3.47 g/m*3 3.6 C 0 km/h
1246 20-02-2010 18:02:01 2.9 C 3.54 g/m*3 2.9 C 0 km/h
1247 20-02-2010 18:14:01 2.5 C 3.56 g/m*3 2.5 C 0 km/h
1248 20-02-2010 18:26:02 2.5 C 3.56 g/m*3 2.5 C 0 km/h
1249 20-02-2010 18:38:01 2.7 C 3.55 g/m*3 2.7 C 0 km/h
1250 20-02-2010 18:50:02 2.6 C 3.47 g/m*3 2.6 C 0 km/h
Sensor: Nr:Datum:Temp:Abs-Feuchte:Windchill:Wind:
Aussen-T/F 1251 20-02-2010 19:02:01 2.2 C 3.44 g/m*3 2.2 C 0 km/h
1252 20-02-2010 19:14:01 2 C 3.45 g/m*3 2 C 0 km/h
1253 20-02-2010 19:26:01 1.8 C 3.45 g/m*3 1.8 C 0 km/h
1254 20-02-2010 19:38:02 2 C 3.45 g/m*3 2 C 0 km/h
1255 20-02-2010 19:50:01 1.5 C 3.44 g/m*3 1.5 C 0 km/h
1256 20-02-2010 20:02:01 1.3 C 3.44 g/m*3 1.3 C 0 km/h
1257 20-02-2010 20:14:01 0.9 C 3.45 g/m*3 0.9 C 0 km/h
1258 20-02-2010 20:26:01 0.8 C 3.48 g/m*3 0.8 C 0 km/h
1259 20-02-2010 20:38:02 0.6 C 3.43 g/m*3 0.6 C 0 km/h
1260 20-02-2010 20:50:01 0.7 C 3.41 g/m*3 0.7 C 0 km/h
1261 20-02-2010 21:02:02 0.7 C 3.41 g/m*3 0.7 C 0 km/h
1262 20-02-2010 21:14:02 0.8 C 3.33 g/m*3 0.8 C 0 km/h
1263 20-02-2010 21:26:01 0.8 C 3.28 g/m*3 0.8 C 0 km/h
1264 20-02-2010 21:38:02 0.7 C 3.3 g/m*3 0.7 C 0 km/h
1265 20-02-2010 21:50:01 1 C 3.32 g/m*3 1 C 0 km/h
1266 20-02-2010 22:02:02 1.1 C 3.34 g/m*3 1.1 C 0 km/h
1267 20-02-2010 22:14:02 0.9 C 3.35 g/m*3 0.9 C 0 km/h
1268 20-02-2010 22:26:01 0.7 C 3.36 g/m*3 0.7 C 0 km/h
1269 20-02-2010 22:38:02 0.4 C 3.34 g/m*3 0.4 C 0 km/h
1270 20-02-2010 22:50:01 0.4 C 3.39 g/m*3 0.4 C 0 km/h
1271 20-02-2010 23:02:02 0.5 C 3.41 g/m*3 0.5 C 0 km/h
1272 20-02-2010 23:14:02 0.6 C 3.48 g/m*3 0.6 C 0 km/h
1273 20-02-2010 23:26:01 0.9 C 3.56 g/m*3 0.9 C 0 km/h
1274 20-02-2010 23:38:01 1.4 C 3.63 g/m*3 1.4 C 0 km/h
1275 20-02-2010 23:50:01 1.5 C 3.6 g/m*3 1.5 C 0 km/h
Sensor: Nr:Datum:Temp:Abs-Feuchte:Windchill:Wind:
Aussen-T/F 1276 21-02-2010 00:02:01 1.6 C 3.62 g/m*3 1.6 C 0 km/h
1277 21-02-2010 00:14:01 1.8 C 3.67 g/m*3 1.8 C 0 km/h
1278 21-02-2010 00:26:01 2.1 C 3.64 g/m*3 2.1 C 0 km/h
1279 21-02-2010 00:38:02 2.2 C 3.66 g/m*3 2.2 C 0 km/h
1280 21-02-2010 00:50:01 2.1 C 3.64 g/m*3 2.1 C 0 km/h
1281 21-02-2010 01:02:02 2.1 C 3.64 g/m*3 2.1 C 0 km/h
1282 21-02-2010 01:14:02 2 C 3.61 g/m*3 2 C 0 km/h
1283 21-02-2010 01:26:01 1.7 C 3.59 g/m*3 1.7 C 0 km/h
1284 21-02-2010 01:38:02 1.7 C 3.59 g/m*3 1.7 C 0 km/h
1285 21-02-2010 01:50:01 1.7 C 3.54 g/m*3 1.7 C 0 km/h
1286 21-02-2010 02:02:02 1.6 C 3.57 g/m*3 1.6 C 0 km/h
1287 21-02-2010 02:14:02 1.6 C 3.57 g/m*3 1.6 C 0 km/h
1288 21-02-2010 02:26:01 1.7 C 3.59 g/m*3 1.7 C 0 km/h
1289 21-02-2010 02:38:01 1.8 C 3.62 g/m*3 1.8 C 0 km/h
1290 21-02-2010 02:50:01 1.7 C 3.7 g/m*3 1.7 C 0 km/h
1291 21-02-2010 03:02:01 1.5 C 3.81 g/m*3 1.5 C 0 km/h
1292 21-02-2010 03:14:02 1.3 C 3.87 g/m*3 1.3 C 0 km/h
1293 21-02-2010 03:26:02 1 C 3.89 g/m*3 1 C 0 km/h
1294 21-02-2010 03:38:01 0.6 C 3.89 g/m*3 0.6 C 0 km/h
1295 21-02-2010 03:50:01 0.4 C 3.93 g/m*3 0.4 C 0 km/h
1296 21-02-2010 04:02:02 0.4 C 3.98 g/m*3 0.4 C 0 km/h
1297 21-02-2010 04:14:02 0.4 C 4.08 g/m*3 0.4 C 0 km/h
1298 21-02-2010 04:26:01 0.3 C 4.11 g/m*3 0.3 C 0 km/h
1299 21-02-2010 04:38:01 0.4 C 4.18 g/m*3 0.4 C 0 km/h
1300 21-02-2010 04:50:01 0.4 C 4.23 g/m*3 0.4 C 0 km/h
Sensor: Nr:Datum:Temp:Abs-Feuchte:Windchill:Wind:
Aussen-T/F 1301 21-02-2010 05:02:01 0.5 C 4.31 g/m*3 0.5 C 0 km/h
1302 21-02-2010 05:14:01 0.4 C 4.33 g/m*3 0.4 C 0 km/h
1303 21-02-2010 05:26:01 0.5 C 4.36 g/m*3 0.5 C 0 km/h
1304 21-02-2010 05:38:01 0.5 C 4.41 g/m*3 0.5 C 0 km/h
1305 21-02-2010 05:50:01 0.6 C 4.44 g/m*3 0.6 C 0 km/h
1306 21-02-2010 06:02:01 0.6 C 4.49 g/m*3 0.6 C 0 km/h
1307 21-02-2010 06:14:01 0.7 C 4.53 g/m*3 0.7 C 0 km/h
1308 21-02-2010 06:26:02 0.7 C 4.53 g/m*3 0.7 C 0 km/h
1309 21-02-2010 06:38:01 0.8 C 4.56 g/m*3 0.8 C 0 km/h
1310 21-02-2010 06:50:02 0.8 C 4.56 g/m*3 0.8 C 0 km/h
1311 21-02-2010 07:02:01 0.9 C 4.54 g/m*3 0.9 C 0 km/h
1312 21-02-2010 07:14:01 0.9 C 4.48 g/m*3 0.9 C 0 km/h
1313 21-02-2010 07:26:02 0.8 C 4.45 g/m*3 0.8 C 0 km/h
1314 21-02-2010 07:38:01 0.8 C 4.4 g/m*3 0.8 C 0 km/h
1315 21-02-2010 07:50:01 0.8 C 4.35 g/m*3 0.8 C 0 km/h
1316 21-02-2010 08:02:02 1.3 C 4.45 g/m*3 1.3 C 0 km/h
1317 21-02-2010 08:14:02 1.2 C 4.42 g/m*3 1.2 C 0 km/h
1318 21-02-2010 08:26:01 1.4 C 4.37 g/m*3 1.4 C 0 km/h
1319 21-02-2010 08:38:01 1.6 C 4.38 g/m*3 1.6 C 0 km/h
1320 21-02-2010 08:50:01 1.5 C 4.4 g/m*3 1.5 C 0 km/h
1321 21-02-2010 09:02:01 1.6 C 4.43 g/m*3 1.6 C 0 km/h
1322 21-02-2010 09:14:02 1.7 C 4.46 g/m*3 1.7 C 0 km/h
1323 21-02-2010 09:26:01 2 C 4.5 g/m*3 2 C 0 km/h
1324 21-02-2010 09:38:01 2.1 C 4.48 g/m*3 2.1 C 0 km/h
1325 21-02-2010 09:50:01 2.3 C 4.48 g/m*3 2.3 C 0 km/h
Sensor: Nr:Datum:Temp:Abs-Feuchte:Windchill:Wind:
Aussen-T/F 1326 21-02-2010 10:02:02 2.5 C 4.48 g/m*3 2.5 C 0 km/h
1327 21-02-2010 10:14:02 2.8 C 4.52 g/m*3 2.8 C 0 km/h
1328 21-02-2010 10:26:01 2.9 C 4.49 g/m*3 2.9 C 0 km/h
1329 21-02-2010 10:38:02 3 C 4.34 g/m*3 3 C 0 km/h
1330 21-02-2010 10:50:02 3.1 C 4.37 g/m*3 3.1 C 0 km/h
1331 21-02-2010 11:02:01 3.2 C 4.4 g/m*3 3.2 C 0 km/h
1332 21-02-2010 11:14:01 3.7 C 4.42 g/m*3 3.7 C 0 km/h
1333 21-02-2010 11:26:01 3.8 C 4.33 g/m*3 3.8 C 0 km/h
1334 21-02-2010 11:38:02 4 C 4.26 g/m*3 4 C 0 km/h
1335 21-02-2010 11:50:01 4.2 C 4.25 g/m*3 4.2 C 0 km/h
1336 21-02-2010 12:02:01 4.4 C 4.05 g/m*3 4.4 C 0 km/h
1337 21-02-2010 12:14:01 4.5 C 3.81 g/m*3 4.5 C 0 km/h
1338 21-02-2010 12:26:02 4.8 C 3.82 g/m*3 4.8 C 0 km/h
1339 21-02-2010 12:38:01 5 C 3.94 g/m*3 5 C 0 km/h
1340 21-02-2010 12:50:01 5.1 C 3.9 g/m*3 5.1 C 0 km/h
1341 21-02-2010 13:02:01 4.9 C 3.78 g/m*3 4.9 C 0 km/h
1342 21-02-2010 13:14:01 4.7 C 3.86 g/m*3 4.7 C 0 km/h
1343 21-02-2010 13:26:01 4.7 C 3.93 g/m*3 4.7 C 0 km/h
1344 21-02-2010 13:38:01 4.7 C 4.06 g/m*3 4.7 C 0 km/h
1345 21-02-2010 13:50:01 5.2 C 4.06 g/m*3 5.2 C 0 km/h
1346 21-02-2010 14:02:02 5.7 C 4.06 g/m*3 5.7 C 0 km/h
1347 21-02-2010 14:14:02 5.3 C 3.95 g/m*3 5.3 C 0 km/h
1348 21-02-2010 14:26:01 5.3 C 3.95 g/m*3 5.3 C 0 km/h
1349 21-02-2010 14:38:01 5.2 C 4.06 g/m*3 5.2 C 0 km/h
1350 21-02-2010 14:50:01 5.2 C 4.06 g/m*3 5.2 C 0 km/h
Sensor: Nr:Datum:Temp:Abs-Feuchte:Windchill:Wind:
Aussen-T/F 1351 21-02-2010 15:02:01 5.4 C 4.12 g/m*3 5.4 C 0 km/h
1352 21-02-2010 15:14:01 6.1 C 4.09 g/m*3 6.1 C 0 km/h
1353 21-02-2010 15:26:01 6.3 C 4.07 g/m*3 6.3 C 0 km/h
1354 21-02-2010 15:38:01 6.4 C 4.1 g/m*3 6.4 C 0 km/h
1355 21-02-2010 15:50:02 6.3 C 4.15 g/m*3 6.3 C 0 km/h
1356 21-02-2010 16:02:01 6.4 C 4.17 g/m*3 6.4 C 0 km/h
1357 21-02-2010 16:14:01 6.5 C 4.12 g/m*3 6.5 C 0 km/h
1358 21-02-2010 16:26:02 6.5 C 4.2 g/m*3 6.5 C 0 km/h
1359 21-02-2010 16:38:01 6.2 C 4.04 g/m*3 6.2 C 0 km/h
1360 21-02-2010 16:50:01 7.2 C 4.24 g/m*3 7.2 C 0 km/h
1361 21-02-2010 17:02:02 6.5 C 3.97 g/m*3 6.5 C 0 km/h
1362 21-02-2010 17:14:02 5.9 C 4.11 g/m*3 5.9 C 0 km/h
1363 21-02-2010 17:26:01 5.6 C 4.1 g/m*3 5.6 C 0 km/h
1364 21-02-2010 17:38:02 5.3 C 4.16 g/m*3 5.3 C 0 km/h
1365 21-02-2010 17:50:01 5.1 C 4.17 g/m*3 5.1 C 0 km/h
1366 21-02-2010 18:02:02 4.8 C 4.29 g/m*3 4.8 C 0 km/h
1367 21-02-2010 18:14:02 4.6 C 4.3 g/m*3 4.6 C 0 km/h
1368 21-02-2010 18:26:01 4.4 C 4.31 g/m*3 4.4 C 0 km/h
1369 21-02-2010 18:38:01 3.8 C 4.27 g/m*3 3.8 C 0 km/h
1370 21-02-2010 18:50:01 3.4 C 4.28 g/m*3 3.4 C 0 km/h
1371 21-02-2010 19:02:02 3 C 4.22 g/m*3 3 C 0 km/h
1372 21-02-2010 19:14:02 2.9 C 4.37 g/m*3 2.9 C 0 km/h
1373 21-02-2010 19:26:01 2.8 C 4.4 g/m*3 2.8 C 0 km/h
1374 21-02-2010 19:38:01 2.8 C 4.46 g/m*3 2.8 C 0 km/h
1375 21-02-2010 19:50:01 2.7 C 4.49 g/m*3 2.7 C 0 km/h
Sensor: Nr:Datum:Temp:Abs-Feuchte:Windchill:Wind:
Aussen-T/F 1376 21-02-2010 20:02:01 2.5 C 4.43 g/m*3 2.5 C 0 km/h
1377 21-02-2010 20:14:01 2.4 C 4.4 g/m*3 2.4 C 0 km/h
1378 21-02-2010 20:26:01 2.7 C 4.6 g/m*3 2.7 C 0 km/h
1379 21-02-2010 20:38:01 2.8 C 4.63 g/m*3 2.8 C 0 km/h
1380 21-02-2010 20:50:01 3 C 4.58 g/m*3 3 C 0 km/h
1381 21-02-2010 21:02:01 3 C 4.58 g/m*3 3 C 0 km/h
1382 21-02-2010 21:14:01 3 C 4.58 g/m*3 3 C 0 km/h
1383 21-02-2010 21:26:02 2.9 C 4.61 g/m*3 2.9 C 0 km/h
1384 21-02-2010 21:38:01 2.8 C 4.58 g/m*3 2.8 C 0 km/h
1385 21-02-2010 21:50:02 2.7 C 4.6 g/m*3 2.7 C 0 km/h
1386 21-02-2010 22:02:01 2.6 C 4.57 g/m*3 2.6 C 0 km/h
1387 21-02-2010 22:14:01 2.4 C 4.51 g/m*3 2.4 C 0 km/h
1388 21-02-2010 22:26:02 2.3 C 4.54 g/m*3 2.3 C 0 km/h
1389 21-02-2010 22:38:01 2.1 C 4.53 g/m*3 2.1 C 0 km/h
1390 21-02-2010 22:50:02 2.1 C 4.53 g/m*3 2.1 C 0 km/h
1391 21-02-2010 23:02:01 2.2 C 4.62 g/m*3 2.2 C 0 km/h
1392 21-02-2010 23:14:01 2.1 C 4.59 g/m*3 2.1 C 0 km/h
1393 21-02-2010 23:26:02 2 C 4.56 g/m*3 2 C 0 km/h
1394 21-02-2010 23:38:01 2 C 4.56 g/m*3 2 C 0 km/h
1395 21-02-2010 23:50:02 1.9 C 4.58 g/m*3 1.9 C 0 km/h
1396 22-02-2010 00:02:01 1.9 C 4.58 g/m*3 1.9 C 0 km/h
1397 22-02-2010 00:14:01 1.8 C 4.55 g/m*3 1.8 C 0 km/h
1398 22-02-2010 00:26:01 1.7 C 4.57 g/m*3 1.7 C 0 km/h
1399 22-02-2010 00:38:02 1.7 C 4.57 g/m*3 1.7 C 0 km/h
1400 22-02-2010 00:50:01 1.6 C 4.54 g/m*3 1.6 C 0 km/h
Sensor: Nr:Datum:Temp:Abs-Feuchte:Windchill:Wind:
Aussen-T/F 1401 22-02-2010 01:02:02 1.6 C 4.54 g/m*3 1.6 C 0 km/h
1402 22-02-2010 01:14:02 1.5 C 4.51 g/m*3 1.5 C 0 km/h
1403 22-02-2010 01:26:01 1.3 C 4.45 g/m*3 1.3 C 0 km/h
1404 22-02-2010 01:38:02 1.3 C 4.45 g/m*3 1.3 C 0 km/h
1405 22-02-2010 01:50:01 1.3 C 4.45 g/m*3 1.3 C 0 km/h
1406 22-02-2010 02:02:02 1.3 C 4.45 g/m*3 1.3 C 0 km/h
1407 22-02-2010 02:14:02 1.3 C 4.45 g/m*3 1.3 C 0 km/h
1408 22-02-2010 02:26:01 1 C 4.36 g/m*3 1 C 0 km/h
1409 22-02-2010 02:38:01 1 C 4.36 g/m*3 1 C 0 km/h
1410 22-02-2010 02:50:01 1 C 4.41 g/m*3 1 C 0 km/h
1411 22-02-2010 03:02:01 1.1 C 4.44 g/m*3 1.1 C 0 km/h
1412 22-02-2010 03:14:02 1.1 C 4.44 g/m*3 1.1 C 0 km/h
1413 22-02-2010 03:26:02 1 C 4.41 g/m*3 1 C 0 km/h
1414 22-02-2010 03:38:01 1.1 C 4.44 g/m*3 1.1 C 0 km/h
1415 22-02-2010 03:50:01 1.1 C 4.49 g/m*3 1.1 C 0 km/h
1416 22-02-2010 04:02:02 1.4 C 4.59 g/m*3 1.4 C 0 km/h
1417 22-02-2010 04:14:02 1.1 C 4.44 g/m*3 1.1 C 0 km/h
1418 22-02-2010 04:26:01 1 C 4.41 g/m*3 1 C 0 km/h
1419 22-02-2010 04:38:02 1.1 C 4.49 g/m*3 1.1 C 0 km/h
1420 22-02-2010 04:50:01 1.1 C 4.49 g/m*3 1.1 C 0 km/h
1421 22-02-2010 05:02:02 1.1 C 4.49 g/m*3 1.1 C 0 km/h
1422 22-02-2010 05:14:02 1.2 C 4.53 g/m*3 1.2 C 0 km/h
1423 22-02-2010 05:26:01 1.4 C 4.59 g/m*3 1.4 C 0 km/h
1424 22-02-2010 05:38:01 1.4 C 4.59 g/m*3 1.4 C 0 km/h
1425 22-02-2010 05:50:01 1.5 C 4.62 g/m*3 1.5 C 0 km/h
Sensor: Nr:Datum:Temp:Abs-Feuchte:Windchill:Wind:
Aussen-T/F 1426 22-02-2010 06:02:01 1.5 C 4.62 g/m*3 1.5 C 0 km/h
1427 22-02-2010 06:14:02 1.5 C 4.62 g/m*3 1.5 C 0 km/h
1428 22-02-2010 06:26:01 1.5 C 4.62 g/m*3 1.5 C 0 km/h
1429 22-02-2010 06:38:01 1.6 C 4.65 g/m*3 1.6 C 0 km/h
1430 22-02-2010 06:50:01 1.6 C 4.65 g/m*3 1.6 C 0 km/h
1431 22-02-2010 07:02:01 1.6 C 4.65 g/m*3 1.6 C 0 km/h
1432 22-02-2010 07:14:01 1.8 C 4.77 g/m*3 1.8 C 0 km/h
1433 22-02-2010 07:26:02 2.2 C 4.9 g/m*3 2.2 C 0 km/h
1434 22-02-2010 07:38:01 2.3 C 4.93 g/m*3 2.3 C 0 km/h
1435 22-02-2010 07:50:02 2.5 C 5 g/m*3 2.5 C 0 km/h
1436 22-02-2010 08:02:01 2.7 C 5.07 g/m*3 2.7 C 0 km/h
1437 22-02-2010 08:14:01 3 C 5.11 g/m*3 3 C 0 km/h
1438 22-02-2010 08:26:02 3.2 C 5.12 g/m*3 3.2 C 0 km/h
1439 22-02-2010 08:38:01 3.5 C 5.16 g/m*3 3.5 C 0 km/h
1440 22-02-2010 08:50:02 3.8 C 5.21 g/m*3 3.8 C 0 km/h
1441 22-02-2010 09:02:01 4.2 C 5.22 g/m*3 4.2 C 0 km/h
1442 22-02-2010 09:14:01 4.5 C 5.32 g/m*3 4.5 C 0 km/h
1443 22-02-2010 09:26:01 4.8 C 5.3 g/m*3 4.8 C 0 km/h
1444 22-02-2010 09:38:01 5.1 C 5.27 g/m*3 5.1 C 0 km/h
1445 22-02-2010 09:50:02 5.3 C 5.2 g/m*3 5.3 C 0 km/h
1446 22-02-2010 10:02:01 5.7 C 5.19 g/m*3 5.7 C 0 km/h
1447 22-02-2010 10:14:01 6.3 C 5.18 g/m*3 6.3 C 0 km/h
1448 22-02-2010 10:26:01 6.9 C 5.08 g/m*3 6.9 C 0 km/h
1449 22-02-2010 10:38:02 7.2 C 5.02 g/m*3 7.2 C 0 km/h
1450 22-02-2010 10:50:01 7.6 C 5.08 g/m*3 7.6 C 0 km/h
Sensor: Nr:Datum:Temp:Abs-Feuchte:Windchill:Wind:
Aussen-T/F 1451 22-02-2010 11:02:01 7.7 C 5.19 g/m*3 7.7 C 0 km/h
1452 22-02-2010 11:14:01 8 C 5.21 g/m*3 8 C 0 km/h
1453 22-02-2010 11:26:02 8.5 C 5.21 g/m*3 8.5 C 0 km/h
1454 22-02-2010 11:38:01 8.9 C 5.26 g/m*3 8.9 C 0 km/h
1455 22-02-2010 11:50:02 8.7 C 5.19 g/m*3 8.7 C 0 km/h
1456 22-02-2010 12:02:01 8.6 C 5.33 g/m*3 8.6 C 0 km/h
1457 22-02-2010 12:14:01 8.4 C 5.51 g/m*3 8.4 C 0 km/h
1458 22-02-2010 12:26:02 8.8 C 5.74 g/m*3 8.8 C 0 km/h
1459 22-02-2010 12:38:01 9.7 C 5.81 g/m*3 9.7 C 0 km/h
1460 22-02-2010 12:50:02 10.3 C 5.55 g/m*3 10.3 C 0 km/h
1461 22-02-2010 13:02:01 10.6 C 5.37 g/m*3 10.6 C 0 km/h
1462 22-02-2010 13:14:01 11.2 C 5.27 g/m*3 11.2 C 0 km/h
1463 22-02-2010 13:26:01 11.7 C 5.12 g/m*3 11.7 C 0 km/h
1464 22-02-2010 13:38:02 11.4 C 5.13 g/m*3 11.4 C 0 km/h
1465 22-02-2010 13:50:01 11.8 C 5.26 g/m*3 11.8 C 0 km/h
1466 22-02-2010 14:02:02 11.9 C 5.08 g/m*3 11.9 C 0 km/h
1467 22-02-2010 14:14:02 12.7 C 5.01 g/m*3 12.7 C 0 km/h
1468 22-02-2010 14:26:01 12.2 C 5.07 g/m*3 12.2 C 0 km/h
1469 22-02-2010 14:38:02 12.5 C 5.06 g/m*3 12.5 C 0 km/h
1470 22-02-2010 14:50:01 12.2 C 5.07 g/m*3 12.2 C 0 km/h
1471 22-02-2010 15:02:02 12.3 C 5.1 g/m*3 12.3 C 0 km/h
1472 22-02-2010 15:14:02 12.7 C 5.12 g/m*3 12.7 C 0 km/h
1473 22-02-2010 15:26:01 13.3 C 5.2 g/m*3 13.3 C 0 km/h
1474 22-02-2010 15:38:02 13.4 C 5 g/m*3 13.4 C 0 km/h
1475 22-02-2010 15:50:01 12.7 C 5.23 g/m*3 12.7 C 0 km/h
Sensor: Nr:Datum:Temp:Abs-Feuchte:Windchill:Wind:
Aussen-T/F 1476 22-02-2010 16:02:02 12.4 C 5.14 g/m*3 12.4 C 0 km/h
1477 22-02-2010 16:14:02 11.9 C 5.3 g/m*3 11.9 C 0 km/h
1478 22-02-2010 16:26:01 11.5 C 5.37 g/m*3 11.5 C 0 km/h
1479 22-02-2010 16:38:01 11.4 C 5.44 g/m*3 11.4 C 0 km/h
1480 22-02-2010 16:50:01 11.8 C 5.58 g/m*3 11.8 C 0 km/h
1481 22-02-2010 17:02:01 12.1 C 5.47 g/m*3 12.1 C 0 km/h
1482 22-02-2010 17:14:01 11.8 C 5.47 g/m*3 11.8 C 0 km/h
1483 22-02-2010 17:26:01 11.3 C 5.51 g/m*3 11.3 C 0 km/h
1484 22-02-2010 17:38:01 10.7 C 5.6 g/m*3 10.7 C 0 km/h
1485 22-02-2010 17:50:01 10.4 C 5.69 g/m*3 10.4 C 0 km/h
1486 22-02-2010 18:02:01 10.1 C 5.67 g/m*3 10.1 C 0 km/h
1487 22-02-2010 18:14:01 9.9 C 5.79 g/m*3 9.9 C 0 km/h
1488 22-02-2010 18:26:02 9.7 C 5.72 g/m*3 9.7 C 0 km/h
1489 22-02-2010 18:38:01 9.4 C 5.7 g/m*3 9.4 C 0 km/h
1490 22-02-2010 18:50:02 9.2 C 5.8 g/m*3 9.2 C 0 km/h
1491 22-02-2010 19:02:01 9 C 5.73 g/m*3 9 C 0 km/h
1492 22-02-2010 19:14:01 8.9 C 5.87 g/m*3 8.9 C 0 km/h
1493 22-02-2010 19:26:02 8.9 C 5.87 g/m*3 8.9 C 0 km/h
1494 22-02-2010 19:38:01 9 C 5.82 g/m*3 9 C 0 km/h
1495 22-02-2010 19:50:02 9.1 C 5.77 g/m*3 9.1 C 0 km/h
1496 22-02-2010 20:02:02 9.1 C 5.68 g/m*3 9.1 C 0 km/h
1497 22-02-2010 20:14:02 9.2 C 5.63 g/m*3 9.2 C 0 km/h
1498 22-02-2010 20:26:01 9.5 C 5.64 g/m*3 9.5 C 0 km/h
1499 22-02-2010 20:38:02 9.4 C 5.52 g/m*3 9.4 C 0 km/h
1500 22-02-2010 20:50:02 9 C 5.47 g/m*3 9 C 0 km/h
Sensor: Nr:Datum:Temp:Abs-Feuchte:Windchill:Wind:
Aussen-T/F 1501 22-02-2010 21:02:01 8.7 C 5.53 g/m*3 8.7 C 0 km/h
1502 22-02-2010 21:14:01 8.9 C 5.52 g/m*3 8.9 C 0 km/h
1503 22-02-2010 21:26:01 8.8 C 5.48 g/m*3 8.8 C 0 km/h
1504 22-02-2010 21:38:02 8.9 C 5.52 g/m*3 8.9 C 0 km/h
1505 22-02-2010 21:50:01 8.9 C 5.52 g/m*3 8.9 C 0 km/h
1506 22-02-2010 22:02:02 9.1 C 5.5 g/m*3 9.1 C 0 km/h
1507 22-02-2010 22:14:02 9.5 C 5.55 g/m*3 9.5 C 0 km/h
1508 22-02-2010 22:28:08 10.1 C 5.67 g/m*3 10.1 C 0 km/h
1509 22-02-2010 22:40:08 11.1 C 5.54 g/m*3 11.1 C 0 km/h
1510 22-02-2010 22:52:08 11.5 C 5.47 g/m*3 11.5 C 0 km/h
1511 22-02-2010 23:04:08 12 C 5.33 g/m*3 12 C 0 km/h
1512 22-02-2010 23:16:08 12.1 C 5.36 g/m*3 12.1 C 0 km/h
1513 22-02-2010 23:28:08 12.1 C 5.47 g/m*3 12.1 C 0 km/h
1514 22-02-2010 23:40:08 12 C 5.44 g/m*3 12 C 0 km/h
1515 22-02-2010 23:52:08 12.2 C 5.5 g/m*3 12.2 C 0 km/h
1516 23-02-2010 00:04:08 12.1 C 5.47 g/m*3 12.1 C 0 km/h
1517 23-02-2010 00:16:08 12.1 C 5.47 g/m*3 12.1 C 0 km/h
1518 23-02-2010 00:28:08 12.2 C 5.5 g/m*3 12.2 C 0 km/h
1519 23-02-2010 00:40:08 12.2 C 5.4 g/m*3 12.2 C 0 km/h
1520 23-02-2010 00:52:08 12.1 C 5.36 g/m*3 12.1 C 0 km/h
1521 23-02-2010 01:04:08 11.8 C 5.47 g/m*3 11.8 C 0 km/h
1522 23-02-2010 01:16:08 11.5 C 5.58 g/m*3 11.5 C 0 km/h
1523 23-02-2010 01:28:08 11.4 C 5.75 g/m*3 11.4 C 0 km/h
1524 23-02-2010 01:40:08 11.4 C 5.75 g/m*3 11.4 C 0 km/h
1525 23-02-2010 01:52:08 11.4 C 5.85 g/m*3 11.4 C 0 km/h
Sensor: Nr:Datum:Temp:Abs-Feuchte:Windchill:Wind:
Aussen-T/F 1526 23-02-2010 02:04:08 11.2 C 5.78 g/m*3 11.2 C 0 km/h
1527 23-02-2010 02:16:08 11.2 C 5.88 g/m*3 11.2 C 0 km/h
1528 23-02-2010 02:28:08 10.6 C 6.25 g/m*3 10.6 C 0 km/h
1529 23-02-2010 02:40:08 10.4 C 6.46 g/m*3 10.4 C 0 km/h
1530 23-02-2010 02:52:08 9.6 C 6.78 g/m*3 9.6 C 0 km/h
1531 23-02-2010 03:04:09 9.3 C 6.83 g/m*3 9.3 C 0 km/h
1532 23-02-2010 03:16:09 9.2 C 6.97 g/m*3 9.2 C 0 km/h
1533 23-02-2010 03:28:09 9.1 C 6.92 g/m*3 9.1 C 0 km/h
1534 23-02-2010 03:40:09 9.1 C 7.01 g/m*3 9.1 C 0 km/h
1535 23-02-2010 03:52:09 8.9 C 7.1 g/m*3 8.9 C 0 km/h
1536 23-02-2010 04:04:09 8.6 C 7.13 g/m*3 8.6 C 0 km/h
1537 23-02-2010 04:16:09 8.6 C 7.22 g/m*3 8.6 C 0 km/h
1538 23-02-2010 04:28:09 8.5 C 7.17 g/m*3 8.5 C 0 km/h
1539 23-02-2010 04:40:09 8.6 C 7.22 g/m*3 8.6 C 0 km/h
1540 23-02-2010 04:52:09 8.5 C 7.17 g/m*3 8.5 C 0 km/h
1541 23-02-2010 05:04:09 8.4 C 7.04 g/m*3 8.4 C 0 km/h
1542 23-02-2010 05:16:09 8.5 C 7.17 g/m*3 8.5 C 0 km/h
1543 23-02-2010 05:28:09 8.3 C 7.08 g/m*3 8.3 C 0 km/h
1544 23-02-2010 05:40:09 8.5 C 7.17 g/m*3 8.5 C 0 km/h
1545 23-02-2010 05:52:09 8.5 C 7.09 g/m*3 8.5 C 0 km/h
1546 23-02-2010 06:04:09 8.5 C 7.09 g/m*3 8.5 C 0 km/h
1547 23-02-2010 06:16:09 8.5 C 7.09 g/m*3 8.5 C 0 km/h
1548 23-02-2010 06:28:09 8.5 C 7.09 g/m*3 8.5 C 0 km/h
1549 23-02-2010 06:40:09 8.5 C 7.09 g/m*3 8.5 C 0 km/h
1550 23-02-2010 06:52:09 8.5 C 7.09 g/m*3 8.5 C 0 km/h
Sensor: Nr:Datum:Temp:Abs-Feuchte:Windchill:Wind:
Aussen-T/F 1551 23-02-2010 07:04:09 8.4 C 7.04 g/m*3 8.4 C 0 km/h
1552 23-02-2010 07:16:08 8.2 C 6.95 g/m*3 8.2 C 0 km/h
1553 23-02-2010 07:28:08 8.1 C 6.99 g/m*3 8.1 C 0 km/h
1554 23-02-2010 07:40:08 8.2 C 7.03 g/m*3 8.2 C 0 km/h
1555 23-02-2010 07:52:01 8.2 C 7.03 g/m*3 8.2 C 0 km/h
1556 23-02-2010 08:04:02 8.3 C 7.16 g/m*3 8.3 C 0 km/h
1557 23-02-2010 08:16:01 8.5 C 7.26 g/m*3 8.5 C 0 km/h
1558 23-02-2010 08:28:01 8.6 C 7.22 g/m*3 8.6 C 0 km/h
1559 23-02-2010 08:40:02 8.8 C 7.31 g/m*3 8.8 C 0 km/h
1560 23-02-2010 08:52:02 8.9 C 7.27 g/m*3 8.9 C 0 km/h
1561 23-02-2010 09:04:02 9 C 7.23 g/m*3 9 C 0 km/h
1562 23-02-2010 09:16:01 9.1 C 7.28 g/m*3 9.1 C 0 km/h
1563 23-02-2010 09:28:01 9.1 C 7.1 g/m*3 9.1 C 0 km/h
1564 23-02-2010 09:40:02 9.1 C 7.01 g/m*3 9.1 C 0 km/h
1565 23-02-2010 09:52:02 9.3 C 7.19 g/m*3 9.3 C 0 km/h
1566 23-02-2010 10:04:02 9.7 C 7.19 g/m*3 9.7 C 0 km/h
1567 23-02-2010 10:16:01 10.4 C 7.04 g/m*3 10.4 C 0 km/h
1568 23-02-2010 10:28:01 10.7 C 6.88 g/m*3 10.7 C 0 km/h
1569 23-02-2010 10:40:02 10.6 C 6.83 g/m*3 10.6 C 0 km/h
1570 23-02-2010 10:52:01 10.6 C 6.73 g/m*3 10.6 C 0 km/h
1571 23-02-2010 11:04:02 10.8 C 6.92 g/m*3 10.8 C 0 km/h
1572 23-02-2010 11:16:02 11 C 6.81 g/m*3 11 C 0 km/h
1573 23-02-2010 11:28:02 11.2 C 6.69 g/m*3 11.2 C 0 km/h
1574 23-02-2010 11:40:02 11.4 C 6.57 g/m*3 11.4 C 0 km/h
1575 23-02-2010 11:52:01 11.6 C 6.55 g/m*3 11.6 C 0 km/h
Sensor: Nr:Datum:Temp:Abs-Feuchte:Windchill:Wind:
Aussen-T/F 1576 23-02-2010 12:04:02 11.2 C 6.49 g/m*3 11.2 C 0 km/h
1577 23-02-2010 12:16:02 10.9 C 6.66 g/m*3 10.9 C 0 km/h
1578 23-02-2010 12:28:02 10.3 C 6.9 g/m*3 10.3 C 0 km/h
1579 23-02-2010 12:40:01 10.5 C 7.27 g/m*3 10.5 C 0 km/h
1580 23-02-2010 12:52:02 10.4 C 7.13 g/m*3 10.4 C 0 km/h
1581 23-02-2010 13:04:01 10.3 C 7.18 g/m*3 10.3 C 0 km/h
1582 23-02-2010 13:16:02 10.4 C 7.32 g/m*3 10.4 C 0 km/h
1583 23-02-2010 13:28:02 10.5 C 7.37 g/m*3 10.5 C 0 km/h
1584 23-02-2010 13:40:01 10.3 C 7.47 g/m*3 10.3 C 0 km/h
1585 23-02-2010 13:52:02 10.6 C 7.71 g/m*3 10.6 C 0 km/h
1586 23-02-2010 14:04:02 10.9 C 7.76 g/m*3 10.9 C 0 km/h
1587 23-02-2010 14:16:02 11 C 7.81 g/m*3 11 C 0 km/h
1588 23-02-2010 14:28:02 10.8 C 7.71 g/m*3 10.8 C 0 km/h
1589 23-02-2010 14:40:03 10.9 C 7.76 g/m*3 10.9 C 0 km/h
1590 23-02-2010 14:52:02 11 C 7.61 g/m*3 11 C 0 km/h
1591 23-02-2010 15:04:01 11 C 7.71 g/m*3 11 C 0 km/h
1592 23-02-2010 15:16:02 11 C 7.71 g/m*3 11 C 0 km/h
1593 23-02-2010 15:28:02 11 C 7.81 g/m*3 11 C 0 km/h
1594 23-02-2010 15:40:02 11.1 C 7.66 g/m*3 11.1 C 0 km/h
1595 23-02-2010 15:52:02 11 C 7.51 g/m*3 11 C 0 km/h
1596 23-02-2010 16:04:03 10.7 C 7.46 g/m*3 10.7 C 0 km/h
1597 23-02-2010 16:16:02 10.5 C 7.47 g/m*3 10.5 C 0 km/h
1598 23-02-2010 16:28:02 10.6 C 7.52 g/m*3 10.6 C 0 km/h
1599 23-02-2010 16:40:02 10.6 C 7.52 g/m*3 10.6 C 0 km/h
1600 23-02-2010 16:52:01 10.4 C 7.32 g/m*3 10.4 C 0 km/h
Sensor: Nr:Datum:Temp:Abs-Feuchte:Windchill:Wind:
Aussen-T/F 1601 23-02-2010 17:04:02 10.4 C 7.32 g/m*3 10.4 C 0 km/h
1602 23-02-2010 17:16:01 10.2 C 7.23 g/m*3 10.2 C 0 km/h
1603 23-02-2010 17:28:01 10.1 C 7.09 g/m*3 10.1 C 0 km/h
1604 23-02-2010 17:40:02 10.1 C 7.19 g/m*3 10.1 C 0 km/h
1605 23-02-2010 17:52:01 10 C 7.14 g/m*3 10 C 0 km/h
1606 23-02-2010 18:04:02 9.8 C 7.24 g/m*3 9.8 C 0 km/h
1607 23-02-2010 18:16:01 9.6 C 7.33 g/m*3 9.6 C 0 km/h
1608 23-02-2010 18:28:01 9.6 C 7.33 g/m*3 9.6 C 0 km/h
1609 23-02-2010 18:40:02 9.5 C 7.37 g/m*3 9.5 C 0 km/h
1610 23-02-2010 18:52:01 9.5 C 7.46 g/m*3 9.5 C 0 km/h
1611 23-02-2010 19:04:02 9.2 C 7.41 g/m*3 9.2 C 0 km/h
1612 23-02-2010 19:16:02 9.1 C 7.45 g/m*3 9.1 C 0 km/h
1613 23-02-2010 19:28:02 9.2 C 7.59 g/m*3 9.2 C 0 km/h
1614 23-02-2010 19:40:02 9.2 C 7.68 g/m*3 9.2 C 0 km/h
1615 23-02-2010 19:52:02 9.2 C 7.68 g/m*3 9.2 C 0 km/h
1616 23-02-2010 20:04:02 9 C 7.67 g/m*3 9 C 0 km/h
1617 23-02-2010 20:16:02 9.1 C 7.81 g/m*3 9.1 C 0 km/h
1618 23-02-2010 20:28:02 9 C 7.76 g/m*3 9 C 0 km/h
1619 23-02-2010 20:40:02 9 C 7.76 g/m*3 9 C 0 km/h
1620 23-02-2010 20:52:01 9.2 C 7.86 g/m*3 9.2 C 0 km/h
1621 23-02-2010 21:04:02 9.3 C 7.91 g/m*3 9.3 C 0 km/h
1622 23-02-2010 21:16:01 9.4 C 7.78 g/m*3 9.4 C 0 km/h
1623 23-02-2010 21:28:01 9.6 C 7.6 g/m*3 9.6 C 0 km/h
1624 23-02-2010 21:40:02 9.6 C 7.33 g/m*3 9.6 C 0 km/h
1625 23-02-2010 21:52:02 9.5 C 7.1 g/m*3 9.5 C 0 km/h
Sensor: Nr:Datum:Temp:Abs-Feuchte:Windchill:Wind:
Aussen-T/F 1626 23-02-2010 22:04:02 9.3 C 6.92 g/m*3 9.3 C 0 km/h
1627 23-02-2010 22:16:02 9.3 C 6.92 g/m*3 9.3 C 0 km/h
1628 23-02-2010 22:28:02 9.3 C 6.74 g/m*3 9.3 C 0 km/h
1629 23-02-2010 22:40:02 8.9 C 6.75 g/m*3 8.9 C 0 km/h
1630 23-02-2010 22:52:01 8.7 C 6.75 g/m*3 8.7 C 0 km/h
1631 23-02-2010 23:04:02 8.5 C 6.66 g/m*3 8.5 C 0 km/h
1632 23-02-2010 23:16:02 8.5 C 6.66 g/m*3 8.5 C 0 km/h
1633 23-02-2010 23:28:02 8.2 C 6.62 g/m*3 8.2 C 0 km/h
1634 23-02-2010 23:40:01 8.2 C 6.7 g/m*3 8.2 C 0 km/h
1635 23-02-2010 23:52:02 8.2 C 6.7 g/m*3 8.2 C 0 km/h
1636 24-02-2010 00:04:01 8.1 C 6.66 g/m*3 8.1 C 0 km/h
1637 24-02-2010 00:16:02 7.9 C 6.74 g/m*3 7.9 C 0 km/h
1638 24-02-2010 00:28:02 7.9 C 6.82 g/m*3 7.9 C 0 km/h
1639 24-02-2010 00:40:01 7.8 C 6.77 g/m*3 7.8 C 0 km/h
1640 24-02-2010 00:52:02 7.5 C 6.64 g/m*3 7.5 C 0 km/h
1641 24-02-2010 01:04:01 7.3 C 6.64 g/m*3 7.3 C 0 km/h
1642 24-02-2010 01:16:02 7.5 C 6.8 g/m*3 7.5 C 0 km/h
1643 24-02-2010 01:28:02 8.1 C 6.99 g/m*3 8.1 C 0 km/h
1644 24-02-2010 01:40:01 8.7 C 6.92 g/m*3 8.7 C 0 km/h
1645 24-02-2010 01:52:02 8.6 C 6.7 g/m*3 8.6 C 0 km/h
1646 24-02-2010 02:04:02 8.3 C 6.57 g/m*3 8.3 C 0 km/h
1647 24-02-2010 02:16:02 8.1 C 6.57 g/m*3 8.1 C 0 km/h
1648 24-02-2010 02:28:02 7.9 C 6.74 g/m*3 7.9 C 0 km/h
1649 24-02-2010 02:40:02 7.9 C 6.82 g/m*3 7.9 C 0 km/h
1650 24-02-2010 02:52:01 7.8 C 6.77 g/m*3 7.8 C 0 km/h
Sensor: Nr:Datum:Temp:Abs-Feuchte:Windchill:Wind:
Aussen-T/F 1651 24-02-2010 03:04:01 7.7 C 6.73 g/m*3 7.7 C 0 km/h
1652 24-02-2010 03:16:01 7.9 C 6.9 g/m*3 7.9 C 0 km/h
1653 24-02-2010 03:28:01 8 C 6.86 g/m*3 8 C 0 km/h
1654 24-02-2010 03:40:02 8 C 6.78 g/m*3 8 C 0 km/h
1655 24-02-2010 03:52:02 8 C 6.78 g/m*3 8 C 0 km/h
1656 24-02-2010 04:04:01 8 C 6.78 g/m*3 8 C 0 km/h
1657 24-02-2010 04:16:02 8 C 6.86 g/m*3 8 C 0 km/h
1658 24-02-2010 04:28:02 8 C 6.86 g/m*3 8 C 0 km/h
1659 24-02-2010 04:40:01 8 C 6.86 g/m*3 8 C 0 km/h
1660 24-02-2010 04:52:02 8.1 C 6.91 g/m*3 8.1 C 0 km/h
1661 24-02-2010 05:04:01 8.3 C 7 g/m*3 8.3 C 0 km/h
1662 24-02-2010 05:16:01 8.4 C 6.96 g/m*3 8.4 C 0 km/h
1663 24-02-2010 05:28:01 8.2 C 6.78 g/m*3 8.2 C 0 km/h
1664 24-02-2010 05:40:01 8.3 C 6.83 g/m*3 8.3 C 0 km/h
1665 24-02-2010 05:52:02 8.4 C 6.79 g/m*3 8.4 C 0 km/h
1666 24-02-2010 06:04:01 8.2 C 6.62 g/m*3 8.2 C 0 km/h
1667 24-02-2010 06:16:01 7.9 C 6.65 g/m*3 7.9 C 0 km/h
1668 24-02-2010 06:28:01 7.8 C 6.61 g/m*3 7.8 C 0 km/h
1669 24-02-2010 06:40:02 7.6 C 6.53 g/m*3 7.6 C 0 km/h
1670 24-02-2010 06:52:01 7.3 C 6.4 g/m*3 7.3 C 0 km/h
1671 24-02-2010 07:04:01 7.3 C 6.56 g/m*3 7.3 C 0 km/h
1672 24-02-2010 07:16:01 7.4 C 6.6 g/m*3 7.4 C 0 km/h
1673 24-02-2010 07:28:01 7.5 C 6.64 g/m*3 7.5 C 0 km/h
1674 24-02-2010 07:40:02 7.5 C 6.56 g/m*3 7.5 C 0 km/h
1675 24-02-2010 07:52:01 7.4 C 6.6 g/m*3 7.4 C 0 km/h
Sensor: Nr:Datum:Temp:Abs-Feuchte:Windchill:Wind:
Aussen-T/F 1676 24-02-2010 08:04:02 7.5 C 6.64 g/m*3 7.5 C 0 km/h
1677 24-02-2010 08:16:01 7.5 C 6.56 g/m*3 7.5 C 0 km/h
1678 24-02-2010 08:28:01 7.9 C 6.82 g/m*3 7.9 C 0 km/h
1679 24-02-2010 08:40:02 8.1 C 6.74 g/m*3 8.1 C 0 km/h
1680 24-02-2010 08:52:01 8.5 C 6.92 g/m*3 8.5 C 0 km/h
1681 24-02-2010 09:04:02 8.6 C 6.79 g/m*3 8.6 C 0 km/h
1682 24-02-2010 09:16:01 8.9 C 6.83 g/m*3 8.9 C 0 km/h
1683 24-02-2010 09:28:01 9.1 C 6.65 g/m*3 9.1 C 0 km/h
1684 24-02-2010 09:40:01 9.2 C 6.52 g/m*3 9.2 C 0 km/h
1685 24-02-2010 09:52:01 9.4 C 6.51 g/m*3 9.4 C 0 km/h
1686 24-02-2010 10:04:02 9.7 C 6.55 g/m*3 9.7 C 0 km/h
1687 24-02-2010 10:16:01 10 C 6.39 g/m*3 10 C 0 km/h
1688 24-02-2010 10:28:01 10.2 C 6.28 g/m*3 10.2 C 0 km/h
1689 24-02-2010 10:40:01 10.4 C 6.26 g/m*3 10.4 C 0 km/h
1690 24-02-2010 10:52:01 10.9 C 6.17 g/m*3 10.9 C 0 km/h
1691 24-02-2010 11:04:01 10.9 C 5.97 g/m*3 10.9 C 0 km/h
1692 24-02-2010 11:16:02 11.1 C 5.74 g/m*3 11.1 C 0 km/h
1693 24-02-2010 11:28:02 11.2 C 5.68 g/m*3 11.2 C 0 km/h
1694 24-02-2010 11:40:01 11.2 C 5.57 g/m*3 11.2 C 0 km/h
1695 24-02-2010 11:52:01 11.3 C 5.61 g/m*3 11.3 C 0 km/h
1696 24-02-2010 12:04:01 11.1 C 5.64 g/m*3 11.1 C 0 km/h
1697 24-02-2010 12:16:02 11.2 C 5.57 g/m*3 11.2 C 0 km/h
1698 24-02-2010 12:28:02 11.6 C 5.72 g/m*3 11.6 C 0 km/h
1699 24-02-2010 12:40:01 11.8 C 5.58 g/m*3 11.8 C 0 km/h
1700 24-02-2010 12:52:02 12 C 5.54 g/m*3 12 C 0 km/h
Sensor: Nr:Datum:Temp:Abs-Feuchte:Windchill:Wind:
Aussen-T/F 1701 24-02-2010 13:04:01 12 C 5.54 g/m*3 12 C 0 km/h
1702 24-02-2010 13:16:02 11.8 C 5.58 g/m*3 11.8 C 0 km/h
1703 24-02-2010 13:28:02 12 C 5.44 g/m*3 12 C 0 km/h
1704 24-02-2010 13:40:01 12.2 C 5.61 g/m*3 12.2 C 0 km/h
1705 24-02-2010 13:52:02 12.4 C 5.35 g/m*3 12.4 C 0 km/h
1706 24-02-2010 14:04:01 12.3 C 5.32 g/m*3 12.3 C 0 km/h
1707 24-02-2010 14:16:01 12.6 C 5.53 g/m*3 12.6 C 0 km/h
1708 24-02-2010 14:28:01 12.7 C 5.45 g/m*3 12.7 C 0 km/h
1709 24-02-2010 14:40:01 12.8 C 5.38 g/m*3 12.8 C 0 km/h
1710 24-02-2010 14:52:02 13.1 C 5.36 g/m*3 13.1 C 0 km/h
1711 24-02-2010 15:04:01 13.2 C 5.4 g/m*3 13.2 C 0 km/h
1712 24-02-2010 15:16:01 13.1 C 5.36 g/m*3 13.1 C 0 km/h
1713 24-02-2010 15:28:01 13.2 C 5.4 g/m*3 13.2 C 0 km/h
1714 24-02-2010 15:40:02 13.7 C 5.45 g/m*3 13.7 C 0 km/h
1715 24-02-2010 15:52:01 14.1 C 5.46 g/m*3 14.1 C 0 km/h
1716 24-02-2010 16:04:01 15.2 C 5.58 g/m*3 15.2 C 0 km/h
1717 24-02-2010 16:16:01 14.4 C 5.19 g/m*3 14.4 C 0 km/h
1718 24-02-2010 16:28:01 14 C 5.43 g/m*3 14 C 0 km/h
1719 24-02-2010 16:40:02 14.4 C 5.32 g/m*3 14.4 C 0 km/h
1720 24-02-2010 16:52:01 14.2 C 5.13 g/m*3 14.2 C 0 km/h
1721 24-02-2010 17:04:02 13.6 C 5.3 g/m*3 13.6 C 0 km/h
1722 24-02-2010 17:16:01 12.8 C 5.38 g/m*3 12.8 C 0 km/h
1723 24-02-2010 17:28:01 11.8 C 5.68 g/m*3 11.8 C 0 km/h
1724 24-02-2010 17:40:02 11.2 C 5.68 g/m*3 11.2 C 0 km/h
1725 24-02-2010 17:52:01 10.7 C 5.8 g/m*3 10.7 C 0 km/h
Sensor: Nr:Datum:Temp:Abs-Feuchte:Windchill:Wind:
Aussen-T/F 1726 24-02-2010 18:04:02 10.2 C 5.8 g/m*3 10.2 C 0 km/h
1727 24-02-2010 18:16:01 9.8 C 5.85 g/m*3 9.8 C 0 km/h
1728 24-02-2010 18:28:02 9.7 C 5.9 g/m*3 9.7 C 0 km/h
1729 24-02-2010 18:40:01 9.6 C 5.95 g/m*3 9.6 C 0 km/h
1730 24-02-2010 18:52:01 9.6 C 6.05 g/m*3 9.6 C 0 km/h
1731 24-02-2010 19:04:01 9.7 C 6.18 g/m*3 9.7 C 0 km/h
1732 24-02-2010 19:16:01 9.5 C 6.55 g/m*3 9.5 C 0 km/h
1733 24-02-2010 19:28:01 8.8 C 6.7 g/m*3 8.8 C 0 km/h
1734 24-02-2010 19:40:01 8.5 C 6.92 g/m*3 8.5 C 0 km/h
1735 24-02-2010 19:52:01 8.5 C 7.09 g/m*3 8.5 C 0 km/h
1736 24-02-2010 20:04:01 8.4 C 7.13 g/m*3 8.4 C 0 km/h
1737 24-02-2010 20:16:02 8.3 C 7.16 g/m*3 8.3 C 0 km/h
1738 24-02-2010 20:28:02 8.4 C 7.3 g/m*3 8.4 C 0 km/h
1739 24-02-2010 20:40:01 8.3 C 7.33 g/m*3 8.3 C 0 km/h
1740 24-02-2010 20:52:01 8.5 C 7.43 g/m*3 8.5 C 0 km/h
1741 24-02-2010 21:04:01 8.5 C 7.51 g/m*3 8.5 C 0 km/h
1742 24-02-2010 21:16:02 8.4 C 7.38 g/m*3 8.4 C 0 km/h
1743 24-02-2010 21:28:02 7.9 C 7.23 g/m*3 7.9 C 0 km/h
1744 24-02-2010 21:40:01 7.8 C 7.18 g/m*3 7.8 C 0 km/h
1745 24-02-2010 21:52:02 7.6 C 7.09 g/m*3 7.6 C 0 km/h
1746 24-02-2010 22:04:01 7.5 C 6.96 g/m*3 7.5 C 0 km/h
1747 24-02-2010 22:16:02 7.6 C 7.01 g/m*3 7.6 C 0 km/h
1748 24-02-2010 22:28:02 7.7 C 7.05 g/m*3 7.7 C 0 km/h
1749 24-02-2010 22:40:01 8 C 7.03 g/m*3 8 C 0 km/h
1750 24-02-2010 22:52:02 8.1 C 6.82 g/m*3 8.1 C 0 km/h
Sensor: Nr:Datum:Temp:Abs-Feuchte:Windchill:Wind:
Aussen-T/F 1751 24-02-2010 23:04:01 8.2 C 6.7 g/m*3 8.2 C 0 km/h
1752 24-02-2010 23:16:01 8.3 C 6.74 g/m*3 8.3 C 0 km/h
1753 24-02-2010 23:28:01 8.4 C 6.62 g/m*3 8.4 C 0 km/h
1754 24-02-2010 23:40:01 8.4 C 6.53 g/m*3 8.4 C 0 km/h
1755 24-02-2010 23:52:02 8.4 C 6.45 g/m*3 8.4 C 0 km/h
1756 25-02-2010 00:04:01 8.7 C 6.49 g/m*3 8.7 C 0 km/h
1757 25-02-2010 00:16:02 8.7 C 6.4 g/m*3 8.7 C 0 km/h
1758 25-02-2010 00:28:02 8.6 C 6.36 g/m*3 8.6 C 0 km/h
1759 25-02-2010 00:40:01 8.4 C 6.28 g/m*3 8.4 C 0 km/h
1760 25-02-2010 00:52:02 8.1 C 6.24 g/m*3 8.1 C 0 km/h
1761 25-02-2010 01:04:01 8.1 C 6.41 g/m*3 8.1 C 0 km/h
1762 25-02-2010 01:16:01 8.4 C 6.36 g/m*3 8.4 C 0 km/h
1763 25-02-2010 01:28:01 8.5 C 6.23 g/m*3 8.5 C 0 km/h
1764 25-02-2010 01:40:02 8.6 C 6.19 g/m*3 8.6 C 0 km/h
1765 25-02-2010 01:52:01 8.6 C 6.19 g/m*3 8.6 C 0 km/h
1766 25-02-2010 02:04:01 8.4 C 6.11 g/m*3 8.4 C 0 km/h
1767 25-02-2010 02:16:01 8 C 6.12 g/m*3 8 C 0 km/h
1768 25-02-2010 02:28:01 7.9 C 6.32 g/m*3 7.9 C 0 km/h
1769 25-02-2010 02:40:02 7.9 C 6.41 g/m*3 7.9 C 0 km/h
1770 25-02-2010 02:52:01 7.8 C 6.28 g/m*3 7.8 C 0 km/h
1771 25-02-2010 03:04:01 7.7 C 6.32 g/m*3 7.7 C 0 km/h
1772 25-02-2010 03:16:02 7.5 C 6.48 g/m*3 7.5 C 0 km/h
1773 25-02-2010 03:28:02 7.4 C 6.6 g/m*3 7.4 C 0 km/h
1774 25-02-2010 03:40:02 7.3 C 6.56 g/m*3 7.3 C 0 km/h
1775 25-02-2010 03:52:02 7.3 C 6.56 g/m*3 7.3 C 0 km/h
Sensor: Nr:Datum:Temp:Abs-Feuchte:Windchill:Wind:
Aussen-T/F 1776 25-02-2010 04:04:01 7.2 C 6.52 g/m*3 7.2 C 0 km/h
1777 25-02-2010 04:16:01 7.2 C 6.52 g/m*3 7.2 C 0 km/h
1778 25-02-2010 04:28:01 7.2 C 6.52 g/m*3 7.2 C 0 km/h
1779 25-02-2010 04:40:02 7.1 C 6.47 g/m*3 7.1 C 0 km/h
1780 25-02-2010 04:52:01 7.1 C 6.55 g/m*3 7.1 C 0 km/h
1781 25-02-2010 05:04:02 7.3 C 6.56 g/m*3 7.3 C 0 km/h
1782 25-02-2010 05:16:01 7.2 C 6.52 g/m*3 7.2 C 0 km/h
1783 25-02-2010 05:28:01 7.4 C 6.6 g/m*3 7.4 C 0 km/h
1784 25-02-2010 05:40:02 7.6 C 6.53 g/m*3 7.6 C 0 km/h
1785 25-02-2010 05:52:01 7.9 C 6.32 g/m*3 7.9 C 0 km/h
1786 25-02-2010 06:04:02 8.1 C 6.07 g/m*3 8.1 C 0 km/h
1787 25-02-2010 06:16:01 8.3 C 5.98 g/m*3 8.3 C 0 km/h
1788 25-02-2010 06:28:01 8.5 C 5.89 g/m*3 8.5 C 0 km/h
1789 25-02-2010 06:40:02 8.6 C 5.84 g/m*3 8.6 C 0 km/h
1790 25-02-2010 06:52:02 8.7 C 5.79 g/m*3 8.7 C 0 km/h
1791 25-02-2010 07:04:01 8.7 C 5.79 g/m*3 8.7 C 0 km/h
1792 25-02-2010 07:16:01 8.8 C 5.74 g/m*3 8.8 C 0 km/h
1793 25-02-2010 07:28:01 8.8 C 5.83 g/m*3 8.8 C 0 km/h
1794 25-02-2010 07:40:01 8.7 C 5.88 g/m*3 8.7 C 0 km/h
1795 25-02-2010 07:52:02 8.6 C 5.93 g/m*3 8.6 C 0 km/h
1796 25-02-2010 08:04:01 8.4 C 6.02 g/m*3 8.4 C 0 km/h
1797 25-02-2010 08:16:01 8.6 C 5.93 g/m*3 8.6 C 0 km/h
1798 25-02-2010 08:28:01 8.9 C 5.78 g/m*3 8.9 C 0 km/h
1799 25-02-2010 08:40:02 9 C 5.64 g/m*3 9 C 0 km/h
1800 25-02-2010 08:52:01 9.1 C 5.68 g/m*3 9.1 C 0 km/h
Sensor: Nr:Datum:Temp:Abs-Feuchte:Windchill:Wind:
Aussen-T/F 1801 25-02-2010 09:04:02 9.3 C 5.66 g/m*3 9.3 C 0 km/h
1802 25-02-2010 09:16:01 9.5 C 5.64 g/m*3 9.5 C 0 km/h
1803 25-02-2010 09:28:01 9.6 C 5.5 g/m*3 9.6 C 0 km/h
1804 25-02-2010 09:40:02 9.6 C 5.59 g/m*3 9.6 C 0 km/h
1805 25-02-2010 09:52:01 9.9 C 5.6 g/m*3 9.9 C 0 km/h
1806 25-02-2010 10:04:02 9.9 C 5.51 g/m*3 9.9 C 0 km/h
1807 25-02-2010 10:16:01 9.9 C 5.6 g/m*3 9.9 C 0 km/h
1808 25-02-2010 10:28:01 10.2 C 5.42 g/m*3 10.2 C 0 km/h
1809 25-02-2010 10:40:02 10.6 C 5.37 g/m*3 10.6 C 0 km/h
1810 25-02-2010 10:52:01 10.7 C 5.21 g/m*3 10.7 C 0 km/h
1811 25-02-2010 11:04:01 10.6 C 5.17 g/m*3 10.6 C 0 km/h
1812 25-02-2010 11:16:01 11.2 C 5.17 g/m*3 11.2 C 0 km/h
1813 25-02-2010 11:28:01 10.9 C 5.17 g/m*3 10.9 C 0 km/h
1814 25-02-2010 11:40:02 11.2 C 5.07 g/m*3 11.2 C 0 km/h
1815 25-02-2010 11:52:01 11.3 C 5.1 g/m*3 11.3 C 0 km/h
1816 25-02-2010 12:04:02 11.4 C 4.82 g/m*3 11.4 C 0 km/h
1817 25-02-2010 12:16:01 11.4 C 4.82 g/m*3 11.4 C 0 km/h
1818 25-02-2010 12:28:01 11.4 C 4.82 g/m*3 11.4 C 0 km/h
1819 25-02-2010 12:40:02 11.1 C 4.73 g/m*3 11.1 C 0 km/h
1820 25-02-2010 12:52:01 11.4 C 4.82 g/m*3 11.4 C 0 km/h
1821 25-02-2010 13:04:02 11.7 C 4.81 g/m*3 11.7 C 0 km/h
1822 25-02-2010 13:16:01 12.9 C 4.85 g/m*3 12.9 C 0 km/h
1823 25-02-2010 13:28:01 13 C 4.54 g/m*3 13 C 0 km/h
1824 25-02-2010 13:40:02 12.7 C 4.68 g/m*3 12.7 C 0 km/h
1825 25-02-2010 13:52:01 11.9 C 4.77 g/m*3 11.9 C 0 km/h
Sensor: Nr:Datum:Temp:Abs-Feuchte:Windchill:Wind:
Aussen-T/F 1826 25-02-2010 14:04:02 12.2 C 4.96 g/m*3 12.2 C 0 km/h
1827 25-02-2010 14:16:01 13 C 4.88 g/m*3 13 C 0 km/h
1828 25-02-2010 14:28:01 12.8 C 4.82 g/m*3 12.8 C 0 km/h
1829 25-02-2010 14:40:01 12.4 C 4.7 g/m*3 12.4 C 0 km/h
1830 25-02-2010 14:52:01 12.6 C 4.87 g/m*3 12.6 C 0 km/h
1831 25-02-2010 15:04:02 12.7 C 4.68 g/m*3 12.7 C 0 km/h
1832 25-02-2010 15:16:01 12.8 C 4.59 g/m*3 12.8 C 0 km/h
1833 25-02-2010 15:28:01 12.5 C 4.4 g/m*3 12.5 C 0 km/h
1834 25-02-2010 15:40:01 12.5 C 4.4 g/m*3 12.5 C 0 km/h
1835 25-02-2010 15:52:01 12.3 C 4.34 g/m*3 12.3 C 0 km/h
1836 25-02-2010 16:04:01 12.2 C 4.32 g/m*3 12.2 C 0 km/h
1837 25-02-2010 16:16:02 12 C 4.26 g/m*3 12 C 0 km/h
1838 25-02-2010 16:28:02 11.8 C 4.53 g/m*3 11.8 C 0 km/h
1839 25-02-2010 16:40:01 11.6 C 4.68 g/m*3 11.6 C 0 km/h
1840 25-02-2010 16:52:01 11.5 C 4.75 g/m*3 11.5 C 0 km/h
1841 25-02-2010 17:04:01 11.2 C 5.07 g/m*3 11.2 C 0 km/h
1842 25-02-2010 17:16:01 11.2 C 4.97 g/m*3 11.2 C 0 km/h
1843 25-02-2010 17:28:01 11 C 4.8 g/m*3 11 C 0 km/h
1844 25-02-2010 17:40:01 11 C 4.8 g/m*3 11 C 0 km/h
1845 25-02-2010 17:52:01 10.9 C 4.87 g/m*3 10.9 C 0 km/h
1846 25-02-2010 18:04:02 10.5 C 5.14 g/m*3 10.5 C 0 km/h
1847 25-02-2010 18:16:01 9.7 C 5.35 g/m*3 9.7 C 0 km/h
1848 25-02-2010 18:28:01 9.3 C 5.93 g/m*3 9.3 C 0 km/h
1849 25-02-2010 18:40:02 8.9 C 6.22 g/m*3 8.9 C 0 km/h
1850 25-02-2010 18:52:02 8.8 C 6.53 g/m*3 8.8 C 0 km/h
Sensor: Nr:Datum:Temp:Abs-Feuchte:Windchill:Wind:
Aussen-T/F 1851 25-02-2010 19:04:01 8.5 C 6.57 g/m*3 8.5 C 0 km/h
1852 25-02-2010 19:16:01 8.6 C 6.79 g/m*3 8.6 C 0 km/h
1853 25-02-2010 19:28:01 8.5 C 6.83 g/m*3 8.5 C 0 km/h
1854 25-02-2010 19:40:02 8.4 C 6.87 g/m*3 8.4 C 0 km/h
1855 25-02-2010 19:52:01 8.5 C 6.83 g/m*3 8.5 C 0 km/h
1856 25-02-2010 20:04:02 8.6 C 6.79 g/m*3 8.6 C 0 km/h
1857 25-02-2010 20:16:01 8.6 C 6.7 g/m*3 8.6 C 0 km/h
1858 25-02-2010 20:28:01 8.6 C 6.7 g/m*3 8.6 C 0 km/h
1859 25-02-2010 20:40:02 8.7 C 6.66 g/m*3 8.7 C 0 km/h
1860 25-02-2010 20:52:01 8.8 C 6.61 g/m*3 8.8 C 0 km/h
1861 25-02-2010 21:04:02 8.9 C 6.66 g/m*3 8.9 C 0 km/h
1862 25-02-2010 21:16:01 9 C 6.52 g/m*3 9 C 0 km/h
1863 25-02-2010 21:28:01 9.2 C 6.61 g/m*3 9.2 C 0 km/h
1864 25-02-2010 21:40:02 9.2 C 6.52 g/m*3 9.2 C 0 km/h
1865 25-02-2010 21:52:01 9.2 C 6.52 g/m*3 9.2 C 0 km/h
1866 25-02-2010 22:04:01 9.1 C 6.57 g/m*3 9.1 C 0 km/h
1867 25-02-2010 22:16:01 9.1 C 6.65 g/m*3 9.1 C 0 km/h
1868 25-02-2010 22:28:01 9.2 C 6.61 g/m*3 9.2 C 0 km/h
1869 25-02-2010 22:40:01 9.3 C 6.65 g/m*3 9.3 C 0 km/h
1870 25-02-2010 22:52:02 9.2 C 6.61 g/m*3 9.2 C 0 km/h
1871 25-02-2010 23:04:01 9.2 C 6.7 g/m*3 9.2 C 0 km/h
1872 25-02-2010 23:16:01 9.5 C 6.83 g/m*3 9.5 C 0 km/h
1873 25-02-2010 23:28:01 9.4 C 6.78 g/m*3 9.4 C 0 km/h
1874 25-02-2010 23:40:02 9.3 C 6.74 g/m*3 9.3 C 0 km/h
1875 25-02-2010 23:52:01 9.4 C 6.78 g/m*3 9.4 C 0 km/h
Sensor: Nr:Datum:Temp:Abs-Feuchte:Windchill:Wind:
Aussen-T/F 1876 26-02-2010 00:04:02 9.3 C 6.83 g/m*3 9.3 C 0 km/h
1877 26-02-2010 00:16:01 9.4 C 6.87 g/m*3 9.4 C 0 km/h
1878 26-02-2010 00:28:01 9.4 C 6.87 g/m*3 9.4 C 0 km/h
1879 26-02-2010 00:40:02 9.3 C 6.83 g/m*3 9.3 C 0 km/h
1880 26-02-2010 00:52:01 9.3 C 6.92 g/m*3 9.3 C 0 km/h
1881 26-02-2010 01:04:02 9.4 C 6.96 g/m*3 9.4 C 0 km/h
1882 26-02-2010 01:16:01 9.5 C 7.01 g/m*3 9.5 C 0 km/h
1883 26-02-2010 01:28:01 9.4 C 6.96 g/m*3 9.4 C 0 km/h
1884 26-02-2010 01:40:01 9.6 C 7.05 g/m*3 9.6 C 0 km/h
1885 26-02-2010 01:52:01 9.6 C 6.96 g/m*3 9.6 C 0 km/h
1886 26-02-2010 02:04:01 9.8 C 7.05 g/m*3 9.8 C 0 km/h
1887 26-02-2010 02:16:01 9.8 C 7.05 g/m*3 9.8 C 0 km/h
1888 26-02-2010 02:28:01 9.7 C 7.01 g/m*3 9.7 C 0 km/h
1889 26-02-2010 02:40:01 9.8 C 7.05 g/m*3 9.8 C 0 km/h
1890 26-02-2010 02:53:06 9.8 C 7.05 g/m*3 9.8 C 0 km/h
1891 26-02-2010 03:05:06 9.8 C 7.05 g/m*3 9.8 C 0 km/h
1892 26-02-2010 03:17:06 10 C 6.95 g/m*3 10 C 0 km/h
1893 26-02-2010 03:29:06 9.9 C 7 g/m*3 9.9 C 0 km/h
1894 26-02-2010 03:41:02 9.9 C 6.91 g/m*3 9.9 C 0 km/h
1895 26-02-2010 03:53:02 9.7 C 6.82 g/m*3 9.7 C 0 km/h
1896 26-02-2010 04:05:03 9.5 C 6.83 g/m*3 9.5 C 0 km/h
1897 26-02-2010 04:17:02 9.5 C 6.83 g/m*3 9.5 C 0 km/h
1898 26-02-2010 04:29:02 9.5 C 6.83 g/m*3 9.5 C 0 km/h
1899 26-02-2010 04:41:02 9.7 C 6.73 g/m*3 9.7 C 0 km/h
1900 26-02-2010 04:53:01 9.5 C 6.64 g/m*3 9.5 C 0 km/h
Sensor: Nr:Datum:Temp:Abs-Feuchte:Windchill:Wind:
Aussen-T/F 1901 26-02-2010 05:05:02 9.4 C 6.51 g/m*3 9.4 C 0 km/h
1902 26-02-2010 05:17:01 9.4 C 6.42 g/m*3 9.4 C 0 km/h
1903 26-02-2010 05:29:01 9.6 C 6.32 g/m*3 9.6 C 0 km/h
1904 26-02-2010 05:41:02 9.2 C 6.34 g/m*3 9.2 C 0 km/h
1905 26-02-2010 05:53:01 9.1 C 6.3 g/m*3 9.1 C 0 km/h
1906 26-02-2010 06:05:02 8.8 C 6.27 g/m*3 8.8 C 0 km/h
1907 26-02-2010 06:17:01 9 C 6.26 g/m*3 9 C 0 km/h
1908 26-02-2010 06:29:01 9.1 C 6.21 g/m*3 9.1 C 0 km/h
1909 26-02-2010 06:41:02 9.2 C 6.07 g/m*3 9.2 C 0 km/h
1910 26-02-2010 06:53:01 9.4 C 6.15 g/m*3 9.4 C 0 km/h
1911 26-02-2010 07:05:02 9.1 C 6.03 g/m*3 9.1 C 0 km/h
1912 26-02-2010 07:17:02 8.9 C 6.31 g/m*3 8.9 C 0 km/h
1913 26-02-2010 07:29:02 9 C 6.26 g/m*3 9 C 0 km/h
1914 26-02-2010 07:41:02 9.2 C 6.07 g/m*3 9.2 C 0 km/h
1915 26-02-2010 07:53:02 9.5 C 5.92 g/m*3 9.5 C 0 km/h
1916 26-02-2010 08:05:02 9.6 C 5.77 g/m*3 9.6 C 0 km/h
1917 26-02-2010 08:17:02 9.6 C 5.68 g/m*3 9.6 C 0 km/h
1918 26-02-2010 08:29:02 9.8 C 5.57 g/m*3 9.8 C 0 km/h
1919 26-02-2010 08:41:02 9.7 C 5.72 g/m*3 9.7 C 0 km/h
1920 26-02-2010 08:53:02 9.8 C 5.66 g/m*3 9.8 C 0 km/h
1921 26-02-2010 09:05:02 10.2 C 5.52 g/m*3 10.2 C 0 km/h
1922 26-02-2010 09:17:02 10.2 C 5.42 g/m*3 10.2 C 0 km/h
1923 26-02-2010 09:29:02 10.1 C 5.58 g/m*3 10.1 C 0 km/h
1924 26-02-2010 09:41:02 10.1 C 5.39 g/m*3 10.1 C 0 km/h
1925 26-02-2010 09:53:02 10.5 C 5.33 g/m*3 10.5 C 0 km/h
Sensor: Nr:Datum:Temp:Abs-Feuchte:Windchill:Wind:
Aussen-T/F 1926 26-02-2010 10:05:02 9.8 C 5.66 g/m*3 9.8 C 0 km/h
1927 26-02-2010 10:17:02 9.5 C 5.92 g/m*3 9.5 C 0 km/h
1928 26-02-2010 10:29:02 9.9 C 5.88 g/m*3 9.9 C 0 km/h
1929 26-02-2010 10:41:02 10.1 C 5.48 g/m*3 10.1 C 0 km/h
1930 26-02-2010 10:53:02 10.3 C 5.36 g/m*3 10.3 C 0 km/h
1931 26-02-2010 11:05:02 10.6 C 5.47 g/m*3 10.6 C 0 km/h
1932 26-02-2010 11:17:03 10.8 C 5.34 g/m*3 10.8 C 0 km/h
1933 26-02-2010 11:29:03 11 C 5.2 g/m*3 11 C 0 km/h
1934 26-02-2010 11:41:02 11.2 C 5.17 g/m*3 11.2 C 0 km/h
1935 26-02-2010 11:53:02 10.2 C 5.52 g/m*3 10.2 C 0 km/h
1936 26-02-2010 12:05:02 9.7 C 5.72 g/m*3 9.7 C 0 km/h
1937 26-02-2010 12:17:02 10 C 5.64 g/m*3 10 C 0 km/h
1938 26-02-2010 12:29:02 10.8 C 5.73 g/m*3 10.8 C 0 km/h
1939 26-02-2010 12:41:02 10.8 C 5.44 g/m*3 10.8 C 0 km/h
1940 26-02-2010 12:53:02 10.3 C 5.84 g/m*3 10.3 C 0 km/h
1941 26-02-2010 13:05:02 10.4 C 5.78 g/m*3 10.4 C 0 km/h
1942 26-02-2010 13:17:03 10.7 C 5.6 g/m*3 10.7 C 0 km/h
1943 26-02-2010 13:29:03 11.4 C 5.44 g/m*3 11.4 C 0 km/h
1944 26-02-2010 13:41:02 11.1 C 5.24 g/m*3 11.1 C 0 km/h
1945 26-02-2010 13:53:01 10.9 C 5.07 g/m*3 10.9 C 0 km/h
1946 26-02-2010 14:05:01 11.1 C 5.34 g/m*3 11.1 C 0 km/h
1947 26-02-2010 14:17:02 10.8 C 5.14 g/m*3 10.8 C 0 km/h
1948 26-02-2010 14:29:02 10.6 C 5.17 g/m*3 10.6 C 0 km/h
1949 26-02-2010 14:41:02 10.1 C 5.01 g/m*3 10.1 C 0 km/h
1950 26-02-2010 14:53:03 9.4 C 5.25 g/m*3 9.4 C 0 km/h
Sensor: Nr:Datum:Temp:Abs-Feuchte:Windchill:Wind:
Aussen-T/F 1951 26-02-2010 15:05:03 9.2 C 5.36 g/m*3 9.2 C 0 km/h
1952 26-02-2010 15:17:02 8.9 C 5.26 g/m*3 8.9 C 0 km/h
1953 26-02-2010 15:29:03 8.7 C 5.28 g/m*3 8.7 C 0 km/h
1954 26-02-2010 15:41:02 8.4 C 5.34 g/m*3 8.4 C 0 km/h
1955 26-02-2010 15:53:02 8.3 C 4.89 g/m*3 8.3 C 0 km/h
1956 26-02-2010 16:05:02 8.2 C 4.69 g/m*3 8.2 C 0 km/h
1957 26-02-2010 16:17:02 8 C 4.3 g/m*3 8 C 0 km/h
1958 26-02-2010 16:29:02 7.9 C 4.19 g/m*3 7.9 C 0 km/h
1959 26-02-2010 16:41:04 7.9 C 4.02 g/m*3 7.9 C 0 km/h
1960 26-02-2010 16:53:02 7.9 C 4.11 g/m*3 7.9 C 0 km/h
1961 26-02-2010 17:05:01 8.1 C 4.08 g/m*3 8.1 C 0 km/h
1962 26-02-2010 17:17:02 8 C 4.05 g/m*3 8 C 0 km/h
1963 26-02-2010 17:29:02 7.9 C 4.11 g/m*3 7.9 C 0 km/h
1964 26-02-2010 17:41:02 7.8 C 4.16 g/m*3 7.8 C 0 km/h
1965 26-02-2010 17:53:02 7.7 C 4.22 g/m*3 7.7 C 0 km/h
1966 26-02-2010 18:05:02 7.6 C 4.27 g/m*3 7.6 C 0 km/h
1967 26-02-2010 18:17:01 7.3 C 4.42 g/m*3 7.3 C 0 km/h
1968 26-02-2010 18:29:01 6.6 C 4.76 g/m*3 6.6 C 0 km/h
1969 26-02-2010 18:41:02 6.3 C 4.44 g/m*3 6.3 C 0 km/h
1970 26-02-2010 18:53:02 6.3 C 4.22 g/m*3 6.3 C 0 km/h
1971 26-02-2010 19:05:02 6.5 C 4.2 g/m*3 6.5 C 0 km/h
1972 26-02-2010 19:17:02 6.3 C 4.29 g/m*3 6.3 C 0 km/h
1973 26-02-2010 19:29:02 5.8 C 4.3 g/m*3 5.8 C 0 km/h
1974 26-02-2010 19:41:04 5.8 C 4.01 g/m*3 5.8 C 0 km/h
1975 26-02-2010 19:53:04 5.8 C 3.94 g/m*3 5.8 C 0 km/h
Sensor: Nr:Datum:Temp:Abs-Feuchte:Windchill:Wind:
Aussen-T/F 1976 26-02-2010 20:05:02 5.9 C 4.04 g/m*3 5.9 C 0 km/h
1977 26-02-2010 20:17:02 6 C 4.14 g/m*3 6 C 0 km/h
1978 26-02-2010 20:29:02 5.9 C 4.18 g/m*3 5.9 C 0 km/h
1979 26-02-2010 20:41:03 6 C 3.92 g/m*3 6 C 0 km/h
1980 26-02-2010 20:53:02 5.9 C 3.89 g/m*3 5.9 C 0 km/h
1981 26-02-2010 21:05:02 5.8 C 3.94 g/m*3 5.8 C 0 km/h
1982 26-02-2010 21:17:03 5.6 C 4.03 g/m*3 5.6 C 0 km/h
1983 26-02-2010 21:29:03 5.5 C 4 g/m*3 5.5 C 0 km/h
1984 26-02-2010 21:41:02 5.6 C 3.89 g/m*3 5.6 C 0 km/h
1985 26-02-2010 21:53:03 5.7 C 3.91 g/m*3 5.7 C 0 km/h
1986 26-02-2010 22:05:02 5.5 C 3.86 g/m*3 5.5 C 0 km/h
1987 26-02-2010 22:17:03 5.4 C 3.84 g/m*3 5.4 C 0 km/h
1988 26-02-2010 22:29:03 5.3 C 3.81 g/m*3 5.3 C 0 km/h
1989 26-02-2010 22:42:04 5.2 C 3.65 g/m*3 5.2 C 0 km/h
1990 26-02-2010 22:54:04 5.1 C 3.69 g/m*3 5.1 C 0 km/h
1991 26-02-2010 23:06:04 5.1 C 3.63 g/m*3 5.1 C 0 km/h
1992 26-02-2010 23:18:04 5.1 C 3.63 g/m*3 5.1 C 0 km/h
1993 26-02-2010 23:30:04 4.9 C 3.71 g/m*3 4.9 C 0 km/h
1994 26-02-2010 23:42:04 4.7 C 3.66 g/m*3 4.7 C 0 km/h
1995 26-02-2010 23:54:05 4.7 C 3.6 g/m*3 4.7 C 0 km/h
1996 27-02-2010 00:06:05 4.5 C 3.62 g/m*3 4.5 C 0 km/h
1997 27-02-2010 00:18:05 4.4 C 3.59 g/m*3 4.4 C 0 km/h
1998 27-02-2010 00:30:05 4.4 C 3.59 g/m*3 4.4 C 0 km/h
1999 27-02-2010 00:42:05 4.3 C 3.57 g/m*3 4.3 C 0 km/h
2000 27-02-2010 00:54:05 4.1 C 3.58 g/m*3 4.1 C 0 km/h
Sensor: Nr:Datum:Temp:Abs-Feuchte:Windchill:Wind:
Aussen-T/F 2001 27-02-2010 01:06:05 3.8 C 3.64 g/m*3 3.8 C 0 km/h
2002 27-02-2010 01:18:05 3.9 C 3.73 g/m*3 3.9 C 0 km/h
2003 27-02-2010 01:30:05 4 C 3.62 g/m*3 4 C 0 km/h
2004 27-02-2010 01:42:05 4.1 C 3.58 g/m*3 4.1 C 0 km/h
2005 27-02-2010 01:54:05 3.7 C 3.68 g/m*3 3.7 C 0 km/h
2006 27-02-2010 02:06:05 3.2 C 3.74 g/m*3 3.2 C 0 km/h
2007 27-02-2010 02:18:05 2.8 C 3.75 g/m*3 2.8 C 0 km/h
2008 27-02-2010 02:30:05 3.1 C 3.77 g/m*3 3.1 C 0 km/h
2009 27-02-2010 02:42:05 3.1 C 3.77 g/m*3 3.1 C 0 km/h
2010 27-02-2010 02:54:05 3.2 C 3.74 g/m*3 3.2 C 0 km/h
2011 27-02-2010 03:06:05 3.3 C 3.76 g/m*3 3.3 C 0 km/h
2012 27-02-2010 03:18:05 3.5 C 3.69 g/m*3 3.5 C 0 km/h
2013 27-02-2010 03:30:05 3.7 C 3.74 g/m*3 3.7 C 0 km/h
2014 27-02-2010 03:42:05 3.6 C 3.78 g/m*3 3.6 C 0 km/h
2015 27-02-2010 03:54:05 3.5 C 3.81 g/m*3 3.5 C 0 km/h
2016 27-02-2010 04:06:06 3.4 C 3.79 g/m*3 3.4 C 0 km/h
2017 27-02-2010 04:18:06 3.3 C 3.88 g/m*3 3.3 C 0 km/h
2018 27-02-2010 04:30:06 3.4 C 3.97 g/m*3 3.4 C 0 km/h
2019 27-02-2010 04:42:06 3.6 C 4.09 g/m*3 3.6 C 0 km/h
2020 27-02-2010 04:54:06 4.1 C 4.16 g/m*3 4.1 C 0 km/h
2021 27-02-2010 05:06:06 4 C 4.07 g/m*3 4 C 0 km/h
2022 27-02-2010 05:18:06 3.9 C 4.17 g/m*3 3.9 C 0 km/h
2023 27-02-2010 05:30:06 3.9 C 4.23 g/m*3 3.9 C 0 km/h
2024 27-02-2010 05:42:06 3.8 C 4.2 g/m*3 3.8 C 0 km/h
2025 27-02-2010 05:54:06 3.6 C 4.21 g/m*3 3.6 C 0 km/h
Sensor: Nr:Datum:Temp:Abs-Feuchte:Windchill:Wind:
Aussen-T/F 2026 27-02-2010 06:06:06 4 C 4.26 g/m*3 4 C 0 km/h
2027 27-02-2010 06:18:06 4.3 C 4.28 g/m*3 4.3 C 0 km/h
2028 27-02-2010 06:30:06 4.3 C 4.22 g/m*3 4.3 C 0 km/h
2029 27-02-2010 06:42:06 4.4 C 4.31 g/m*3 4.4 C 0 km/h
2030 27-02-2010 06:54:06 4.6 C 4.37 g/m*3 4.6 C 0 km/h
2031 27-02-2010 07:06:06 4.4 C 4.31 g/m*3 4.4 C 0 km/h
2032 27-02-2010 07:18:06 4.7 C 4.46 g/m*3 4.7 C 0 km/h
2033 27-02-2010 07:30:06 4.8 C 4.49 g/m*3 4.8 C 0 km/h
2034 27-02-2010 07:42:06 5.2 C 4.54 g/m*3 5.2 C 0 km/h
2035 27-02-2010 07:54:06 5.3 C 4.57 g/m*3 5.3 C 0 km/h
2036 27-02-2010 08:06:07 5.4 C 4.6 g/m*3 5.4 C 0 km/h
2037 27-02-2010 08:18:07 5.6 C 4.67 g/m*3 5.6 C 0 km/h
2038 27-02-2010 08:30:07 5.8 C 4.66 g/m*3 5.8 C 0 km/h
2039 27-02-2010 08:42:03 6.4 C 4.62 g/m*3 6.4 C 0 km/h
2040 27-02-2010 08:54:01 6.5 C 4.57 g/m*3 6.5 C 0 km/h
2041 27-02-2010 09:06:02 6.6 C 4.6 g/m*3 6.6 C 0 km/h
2042 27-02-2010 09:18:02 6.8 C 4.59 g/m*3 6.8 C 0 km/h
2043 27-02-2010 09:30:02 7 C 4.49 g/m*3 7 C 0 km/h
2044 27-02-2010 09:42:01 7.1 C 4.45 g/m*3 7.1 C 0 km/h
2045 27-02-2010 09:54:02 7.3 C 4.5 g/m*3 7.3 C 0 km/h
2046 27-02-2010 10:06:01 7.5 C 4.48 g/m*3 7.5 C 0 km/h
2047 27-02-2010 10:18:02 7.6 C 4.43 g/m*3 7.6 C 0 km/h
2048 27-02-2010 10:30:02 8.1 C 4.49 g/m*3 8.1 C 0 km/h
2049 27-02-2010 10:42:01 8.7 C 4.58 g/m*3 8.7 C 0 km/h
2050 27-02-2010 10:54:03 8.6 C 4.55 g/m*3 8.6 C 0 km/h
Sensor: Nr:Datum:Temp:Abs-Feuchte:Windchill:Wind:
Aussen-T/F 2051 27-02-2010 11:06:02 8.7 C 4.5 g/m*3 8.7 C 0 km/h
2052 27-02-2010 11:18:02 9.1 C 4.53 g/m*3 9.1 C 0 km/h
2053 27-02-2010 11:30:03 9.3 C 4.49 g/m*3 9.3 C 0 km/h
2054 27-02-2010 11:42:02 9.3 C 4.31 g/m*3 9.3 C 0 km/h
2055 27-02-2010 11:54:02 9.3 C 4.31 g/m*3 9.3 C 0 km/h
2056 27-02-2010 12:06:02 9.4 C 4.34 g/m*3 9.4 C 0 km/h
2057 27-02-2010 12:18:02 9.8 C 4.36 g/m*3 9.8 C 0 km/h
2058 27-02-2010 12:30:02 10.1 C 4.35 g/m*3 10.1 C 0 km/h
2059 27-02-2010 12:42:02 10.8 C 4.35 g/m*3 10.8 C 0 km/h
2060 27-02-2010 12:54:02 11.2 C 4.16 g/m*3 11.2 C 0 km/h
2061 27-02-2010 13:06:01 11.8 C 4.1 g/m*3 11.8 C 0 km/h
2062 27-02-2010 13:18:01 11.8 C 3.68 g/m*3 11.8 C 0 km/h
2063 27-02-2010 13:30:01 12.3 C 3.58 g/m*3 12.3 C 0 km/h
2064 27-02-2010 13:42:02 12.9 C 3.49 g/m*3 12.9 C 0 km/h
2065 27-02-2010 13:54:02 12.9 C 3.38 g/m*3 12.9 C 0 km/h
2066 27-02-2010 14:06:02 13.4 C 3.49 g/m*3 13.4 C 0 km/h
2067 27-02-2010 14:18:02 14.2 C 3.42 g/m*3 14.2 C 0 km/h
2068 27-02-2010 14:30:02 14.5 C 3.23 g/m*3 14.5 C 0 km/h
2069 27-02-2010 14:42:02 14.8 C 3.17 g/m*3 14.8 C 0 km/h
2070 27-02-2010 14:54:01 14.9 C 2.8 g/m*3 14.9 C 0 km/h
2071 27-02-2010 15:06:02 14.8 C 2.79 g/m*3 14.8 C 0 km/h
2072 27-02-2010 15:18:01 15.5 C 2.78 g/m*3 15.5 C 0 km/h
2073 27-02-2010 15:30:01 15.9 C 2.84 g/m*3 15.9 C 0 km/h
2074 27-02-2010 15:42:02 15.6 C 2.93 g/m*3 15.6 C 0 km/h
2075 27-02-2010 15:54:02 15.7 C 3.08 g/m*3 15.7 C 0 km/h
Sensor: Nr:Datum:Temp:Abs-Feuchte:Windchill:Wind:
Aussen-T/F 2076 27-02-2010 16:06:02 15.7 C 2.81 g/m*3 15.7 C 0 km/h
2077 27-02-2010 16:18:01 14.8 C 2.66 g/m*3 14.8 C 0 km/h
2078 27-02-2010 16:30:01 15 C 2.56 g/m*3 15 C 0 km/h
2079 27-02-2010 16:42:02 14.3 C 2.46 g/m*3 14.3 C 0 km/h
2080 27-02-2010 16:54:02 14.6 C 2.5 g/m*3 14.6 C 0 km/h
2081 27-02-2010 17:06:02 15.7 C 2.68 g/m*3 15.7 C 0 km/h
2082 27-02-2010 17:18:02 14.4 C 2.47 g/m*3 14.4 C 0 km/h
2083 27-02-2010 17:30:02 13.5 C 2.57 g/m*3 13.5 C 0 km/h
2084 27-02-2010 17:42:02 12.9 C 3.38 g/m*3 12.9 C 0 km/h
2085 27-02-2010 17:54:02 11.7 C 3.66 g/m*3 11.7 C 0 km/h
2086 27-02-2010 18:06:02 11 C 3.7 g/m*3 11 C 0 km/h
2087 27-02-2010 18:18:03 10.5 C 3.88 g/m*3 10.5 C 0 km/h
2088 27-02-2010 18:30:03 10.2 C 3.81 g/m*3 10.2 C 0 km/h
2089 27-02-2010 18:42:02 10 C 3.95 g/m*3 10 C 0 km/h
2090 27-02-2010 18:54:02 9.9 C 4.2 g/m*3 9.9 C 0 km/h
2091 27-02-2010 19:06:02 9.8 C 4.27 g/m*3 9.8 C 0 km/h
2092 27-02-2010 19:18:02 10 C 4.23 g/m*3 10 C 0 km/h
2093 27-02-2010 19:30:02 10 C 4.23 g/m*3 10 C 0 km/h
2094 27-02-2010 19:42:02 9.8 C 4.18 g/m*3 9.8 C 0 km/h
2095 27-02-2010 19:54:02 9.8 C 4.18 g/m*3 9.8 C 0 km/h
2096 27-02-2010 20:06:02 10 C 4.13 g/m*3 10 C 0 km/h
2097 27-02-2010 20:18:02 9.9 C 4.2 g/m*3 9.9 C 0 km/h
2098 27-02-2010 20:30:02 9.7 C 4.15 g/m*3 9.7 C 0 km/h
2099 27-02-2010 20:42:02 9.9 C 4.01 g/m*3 9.9 C 0 km/h
2100 27-02-2010 20:54:02 9.8 C 4.18 g/m*3 9.8 C 0 km/h
Sensor: Nr:Datum:Temp:Abs-Feuchte:Windchill:Wind:
Aussen-T/F 2101 27-02-2010 21:06:01 9.6 C 3.94 g/m*3 9.6 C 0 km/h
2102 27-02-2010 21:18:02 9.6 C 3.94 g/m*3 9.6 C 0 km/h
2103 27-02-2010 21:30:02 9.6 C 3.94 g/m*3 9.6 C 0 km/h
2104 27-02-2010 21:42:01 9.7 C 3.69 g/m*3 9.7 C 0 km/h
2105 27-02-2010 21:54:03 9.6 C 3.66 g/m*3 9.6 C 0 km/h
2106 27-02-2010 22:06:03 9.7 C 3.78 g/m*3 9.7 C 0 km/h
2107 27-02-2010 22:18:02 9.8 C 3.71 g/m*3 9.8 C 0 km/h
2108 27-02-2010 22:30:02 9.8 C 3.71 g/m*3 9.8 C 0 km/h
2109 27-02-2010 22:43:02 9.9 C 3.64 g/m*3 9.9 C 0 km/h
2110 27-02-2010 22:55:02 9.8 C 3.71 g/m*3 9.8 C 0 km/h
2111 27-02-2010 23:07:02 9.8 C 3.71 g/m*3 9.8 C 0 km/h
2112 27-02-2010 23:19:02 9.7 C 3.69 g/m*3 9.7 C 0 km/h
2113 27-02-2010 23:31:02 9.6 C 3.66 g/m*3 9.6 C 0 km/h
2114 27-02-2010 23:43:03 9.6 C 3.76 g/m*3 9.6 C 0 km/h
2115 27-02-2010 23:55:03 9.4 C 3.8 g/m*3 9.4 C 0 km/h
2116 28-02-2010 00:07:03 9.3 C 3.77 g/m*3 9.3 C 0 km/h
2117 28-02-2010 00:19:03 8.9 C 4.2 g/m*3 8.9 C 0 km/h
2118 28-02-2010 00:31:03 8.6 C 4.04 g/m*3 8.6 C 0 km/h
2119 28-02-2010 00:43:03 8.5 C 4.44 g/m*3 8.5 C 0 km/h
2120 28-02-2010 00:55:03 7.3 C 4.98 g/m*3 7.3 C 0 km/h
2121 28-02-2010 01:07:03 6.9 C 5.54 g/m*3 6.9 C 0 km/h
2122 28-02-2010 01:19:03 6.6 C 5.59 g/m*3 6.6 C 0 km/h
2123 28-02-2010 01:31:03 6.4 C 5.74 g/m*3 6.4 C 0 km/h
2124 28-02-2010 01:43:03 6.4 C 5.89 g/m*3 6.4 C 0 km/h
2125 28-02-2010 01:55:03 6.2 C 5.88 g/m*3 6.2 C 0 km/h
Sensor: Nr:Datum:Temp:Abs-Feuchte:Windchill:Wind:
Aussen-T/F 2126 28-02-2010 02:07:03 6.2 C 6.03 g/m*3 6.2 C 0 km/h
2127 28-02-2010 02:19:03 6.2 C 6.1 g/m*3 6.2 C 0 km/h
2128 28-02-2010 02:31:03 5.9 C 6.06 g/m*3 5.9 C 0 km/h
2129 28-02-2010 02:43:03 5.9 C 6.13 g/m*3 5.9 C 0 km/h
2130 28-02-2010 02:55:03 5.8 C 6.09 g/m*3 5.8 C 0 km/h
2131 28-02-2010 03:07:03 5.8 C 6.16 g/m*3 5.8 C 0 km/h
2132 28-02-2010 03:19:03 5.7 C 6.12 g/m*3 5.7 C 0 km/h
2133 28-02-2010 03:31:03 5.7 C 6.12 g/m*3 5.7 C 0 km/h
2134 28-02-2010 03:43:03 5.7 C 6.12 g/m*3 5.7 C 0 km/h
2135 28-02-2010 03:55:04 5.8 C 6.09 g/m*3 5.8 C 0 km/h
2136 28-02-2010 04:07:04 5.9 C 6.13 g/m*3 5.9 C 0 km/h
2137 28-02-2010 04:19:04 6 C 6.17 g/m*3 6 C 0 km/h
2138 28-02-2010 04:31:04 6.3 C 6.29 g/m*3 6.3 C 0 km/h
2139 28-02-2010 04:43:04 6.3 C 6.37 g/m*3 6.3 C 0 km/h
2140 28-02-2010 04:55:04 6.1 C 6.28 g/m*3 6.1 C 0 km/h
2141 28-02-2010 05:07:04 6.1 C 6.36 g/m*3 6.1 C 0 km/h
2142 28-02-2010 05:19:04 6.3 C 6.44 g/m*3 6.3 C 0 km/h
2143 28-02-2010 05:31:04 6.3 C 6.44 g/m*3 6.3 C 0 km/h
2144 28-02-2010 05:43:04 6.3 C 6.44 g/m*3 6.3 C 0 km/h
2145 28-02-2010 05:55:04 6.3 C 6.44 g/m*3 6.3 C 0 km/h
2146 28-02-2010 06:07:04 6.1 C 6.43 g/m*3 6.1 C 0 km/h
2147 28-02-2010 06:19:04 6.3 C 6.51 g/m*3 6.3 C 0 km/h
2148 28-02-2010 06:31:04 6.2 C 6.47 g/m*3 6.2 C 0 km/h
2149 28-02-2010 06:43:04 6.1 C 6.5 g/m*3 6.1 C 0 km/h
2150 28-02-2010 06:55:04 6.1 C 6.5 g/m*3 6.1 C 0 km/h
Sensor: Nr:Datum:Temp:Abs-Feuchte:Windchill:Wind:
Aussen-T/F 2151 28-02-2010 07:07:04 6.3 C 6.66 g/m*3 6.3 C 0 km/h
2152 28-02-2010 07:19:04 6.3 C 6.66 g/m*3 6.3 C 0 km/h
2153 28-02-2010 07:31:04 6.2 C 6.69 g/m*3 6.2 C 0 km/h
2154 28-02-2010 07:43:04 6.3 C 6.74 g/m*3 6.3 C 0 km/h
2155 28-02-2010 07:55:04 6.4 C 6.85 g/m*3 6.4 C 0 km/h
2156 28-02-2010 08:07:01 6.5 C 6.9 g/m*3 6.5 C 0 km/h
2157 28-02-2010 08:19:02 6.7 C 7.07 g/m*3 6.7 C 0 km/h
2158 28-02-2010 08:31:02 6.9 C 7.16 g/m*3 6.9 C 0 km/h
2159 28-02-2010 08:43:02 7 C 7.13 g/m*3 7 C 0 km/h
2160 28-02-2010 08:55:01 7.3 C 7.35 g/m*3 7.3 C 0 km/h
2161 28-02-2010 09:07:02 7.9 C 7.47 g/m*3 7.9 C 0 km/h
2162 28-02-2010 09:19:02 8.2 C 7.2 g/m*3 8.2 C 0 km/h
2163 28-02-2010 09:31:01 8.5 C 7.09 g/m*3 8.5 C 0 km/h
2164 28-02-2010 09:43:01 8.8 C 6.96 g/m*3 8.8 C 0 km/h
2165 28-02-2010 09:55:01 8.8 C 6.88 g/m*3 8.8 C 0 km/h
2166 28-02-2010 10:07:02 8.9 C 6.75 g/m*3 8.9 C 0 km/h
2167 28-02-2010 10:19:02 9.3 C 6.65 g/m*3 9.3 C 0 km/h
2168 28-02-2010 10:31:01 9.6 C 6.69 g/m*3 9.6 C 0 km/h
2169 28-02-2010 10:43:01 9.8 C 6.87 g/m*3 9.8 C 0 km/h
2170 28-02-2010 10:55:01 10.2 C 6.66 g/m*3 10.2 C 0 km/h
2171 28-02-2010 11:07:02 10.7 C 6.78 g/m*3 10.7 C 0 km/h
2172 28-02-2010 11:19:02 12.3 C 5.97 g/m*3 12.3 C 0 km/h
2173 28-02-2010 11:31:01 13.2 C 5.28 g/m*3 13.2 C 0 km/h
2174 28-02-2010 11:43:01 13 C 5.22 g/m*3 13 C 0 km/h
2175 28-02-2010 11:55:01 13 C 4.65 g/m*3 13 C 0 km/h
Sensor: Nr:Datum:Temp:Abs-Feuchte:Windchill:Wind:
Aussen-T/F 2176 28-02-2010 12:07:01 13 C 4.65 g/m*3 13 C 0 km/h
2177 28-02-2010 12:19:02 12.7 C 4.56 g/m*3 12.7 C 0 km/h
2178 28-02-2010 12:31:01 13 C 4.31 g/m*3 13 C 0 km/h
2179 28-02-2010 12:43:01 12.6 C 4.54 g/m*3 12.6 C 0 km/h
2180 28-02-2010 12:55:02 12.5 C 4.29 g/m*3 12.5 C 0 km/h
2181 28-02-2010 13:07:01 12.5 C 4.18 g/m*3 12.5 C 0 km/h
2182 28-02-2010 13:19:02 12.2 C 4.1 g/m*3 12.2 C 0 km/h
2183 28-02-2010 13:31:01 11.9 C 3.92 g/m*3 11.9 C 0 km/h
2184 28-02-2010 13:43:01 11.8 C 3.89 g/m*3 11.8 C 0 km/h
2185 28-02-2010 13:55:02 11.8 C 3.79 g/m*3 11.8 C 0 km/h
2186 28-02-2010 14:07:42 11.6 C 3.64 g/m*3 11.6 C 0 km/h
2187 28-02-2010 14:19:02 11.4 C 3.59 g/m*3 11.4 C 0 km/h
2188 28-02-2010 14:31:02 11.1 C 3.63 g/m*3 11.1 C 0 km/h
2189 28-02-2010 14:43:02 10.7 C 3.83 g/m*3 10.7 C 0 km/h
2190 28-02-2010 14:55:02 10.5 C 3.88 g/m*3 10.5 C 0 km/h
2191 28-02-2010 15:07:01 10.6 C 3.9 g/m*3 10.6 C 0 km/h
2192 28-02-2010 15:19:02 10.5 C 3.88 g/m*3 10.5 C 0 km/h
2193 28-02-2010 15:31:01 9.7 C 4.52 g/m*3 9.7 C 0 km/h
2194 28-02-2010 15:43:01 10 C 4.51 g/m*3 10 C 0 km/h
2195 28-02-2010 15:55:03 10 C 4.32 g/m*3 10 C 0 km/h
2196 28-02-2010 16:07:02 10 C 4.42 g/m*3 10 C 0 km/h
2197 28-02-2010 16:19:02 9.8 C 4.45 g/m*3 9.8 C 0 km/h
2198 28-02-2010 16:31:02 9.6 C 4.49 g/m*3 9.6 C 0 km/h
2199 28-02-2010 16:43:02 9.5 C 4.64 g/m*3 9.5 C 0 km/h
2200 28-02-2010 16:55:02 9.2 C 4.64 g/m*3 9.2 C 0 km/h
Sensor: Nr:Datum:Temp:Abs-Feuchte:Windchill:Wind:
Aussen-T/F 2201 28-02-2010 17:07:02 9.2 C 4.64 g/m*3 9.2 C 0 km/h
2202 28-02-2010 17:19:02 9.2 C 4.64 g/m*3 9.2 C 0 km/h
2203 28-02-2010 17:31:02 9.1 C 4.53 g/m*3 9.1 C 0 km/h
2204 28-02-2010 17:43:02 8.9 C 4.56 g/m*3 8.9 C 0 km/h
2205 28-02-2010 17:55:02 8.7 C 4.76 g/m*3 8.7 C 0 km/h
2206 28-02-2010 18:07:01 8.2 C 5.02 g/m*3 8.2 C 0 km/h
2207 28-02-2010 18:19:02 8.1 C 4.99 g/m*3 8.1 C 0 km/h
2208 28-02-2010 18:31:01 8.2 C 5.02 g/m*3 8.2 C 0 km/h
2209 28-02-2010 18:43:01 8.2 C 4.94 g/m*3 8.2 C 0 km/h
2210 28-02-2010 18:55:03 8 C 5.13 g/m*3 8 C 0 km/h
2211 28-02-2010 19:07:02 7.9 C 5.09 g/m*3 7.9 C 0 km/h
2212 28-02-2010 19:19:03 8 C 4.88 g/m*3 8 C 0 km/h
2213 28-02-2010 19:31:03 8.1 C 4.74 g/m*3 8.1 C 0 km/h
2214 28-02-2010 19:43:03 8 C 4.71 g/m*3 8 C 0 km/h
2215 28-02-2010 19:55:02 8.1 C 4.74 g/m*3 8.1 C 0 km/h
2216 28-02-2010 20:07:03 8 C 4.71 g/m*3 8 C 0 km/h
2217 28-02-2010 20:19:02 7.8 C 4.9 g/m*3 7.8 C 0 km/h
2218 28-02-2010 20:31:01 7.8 C 4.98 g/m*3 7.8 C 0 km/h
2219 28-02-2010 20:43:01 7.7 C 4.95 g/m*3 7.7 C 0 km/h
2220 28-02-2010 20:55:01 7.8 C 4.73 g/m*3 7.8 C 0 km/h
2221 28-02-2010 21:07:02 7.8 C 4.57 g/m*3 7.8 C 0 km/h
2222 28-02-2010 21:19:02 7.6 C 4.51 g/m*3 7.6 C 0 km/h
2223 28-02-2010 21:31:02 7.5 C 4.56 g/m*3 7.5 C 0 km/h
2224 28-02-2010 21:43:02 7.6 C 4.51 g/m*3 7.6 C 0 km/h
2225 28-02-2010 21:55:02 7.7 C 4.54 g/m*3 7.7 C 0 km/h
Sensor: Nr:Datum:Temp:Abs-Feuchte:Windchill:Wind:
Aussen-T/F 2226 28-02-2010 22:08:03 7.6 C 4.51 g/m*3 7.6 C 0 km/h
2227 28-02-2010 22:20:03 7.5 C 4.48 g/m*3 7.5 C 0 km/h
2228 28-02-2010 22:32:03 7.4 C 4.53 g/m*3 7.4 C 0 km/h
2229 28-02-2010 22:44:03 7.1 C 4.68 g/m*3 7.1 C 0 km/h
2230 28-02-2010 22:56:03 7 C 4.65 g/m*3 7 C 0 km/h
2231 28-02-2010 23:08:03 7 C 4.8 g/m*3 7 C 0 km/h
2232 28-02-2010 23:20:03 7 C 4.8 g/m*3 7 C 0 km/h
2233 28-02-2010 23:32:03 6.9 C 4.93 g/m*3 6.9 C 0 km/h
2234 28-02-2010 23:44:03 6.7 C 4.94 g/m*3 6.7 C 0 km/h
2235 28-02-2010 23:56:03 6.6 C 4.98 g/m*3 6.6 C 0 km/h
2236 01-03-2010 00:08:03 6.3 C 4.89 g/m*3 6.3 C 0 km/h
2237 01-03-2010 00:20:04 6.1 C 4.89 g/m*3 6.1 C 0 km/h
2238 01-03-2010 00:32:04 6.2 C 4.85 g/m*3 6.2 C 0 km/h
2239 01-03-2010 00:44:04 6.1 C 4.75 g/m*3 6.1 C 0 km/h
2240 01-03-2010 00:56:04 6.1 C 4.6 g/m*3 6.1 C 0 km/h
2241 01-03-2010 01:08:04 5.9 C 4.76 g/m*3 5.9 C 0 km/h
2242 01-03-2010 01:20:04 5.7 C 4.7 g/m*3 5.7 C 0 km/h
2243 01-03-2010 01:32:04 5.8 C 4.37 g/m*3 5.8 C 0 km/h
2244 01-03-2010 01:44:04 5.7 C 4.34 g/m*3 5.7 C 0 km/h
2245 01-03-2010 01:56:04 5.8 C 4.23 g/m*3 5.8 C 0 km/h
2246 01-03-2010 02:08:04 5.8 C 4.23 g/m*3 5.8 C 0 km/h
2247 01-03-2010 02:20:04 5.7 C 3.99 g/m*3 5.7 C 0 km/h
2248 01-03-2010 02:32:04 5.6 C 3.96 g/m*3 5.6 C 0 km/h
2249 01-03-2010 02:44:05 5.5 C 3.93 g/m*3 5.5 C 0 km/h
2250 01-03-2010 02:56:05 5.4 C 4.05 g/m*3 5.4 C 0 km/h
Sensor: Nr:Datum:Temp:Abs-Feuchte:Windchill:Wind:
Aussen-T/F 2251 01-03-2010 03:08:05 5.3 C 4.09 g/m*3 5.3 C 0 km/h
2252 01-03-2010 03:20:05 5 C 4.14 g/m*3 5 C 0 km/h
2253 01-03-2010 03:32:05 5 C 4.14 g/m*3 5 C 0 km/h
2254 01-03-2010 03:44:05 4.9 C 4.12 g/m*3 4.9 C 0 km/h
2255 01-03-2010 03:56:05 4.8 C 4.09 g/m*3 4.8 C 0 km/h
2256 01-03-2010 04:08:05 4.7 C 4.13 g/m*3 4.7 C 0 km/h
2257 01-03-2010 04:20:05 4.6 C 4.17 g/m*3 4.6 C 0 km/h
2258 01-03-2010 04:32:05 4.6 C 4.23 g/m*3 4.6 C 0 km/h
2259 01-03-2010 04:44:05 4.7 C 4.33 g/m*3 4.7 C 0 km/h
2260 01-03-2010 04:56:05 4.8 C 4.36 g/m*3 4.8 C 0 km/h
2261 01-03-2010 05:08:05 4.4 C 4.7 g/m*3 4.4 C 0 km/h
2262 01-03-2010 05:20:05 4.1 C 4.99 g/m*3 4.1 C 0 km/h
2263 01-03-2010 05:32:05 3.8 C 5.08 g/m*3 3.8 C 0 km/h
2264 01-03-2010 05:44:05 3.5 C 5.04 g/m*3 3.5 C 0 km/h
2265 01-03-2010 05:56:05 3.5 C 5.04 g/m*3 3.5 C 0 km/h
2266 01-03-2010 06:08:05 3.4 C 5.01 g/m*3 3.4 C 0 km/h
2267 01-03-2010 06:20:05 3.4 C 5.01 g/m*3 3.4 C 0 km/h
2268 01-03-2010 06:32:05 3.6 C 4.89 g/m*3 3.6 C 0 km/h
2269 01-03-2010 06:44:05 3.8 C 4.77 g/m*3 3.8 C 0 km/h
2270 01-03-2010 06:56:05 4 C 4.64 g/m*3 4 C 0 km/h
2271 01-03-2010 07:08:05 4.1 C 4.48 g/m*3 4.1 C 0 km/h
2272 01-03-2010 07:20:03 4.2 C 4.38 g/m*3 4.2 C 0 km/h
2273 01-03-2010 07:32:03 4.2 C 4.12 g/m*3 4.2 C 0 km/h
2274 01-03-2010 07:44:03 4.4 C 3.92 g/m*3 4.4 C 0 km/h
2275 01-03-2010 07:56:02 4.6 C 3.77 g/m*3 4.6 C 0 km/h
Sensor: Nr:Datum:Temp:Abs-Feuchte:Windchill:Wind:
Aussen-T/F 2276 01-03-2010 08:08:02 4.6 C 3.71 g/m*3 4.6 C 0 km/h
2277 01-03-2010 08:20:02 4.8 C 3.69 g/m*3 4.8 C 0 km/h
2278 01-03-2010 08:32:02 4.9 C 3.71 g/m*3 4.9 C 0 km/h
2279 01-03-2010 08:44:02 5 C 3.67 g/m*3 5 C 0 km/h
2280 01-03-2010 08:56:01 5.1 C 3.69 g/m*3 5.1 C 0 km/h
2281 01-03-2010 09:08:02 5.2 C 3.86 g/m*3 5.2 C 0 km/h
2282 01-03-2010 09:20:01 5.3 C 4.02 g/m*3 5.3 C 0 km/h
2283 01-03-2010 09:32:02 5.4 C 3.91 g/m*3 5.4 C 0 km/h
2284 01-03-2010 09:44:02 5.6 C 3.96 g/m*3 5.6 C 0 km/h
2285 01-03-2010 09:56:01 5.8 C 4.01 g/m*3 5.8 C 0 km/h
2286 01-03-2010 10:08:02 6 C 3.7 g/m*3 6 C 0 km/h
2287 01-03-2010 10:20:01 6.2 C 3.6 g/m*3 6.2 C 0 km/h
2288 01-03-2010 10:32:02 6.4 C 3.65 g/m*3 6.4 C 0 km/h
2289 01-03-2010 10:44:02 6.3 C 3.48 g/m*3 6.3 C 0 km/h
2290 01-03-2010 10:56:01 6.4 C 3.5 g/m*3 6.4 C 0 km/h
2291 01-03-2010 11:08:02 6.7 C 3.5 g/m*3 6.7 C 0 km/h
2292 01-03-2010 11:20:02 6.6 C 3.47 g/m*3 6.6 C 0 km/h
2293 01-03-2010 11:32:02 6.3 C 3.41 g/m*3 6.3 C 0 km/h
2294 01-03-2010 11:44:02 6.6 C 3.47 g/m*3 6.6 C 0 km/h
2295 01-03-2010 11:56:01 7 C 3.33 g/m*3 7 C 0 km/h
2296 01-03-2010 12:08:02 7 C 3.33 g/m*3 7 C 0 km/h
2297 01-03-2010 12:20:02 7.2 C 3.3 g/m*3 7.2 C 0 km/h
2298 01-03-2010 12:32:01 7.5 C 3.2 g/m*3 7.5 C 0 km/h
2299 01-03-2010 12:44:01 7.9 C 3.2 g/m*3 7.9 C 0 km/h
2300 01-03-2010 12:56:02 7.8 C 3.18 g/m*3 7.8 C 0 km/h
Sensor: Nr:Datum:Temp:Abs-Feuchte:Windchill:Wind:
Aussen-T/F 2301 01-03-2010 13:08:01 7.7 C 3.16 g/m*3 7.7 C 0 km/h
2302 01-03-2010 13:20:02 8 C 3.14 g/m*3 8 C 0 km/h
2303 01-03-2010 13:32:01 8 C 3.06 g/m*3 8 C 0 km/h
2304 01-03-2010 13:44:01 7.8 C 3.02 g/m*3 7.8 C 0 km/h
2305 01-03-2010 13:56:01 7.7 C 3 g/m*3 7.7 C 0 km/h
2306 01-03-2010 14:08:01 7.3 C 3.16 g/m*3 7.3 C 0 km/h
2307 01-03-2010 14:20:01 7.1 C 3.2 g/m*3 7.1 C 0 km/h
2308 01-03-2010 14:32:02 7.6 C 3.22 g/m*3 7.6 C 0 km/h
2309 01-03-2010 14:44:02 7.5 C 3.2 g/m*3 7.5 C 0 km/h
2310 01-03-2010 14:56:02 7.4 C 3.18 g/m*3 7.4 C 0 km/h
2311 01-03-2010 15:08:02 7.3 C 3.24 g/m*3 7.3 C 0 km/h
2312 01-03-2010 15:20:02 7.6 C 3.3 g/m*3 7.6 C 0 km/h
2313 01-03-2010 15:32:02 7.5 C 3.28 g/m*3 7.5 C 0 km/h
2314 01-03-2010 15:44:02 7.4 C 3.1 g/m*3 7.4 C 0 km/h
2315 01-03-2010 15:56:02 7.3 C 3 g/m*3 7.3 C 0 km/h
2316 01-03-2010 16:08:01 7.3 C 3.08 g/m*3 7.3 C 0 km/h
2317 01-03-2010 16:20:02 7.3 C 3.08 g/m*3 7.3 C 0 km/h
2318 01-03-2010 16:32:02 7.3 C 3.08 g/m*3 7.3 C 0 km/h
2319 01-03-2010 16:44:02 7.3 C 3.08 g/m*3 7.3 C 0 km/h
2320 01-03-2010 16:56:02 7.2 C 3.06 g/m*3 7.2 C 0 km/h
2321 01-03-2010 17:08:03 7.1 C 3.12 g/m*3 7.1 C 0 km/h
2322 01-03-2010 17:20:02 6.9 C 3.08 g/m*3 6.9 C 0 km/h
2323 01-03-2010 17:32:02 6.8 C 3.06 g/m*3 6.8 C 0 km/h
2324 01-03-2010 17:44:02 6.8 C 3.14 g/m*3 6.8 C 0 km/h
2325 01-03-2010 17:56:01 6.7 C 3.12 g/m*3 6.7 C 0 km/h
Sensor: Nr:Datum:Temp:Abs-Feuchte:Windchill:Wind:
Aussen-T/F 2326 01-03-2010 18:08:02 6.5 C 3.22 g/m*3 6.5 C 0 km/h
2327 01-03-2010 18:20:01 6.4 C 3.5 g/m*3 6.4 C 0 km/h
2328 01-03-2010 18:32:01 6 C 3.56 g/m*3 6 C 0 km/h
2329 01-03-2010 18:44:01 5.8 C 3.72 g/m*3 5.8 C 0 km/h
2330 01-03-2010 18:56:01 5.7 C 3.77 g/m*3 5.7 C 0 km/h
2331 01-03-2010 19:08:02 5.6 C 3.68 g/m*3 5.6 C 0 km/h
2332 01-03-2010 19:20:01 5.6 C 3.53 g/m*3 5.6 C 0 km/h
2333 01-03-2010 19:32:02 5.4 C 3.56 g/m*3 5.4 C 0 km/h
2334 01-03-2010 19:44:02 5.3 C 3.53 g/m*3 5.3 C 0 km/h
2335 01-03-2010 19:56:02 5.1 C 3.42 g/m*3 5.1 C 0 km/h
2336 01-03-2010 20:08:03 5 C 3.4 g/m*3 5 C 0 km/h
2337 01-03-2010 20:20:02 5.1 C 3.42 g/m*3 5.1 C 0 km/h
2338 01-03-2010 20:32:02 4.6 C 3.44 g/m*3 4.6 C 0 km/h
2339 01-03-2010 20:44:02 4.4 C 3.46 g/m*3 4.4 C 0 km/h
2340 01-03-2010 20:56:02 4.4 C 3.4 g/m*3 4.4 C 0 km/h
2341 01-03-2010 21:08:02 3.8 C 3.51 g/m*3 3.8 C 0 km/h
2342 01-03-2010 21:20:02 3.4 C 3.54 g/m*3 3.4 C 0 km/h
2343 01-03-2010 21:32:01 3.4 C 3.6 g/m*3 3.4 C 0 km/h
2344 01-03-2010 21:44:01 3.3 C 3.64 g/m*3 3.3 C 0 km/h
2345 01-03-2010 21:56:02 3.1 C 3.71 g/m*3 3.1 C 0 km/h
2346 01-03-2010 22:08:02 2.8 C 3.64 g/m*3 2.8 C 0 km/h
2347 01-03-2010 22:21:03 2.6 C 3.82 g/m*3 2.6 C 0 km/h
2348 01-03-2010 22:33:03 2.4 C 3.83 g/m*3 2.4 C 0 km/h
2349 01-03-2010 22:45:03 2.1 C 3.86 g/m*3 2.1 C 0 km/h
2350 01-03-2010 22:57:03 2 C 3.89 g/m*3 2 C 0 km/h
Sensor: Nr:Datum:Temp:Abs-Feuchte:Windchill:Wind:
Aussen-T/F 2351 01-03-2010 23:09:03 1.8 C 3.95 g/m*3 1.8 C 0 km/h
2352 01-03-2010 23:21:03 1.5 C 3.92 g/m*3 1.5 C 0 km/h
2353 01-03-2010 23:33:03 1.2 C 3.89 g/m*3 1.2 C 0 km/h
2354 01-03-2010 23:45:03 1.1 C 3.92 g/m*3 1.1 C 0 km/h
2355 01-03-2010 23:57:03 1.1 C 3.97 g/m*3 1.1 C 0 km/h

Legende:
   Min
   Max


Maximal/Minimal-Werte vom 02.02.2010 - 01.03.2010

Sensor Min Max Avg
Temp
(Aussen-T/F)
-8.1 °C
11-02-2010  01:46:20
15.9 °C
27-02-2010  15:30:01
3.75 °C
Abs-Feuchte
(Aussen-T/F)
1.75 g/m*3
09-02-2010  21:26:17
7.91 g/m*3
23-02-2010  21:04:02
4.42 g/m*3
Windchill
(Aussen-T/F)
-8.1 C
11-02-2010  01:46:20
15.9 C
27-02-2010  15:30:01
3.75 C

Die Daten stammen von einer Davis Vantage Pro 2 Wetter-Station und werden unter Linux mit der Software wview2wettercgi und aufbereitet. Alle Angaben erfolgen ohne Gewähr für ihre Vollständigkeit oder Richtigkeit.
Kontakt: Rainer Krienke krienke@uni-koblenz.de . Meine Webseiten an der Uni Koblenz oder privat.
Version: $Revision: 0.78 $